Wetterdaten: Sonntag, 08.10.2017
Datum Zeit Temp. A. Pool Temp. Feuchte A. Luftdruck Regen Wind Richtung Richtung Sonnenschein ET UV Solar Taupunkt Windchill Windben Empfang
08.10.2017 00:00 8,7 C 11,7 C 84 % 1014,9 hPa 0,0 l/m 8,0 km/h (2 Bft) S-SW 206 0 min 0,000 mm 0,0 UV-I 0 W/m 6,2 C 7,5 C 12,9 km/h (3 Bft) 96,00 %
08.10.2017 00:02 8,7 C 11,7 C 84 % 1014,9 hPa 0,0 l/m 7,5 km/h (2 Bft) SW 217 0 min 0,000 mm 0,0 UV-I 0 W/m 6,2 C 7,9 C 11,3 km/h (2 Bft) 6,25 %
08.10.2017 00:04 8,7 C 11,7 C 84 % 1014,8 hPa 0,0 l/m 6,7 km/h (2 Bft) W 259 0 min 0,000 mm 0,0 UV-I 0 W/m 6,2 C 8,5 C 11,3 km/h (2 Bft) 86,36 %
08.10.2017 00:06 8,7 C 11,7 C 84 % 1014,8 hPa 0,0 l/m 8,9 km/h (2 Bft) W-SW 240 0 min 0,000 mm 0,0 UV-I 0 W/m 6,2 C 6,9 C 14,5 km/h (3 Bft) 98,00 %
08.10.2017 00:08 8,7 C 11,7 C 84 % 1014,8 hPa 0,0 l/m 9,7 km/h (2 Bft) SW 232 0 min 0,000 mm 0,0 UV-I 0 W/m 6,2 C 6,3 C 14,5 km/h (3 Bft) 96,00 %
08.10.2017 00:10 8,7 C 11,7 C 84 % 1014,8 hPa 0,0 l/m 8,3 km/h (2 Bft) SW 215 0 min 0,000 mm 0,0 UV-I 0 W/m 6,2 C 7,3 C 14,5 km/h (3 Bft) 95,12 %
08.10.2017 00:12 8,7 C 11,7 C 84 % 1014,8 hPa 0,0 l/m 9,0 km/h (2 Bft) W-SW 241 0 min 0,000 mm 0,0 UV-I 0 W/m 6,2 C 6,8 C 12,9 km/h (3 Bft) 95,74 %
08.10.2017 00:14 8,7 C 11,7 C 84 % 1014,8 hPa 0,0 l/m 8,8 km/h (2 Bft) W-SW 252 0 min 0,000 mm 0,0 UV-I 0 W/m 6,2 C 6,9 C 12,9 km/h (3 Bft) 94,74 %
08.10.2017 00:16 8,8 C 11,7 C 83 % 1014,8 hPa 0,0 l/m 8,1 km/h (2 Bft) W-SW 248 0 min 0,000 mm 0,0 UV-I 0 W/m 6,1 C 7,5 C 12,9 km/h (3 Bft) 96,23 %
08.10.2017 00:18 8,8 C 11,7 C 83 % 1014,8 hPa 0,0 l/m 8,7 km/h (2 Bft) W-SW 237 0 min 0,000 mm 0,0 UV-I 0 W/m 6,1 C 7,1 C 16,1 km/h (3 Bft) 96,23 %
08.10.2017 00:20 8,8 C 11,7 C 83 % 1014,8 hPa 0,0 l/m 10,1 km/h (2 Bft) SW 236 0 min 0,000 mm 0,0 UV-I 0 W/m 6,1 C 6,2 C 16,1 km/h (3 Bft) 93,18 %
08.10.2017 00:22 8,9 C 11,7 C 83 % 1014,8 hPa 0,0 l/m 9,0 km/h (2 Bft) SW 226 0 min 0,000 mm 0,0 UV-I 0 W/m 6,2 C 7,0 C 14,5 km/h (3 Bft) 97,56 %
08.10.2017 00:24 8,9 C 11,7 C 82 % 1014,8 hPa 0,0 l/m 13,1 km/h (3 Bft) W-SW 244 0 min 0,000 mm 0,0 UV-I 0 W/m 6,0 C 4,7 C 19,3 km/h (3 Bft) 94,34 %
08.10.2017 00:26 9,1 C 11,7 C 82 % 1014,7 hPa 0,0 l/m 12,4 km/h (3 Bft) W-SW 238 0 min 0,000 mm 0,0 UV-I 0 W/m 6,2 C 5,3 C 17,7 km/h (3 Bft) 95,12 %
08.10.2017 00:28 9,1 C 11,7 C 82 % 1014,7 hPa 0,0 l/m 11,8 km/h (2 Bft) SW 219 0 min 0,000 mm 0,0 UV-I 0 W/m 6,2 C 5,6 C 17,7 km/h (3 Bft) 92,45 %
08.10.2017 00:30 9,2 C 11,7 C 81 % 1014,6 hPa 0,0 l/m 10,0 km/h (2 Bft) W-SW 240 0 min 0,000 mm 0,0 UV-I 0 W/m 6,1 C 6,7 C 16,1 km/h (3 Bft) 95,74 %
08.10.2017 00:32 9,2 C 11,7 C 81 % 1014,6 hPa 0,0 l/m 11,1 km/h (2 Bft) W-SW 244 0 min 0,000 mm 0,0 UV-I 0 W/m 6,1 C 6,1 C 16,1 km/h (3 Bft) 97,56 %
08.10.2017 00:34 9,3 C 11,7 C 81 % 1014,7 hPa 0,0 l/m 10,0 km/h (2 Bft) S-SW 211 0 min 0,000 mm 0,0 UV-I 0 W/m 6,2 C 6,8 C 17,7 km/h (3 Bft) 98,21 %
08.10.2017 00:36 9,3 C 11,7 C 80 % 1014,6 hPa 0,0 l/m 10,8 km/h (2 Bft) W-SW 238 0 min 0,000 mm 0,0 UV-I 0 W/m 6,0 C 6,4 C 16,1 km/h (3 Bft) 97,37 %
08.10.2017 00:38 9,3 C 11,7 C 81 % 1014,6 hPa 0,0 l/m 9,9 km/h (2 Bft) SW 227 0 min 0,000 mm 0,0 UV-I 0 W/m 6,2 C 6,9 C 16,1 km/h (3 Bft) 98,21 %
08.10.2017 00:40 9,3 C 11,7 C 80 % 1014,6 hPa 0,0 l/m 9,4 km/h (2 Bft) SW 231 0 min 0,000 mm 0,0 UV-I 0 W/m 6,0 C 7,2 C 16,1 km/h (3 Bft) 97,44 %
08.10.2017 00:42 9,3 C 11,7 C 81 % 1014,6 hPa 0,0 l/m 10,7 km/h (2 Bft) SW 236 0 min 0,000 mm 0,0 UV-I 0 W/m 6,2 C 6,4 C 14,5 km/h (3 Bft) 96,15 %
08.10.2017 00:44 9,3 C 11,7 C 81 % 1014,6 hPa 0,0 l/m 9,7 km/h (2 Bft) W-SW 242 0 min 0,000 mm 0,0 UV-I 0 W/m 6,2 C 7,0 C 14,5 km/h (3 Bft) 96,30 %
08.10.2017 00:46 9,3 C 11,7 C 80 % 1014,7 hPa 0,0 l/m 8,7 km/h (2 Bft) S-SW 202 0 min 0,000 mm 0,0 UV-I 0 W/m 6,0 C 7,6 C 17,7 km/h (3 Bft) 98,31 %
08.10.2017 00:48 9,3 C 11,7 C 80 % 1014,7 hPa 0,0 l/m 11,1 km/h (2 Bft) SW 223 0 min 0,000 mm 0,0 UV-I 0 W/m 6,0 C 6,2 C 16,1 km/h (3 Bft) 96,23 %
08.10.2017 00:50 9,4 C 11,7 C 80 % 1014,6 hPa 0,0 l/m 11,3 km/h (2 Bft) W 259 0 min 0,000 mm 0,0 UV-I 0 W/m 6,1 C 6,2 C 14,5 km/h (3 Bft) 100,00 %
08.10.2017 00:52 9,4 C 11,7 C 80 % 1014,6 hPa 0,0 l/m 10,8 km/h (2 Bft) SW 224 0 min 0,000 mm 0,0 UV-I 0 W/m 6,1 C 6,5 C 14,5 km/h (3 Bft) 96,00 %
08.10.2017 00:54 9,4 C 11,7 C 80 % 1014,7 hPa 0,0 l/m 10,6 km/h (2 Bft) SW 236 0 min 0,000 mm 0,0 UV-I 0 W/m 6,1 C 6,6 C 16,1 km/h (3 Bft) 97,73 %
08.10.2017 00:56 9,4 C 11,7 C 80 % 1014,6 hPa 0,0 l/m 11,1 km/h (2 Bft) S-SW 205 0 min 0,000 mm 0,0 UV-I 0 W/m 6,1 C 6,3 C 14,5 km/h (3 Bft) 98,00 %
08.10.2017 00:58 9,4 C 11,7 C 80 % 1014,7 hPa 0,0 l/m 11,3 km/h (2 Bft) SW 235 0 min 0,000 mm 0,0 UV-I 0 W/m 6,1 C 6,2 C 14,5 km/h (3 Bft) 98,11 %
08.10.2017 01:00 9,4 C 11,7 C 80 % 1014,6 hPa 0,0 l/m 11,1 km/h (2 Bft) S-SW 199 0 min 0,000 mm 0,0 UV-I 0 W/m 6,1 C 6,3 C 16,1 km/h (3 Bft) 94,74 %
08.10.2017 01:02 9,4 C 11,7 C 80 % 1014,7 hPa 0,0 l/m 13,3 km/h (3 Bft) SW 218 0 min 0,025 mm 0,0 UV-I 0 W/m 6,1 C 5,2 C 17,7 km/h (3 Bft) 98,00 %
08.10.2017 01:04 9,4 C 11,7 C 80 % 1014,6 hPa 0,0 l/m 10,8 km/h (2 Bft) SW 218 0 min 0,000 mm 0,0 UV-I 0 W/m 6,1 C 6,5 C 16,1 km/h (3 Bft) 97,56 %
08.10.2017 01:06 9,4 C 11,7 C 80 % 1014,6 hPa 0,0 l/m 7,4 km/h (2 Bft) W-SW 252 0 min 0,000 mm 0,0 UV-I 0 W/m 6,1 C 8,7 C 14,5 km/h (3 Bft) 96,43 %
08.10.2017 01:08 9,4 C 11,7 C 80 % 1014,6 hPa 0,0 l/m 8,1 km/h (2 Bft) SW 236 0 min 0,000 mm 0,0 UV-I 0 W/m 6,1 C 8,2 C 11,3 km/h (2 Bft) 96,00 %
08.10.2017 01:10 9,3 C 11,7 C 81 % 1014,5 hPa 0,0 l/m 9,4 km/h (2 Bft) W-SW 246 0 min 0,000 mm 0,0 UV-I 0 W/m 6,2 C 7,2 C 12,9 km/h (3 Bft) 100,00 %
08.10.2017 01:12 9,3 C 11,7 C 81 % 1014,5 hPa 0,0 l/m 11,0 km/h (2 Bft) SW 236 0 min 0,000 mm 0,0 UV-I 0 W/m 6,2 C 6,2 C 16,1 km/h (3 Bft) 94,00 %
08.10.2017 01:14 9,3 C 11,7 C 81 % 1014,5 hPa 0,0 l/m 13,2 km/h (3 Bft) SW 229 0 min 0,000 mm 0,0 UV-I 0 W/m 6,2 C 5,1 C 17,7 km/h (3 Bft) 98,00 %
08.10.2017 01:16 9,3 C 11,7 C 81 % 1014,4 hPa 0,0 l/m 11,9 km/h (2 Bft) SW 229 0 min 0,000 mm 0,0 UV-I 0 W/m 6,2 C 5,8 C 16,1 km/h (3 Bft) 97,37 %
08.10.2017 01:18 9,4 C 11,7 C 81 % 1014,4 hPa 0,0 l/m 14,2 km/h (3 Bft) W-SW 254 0 min 0,000 mm 0,0 UV-I 0 W/m 6,3 C 4,8 C 20,9 km/h (4 Bft) 100,00 %
08.10.2017 01:20 9,4 C 11,7 C 80 % 1014,4 hPa 0,0 l/m 15,5 km/h (3 Bft) W-SW 246 0 min 0,000 mm 0,0 UV-I 0 W/m 6,1 C 4,2 C 20,9 km/h (4 Bft) 100,00 %
08.10.2017 01:22 9,4 C 11,7 C 80 % 1014,4 hPa 0,0 l/m 14,2 km/h (3 Bft) SW 234 0 min 0,000 mm 0,0 UV-I 0 W/m 6,1 C 4,8 C 19,3 km/h (3 Bft) 97,62 %
08.10.2017 01:24 9,5 C 11,7 C 80 % 1014,5 hPa 0,0 l/m 12,2 km/h (2 Bft) SW 223 0 min 0,000 mm 0,0 UV-I 0 W/m 6,2 C 5,8 C 19,3 km/h (3 Bft) 96,23 %
08.10.2017 01:26 9,5 C 11,7 C 80 % 1014,4 hPa 0,0 l/m 12,4 km/h (3 Bft) SW 217 0 min 0,000 mm 0,0 UV-I 0 W/m 6,2 C 5,7 C 19,3 km/h (3 Bft) 98,00 %
08.10.2017 01:28 9,6 C 11,7 C 79 % 1014,4 hPa 0,0 l/m 12,5 km/h (3 Bft) SW 214 0 min 0,000 mm 0,0 UV-I 0 W/m 6,1 C 5,8 C 17,7 km/h (3 Bft) 97,87 %
08.10.2017 01:30 9,6 C 11,7 C 79 % 1014,4 hPa 0,0 l/m 12,7 km/h (3 Bft) SW 226 0 min 0,000 mm 0,0 UV-I 0 W/m 6,1 C 5,7 C 19,3 km/h (3 Bft) 100,00 %
08.10.2017 01:32 9,6 C 11,7 C 79 % 1014,4 hPa 0,0 l/m 16,9 km/h (3 Bft) W-SW 239 0 min 0,000 mm 0,0 UV-I 0 W/m 6,1 C 3,9 C 20,9 km/h (4 Bft) 100,00 %
08.10.2017 01:34 9,7 C 11,7 C 78 % 1014,4 hPa 0,0 l/m 15,6 km/h (3 Bft) SW 222 0 min 0,000 mm 0,0 UV-I 0 W/m 6,1 C 4,5 C 22,5 km/h (4 Bft) 100,00 %
08.10.2017 01:36 9,7 C 11,7 C 78 % 1014,4 hPa 0,0 l/m 15,9 km/h (3 Bft) SW 227 0 min 0,000 mm 0,0 UV-I 0 W/m 6,1 C 4,4 C 20,9 km/h (4 Bft) 100,00 %
08.10.2017 01:38 9,7 C 11,7 C 78 % 1014,4 hPa 0,0 l/m 14,6 km/h (3 Bft) SW 225 0 min 0,000 mm 0,0 UV-I 0 W/m 6,1 C 4,9 C 19,3 km/h (3 Bft) 98,11 %
08.10.2017 01:40 9,8 C 11,7 C 78 % 1014,4 hPa 0,0 l/m 16,6 km/h (3 Bft) W-SW 250 0 min 0,000 mm 0,0 UV-I 0 W/m 6,1 C 4,2 C 22,5 km/h (4 Bft) 100,00 %
08.10.2017 01:42 9,8 C 11,7 C 77 % 1014,4 hPa 0,0 l/m 18,1 km/h (3 Bft) W-SW 243 0 min 0,000 mm 0,0 UV-I 0 W/m 6,0 C 3,7 C 25,7 km/h (4 Bft) 100,00 %
08.10.2017 01:44 9,8 C 11,7 C 77 % 1014,4 hPa 0,0 l/m 15,5 km/h (3 Bft) SW 221 0 min 0,000 mm 0,0 UV-I 0 W/m 6,0 C 4,7 C 24,1 km/h (4 Bft) 100,00 %
08.10.2017 01:46 9,9 C 11,7 C 76 % 1014,4 hPa 0,0 l/m 15,2 km/h (3 Bft) SW 232 0 min 0,000 mm 0,0 UV-I 0 W/m 5,9 C 4,9 C 20,9 km/h (4 Bft) 100,00 %
08.10.2017 01:48 9,9 C 11,7 C 76 % 1014,4 hPa 0,0 l/m 13,3 km/h (3 Bft) W-SW 248 0 min 0,000 mm 0,0 UV-I 0 W/m 5,9 C 5,8 C 20,9 km/h (4 Bft) 100,00 %
08.10.2017 01:50 9,9 C 11,7 C 76 % 1014,4 hPa 0,0 l/m 15,0 km/h (3 Bft) W-SW 239 0 min 0,000 mm 0,0 UV-I 0 W/m 5,9 C 5,0 C 22,5 km/h (4 Bft) 98,11 %
08.10.2017 01:52 9,9 C 11,7 C 76 % 1014,4 hPa 0,0 l/m 14,8 km/h (3 Bft) W-SW 239 0 min 0,000 mm 0,0 UV-I 0 W/m 5,9 C 5,1 C 20,9 km/h (4 Bft) 100,00 %
08.10.2017 01:54 10,0 C 11,7 C 75 % 1014,4 hPa 0,0 l/m 15,0 km/h (3 Bft) SW 233 0 min 0,000 mm 0,0 UV-I 0 W/m 5,8 C 5,1 C 22,5 km/h (4 Bft) 100,00 %
08.10.2017 01:56 9,9 C 11,7 C 75 % 1014,4 hPa 0,0 l/m 15,9 km/h (3 Bft) W-SW 246 0 min 0,000 mm 0,0 UV-I 0 W/m 5,7 C 4,6 C 22,5 km/h (4 Bft) 100,00 %
08.10.2017 01:58 10,0 C 11,7 C 75 % 1014,4 hPa 0,0 l/m 13,3 km/h (3 Bft) W-SW 252 0 min 0,000 mm 0,0 UV-I 0 W/m 5,8 C 5,9 C 17,7 km/h (3 Bft) 98,00 %
08.10.2017 02:00 10,0 C 11,7 C 75 % 1014,4 hPa 0,0 l/m 13,9 km/h (3 Bft) SW 232 0 min 0,026 mm 0,0 UV-I 0 W/m 5,8 C 5,6 C 22,5 km/h (4 Bft) 97,56 %
08.10.2017 02:02 10,0 C 11,7 C 75 % 1014,4 hPa 0,0 l/m 13,7 km/h (3 Bft) SW 232 0 min 0,000 mm 0,0 UV-I 0 W/m 5,8 C 5,7 C 17,7 km/h (3 Bft) 98,11 %
08.10.2017 02:04 10,0 C 11,7 C 75 % 1014,4 hPa 0,0 l/m 14,7 km/h (3 Bft) W-SW 256 0 min 0,000 mm 0,0 UV-I 0 W/m 5,8 C 5,3 C 19,3 km/h (3 Bft) 97,62 %
08.10.2017 02:06 10,0 C 11,7 C 74 % 1014,3 hPa 0,0 l/m 14,5 km/h (3 Bft) SW 232 0 min 0,000 mm 0,0 UV-I 0 W/m 5,6 C 5,3 C 24,1 km/h (4 Bft) 97,73 %
08.10.2017 02:08 10,1 C 11,7 C 74 % 1014,3 hPa 0,0 l/m 13,6 km/h (3 Bft) SW 233 0 min 0,000 mm 0,0 UV-I 0 W/m 5,7 C 5,9 C 20,9 km/h (4 Bft) 98,00 %
08.10.2017 02:10 10,1 C 11,7 C 74 % 1014,3 hPa 0,0 l/m 13,2 km/h (3 Bft) W-SW 244 0 min 0,000 mm 0,0 UV-I 0 W/m 5,7 C 6,0 C 17,7 km/h (3 Bft) 97,37 %
08.10.2017 02:12 10,1 C 11,7 C 73 % 1014,3 hPa 0,0 l/m 13,3 km/h (3 Bft) SW 221 0 min 0,000 mm 0,0 UV-I 0 W/m 5,5 C 6,0 C 22,5 km/h (4 Bft) 97,78 %
08.10.2017 02:14 10,1 C 11,7 C 73 % 1014,3 hPa 0,0 l/m 13,0 km/h (3 Bft) SW 219 0 min 0,000 mm 0,0 UV-I 0 W/m 5,5 C 6,1 C 20,9 km/h (4 Bft) 98,31 %
08.10.2017 02:16 10,1 C 11,7 C 73 % 1014,3 hPa 0,0 l/m 12,8 km/h (3 Bft) SW 221 0 min 0,000 mm 0,0 UV-I 0 W/m 5,5 C 6,2 C 19,3 km/h (3 Bft) 98,00 %
08.10.2017 02:18 10,1 C 11,7 C 73 % 1014,3 hPa 0,0 l/m 12,3 km/h (3 Bft) W-SW 252 0 min 0,000 mm 0,0 UV-I 0 W/m 5,5 C 6,5 C 16,1 km/h (3 Bft) 95,12 %
08.10.2017 02:20 10,1 C 11,7 C 72 % 1014,3 hPa 0,0 l/m 11,5 km/h (2 Bft) SW 234 0 min 0,000 mm 0,0 UV-I 0 W/m 5,3 C 6,9 C 17,7 km/h (3 Bft) 97,73 %
08.10.2017 02:22 10,1 C 11,7 C 72 % 1014,3 hPa 0,0 l/m 9,6 km/h (2 Bft) W-SW 237 0 min 0,000 mm 0,0 UV-I 0 W/m 5,3 C 7,9 C 12,9 km/h (3 Bft) 92,59 %
08.10.2017 02:24 10,1 C 11,7 C 72 % 1014,2 hPa 0,0 l/m 11,0 km/h (2 Bft) SW 230 0 min 0,000 mm 0,0 UV-I 0 W/m 5,3 C 7,1 C 17,7 km/h (3 Bft) 97,37 %
08.10.2017 02:26 10,2 C 11,7 C 72 % 1014,2 hPa 0,0 l/m 10,0 km/h (2 Bft) S-SW 205 0 min 0,000 mm 0,0 UV-I 0 W/m 5,4 C 7,8 C 17,7 km/h (3 Bft) 96,00 %
08.10.2017 02:28 10,2 C 11,7 C 72 % 1014,2 hPa 0,0 l/m 11,3 km/h (2 Bft) W-SW 247 0 min 0,000 mm 0,0 UV-I 0 W/m 5,4 C 7,1 C 14,5 km/h (3 Bft) 98,00 %
08.10.2017 02:30 10,2 C 11,7 C 72 % 1014,2 hPa 0,0 l/m 9,1 km/h (2 Bft) W-SW 246 0 min 0,000 mm 0,0 UV-I 0 W/m 5,4 C 8,4 C 14,5 km/h (3 Bft) 98,00 %
08.10.2017 02:32 10,2 C 11,7 C 72 % 1014,3 hPa 0,0 l/m 13,3 km/h (3 Bft) SW 227 0 min 0,000 mm 0,0 UV-I 0 W/m 5,4 C 6,1 C 19,3 km/h (3 Bft) 97,73 %
08.10.2017 02:34 10,2 C 11,7 C 71 % 1014,2 hPa 0,0 l/m 12,1 km/h (2 Bft) S-SW 206 0 min 0,000 mm 0,0 UV-I 0 W/m 5,2 C 6,7 C 19,3 km/h (3 Bft) 97,56 %
08.10.2017 02:36 10,2 C 11,7 C 71 % 1014,2 hPa 0,0 l/m 12,1 km/h (2 Bft) SW 221 0 min 0,000 mm 0,0 UV-I 0 W/m 5,2 C 6,7 C 24,1 km/h (4 Bft) 97,78 %
08.10.2017 02:38 10,3 C 11,7 C 71 % 1014,2 hPa 0,0 l/m 11,9 km/h (2 Bft) W-SW 242 0 min 0,000 mm 0,0 UV-I 0 W/m 5,3 C 6,9 C 17,7 km/h (3 Bft) 98,00 %
08.10.2017 02:40 10,3 C 11,7 C 70 % 1014,2 hPa 0,0 l/m 12,3 km/h (3 Bft) W-SW 244 0 min 0,000 mm 0,0 UV-I 0 W/m 5,1 C 6,7 C 19,3 km/h (3 Bft) 100,00 %
08.10.2017 02:42 10,3 C 11,7 C 70 % 1014,3 hPa 0,0 l/m 11,7 km/h (2 Bft) W-SW 246 0 min 0,000 mm 0,0 UV-I 0 W/m 5,1 C 7,0 C 16,1 km/h (3 Bft) 98,21 %
08.10.2017 02:44 10,4 C 11,7 C 70 % 1014,3 hPa 0,0 l/m 11,9 km/h (2 Bft) W 264 0 min 0,000 mm 0,0 UV-I 0 W/m 5,2 C 7,0 C 17,7 km/h (3 Bft) 100,00 %
08.10.2017 02:46 10,4 C 11,7 C 70 % 1014,3 hPa 0,0 l/m 11,3 km/h (2 Bft) W-SW 248 0 min 0,000 mm 0,0 UV-I 0 W/m 5,2 C 7,3 C 17,7 km/h (3 Bft) 100,00 %
08.10.2017 02:48 10,4 C 11,7 C 69 % 1014,3 hPa 0,0 l/m 12,8 km/h (3 Bft) W-SW 249 0 min 0,000 mm 0,0 UV-I 0 W/m 5,0 C 6,6 C 22,5 km/h (4 Bft) 100,00 %
08.10.2017 02:50 10,5 C 11,7 C 69 % 1014,3 hPa 0,0 l/m 12,7 km/h (3 Bft) W-SW 249 0 min 0,000 mm 0,0 UV-I 0 W/m 5,1 C 6,8 C 17,7 km/h (3 Bft) 100,00 %
08.10.2017 02:52 10,5 C 11,7 C 70 % 1014,3 hPa 0,0 l/m 12,4 km/h (3 Bft) W-SW 250 0 min 0,000 mm 0,0 UV-I 0 W/m 5,3 C 6,9 C 19,3 km/h (3 Bft) 97,87 %
08.10.2017 02:54 10,6 C 11,7 C 69 % 1014,3 hPa 0,0 l/m 14,1 km/h (3 Bft) W-SW 257 0 min 0,000 mm 0,0 UV-I 0 W/m 5,2 C 6,2 C 19,3 km/h (3 Bft) 100,00 %
08.10.2017 02:56 10,6 C 11,7 C 69 % 1014,3 hPa 0,0 l/m 12,2 km/h (2 Bft) W-SW 249 0 min 0,000 mm 0,0 UV-I 0 W/m 5,2 C 7,1 C 17,7 km/h (3 Bft) 100,00 %
08.10.2017 02:58 10,6 C 11,7 C 69 % 1014,3 hPa 0,0 l/m 11,1 km/h (2 Bft) W-SW 246 0 min 0,000 mm 0,0 UV-I 0 W/m 5,2 C 7,7 C 17,7 km/h (3 Bft) 100,00 %
08.10.2017 03:00 10,7 C 11,7 C 69 % 1014,3 hPa 0,0 l/m 14,3 km/h (3 Bft) W 277 0 min 0,000 mm 0,0 UV-I 0 W/m 5,2 C 6,3 C 19,3 km/h (3 Bft) 95,12 %
08.10.2017 03:02 10,7 C 11,7 C 69 % 1014,3 hPa 0,0 l/m 11,2 km/h (2 Bft) SW 236 0 min 0,051 mm 0,0 UV-I 0 W/m 5,2 C 7,7 C 20,9 km/h (4 Bft) 96,23 %
08.10.2017 03:04 10,7 C 11,7 C 69 % 1014,3 hPa 0,0 l/m 14,6 km/h (3 Bft) W-SW 250 0 min 0,000 mm 0,0 UV-I 0 W/m 5,2 C 6,1 C 22,5 km/h (4 Bft) 94,29 %
08.10.2017 03:06 10,7 C 11,7 C 69 % 1014,4 hPa 0,0 l/m 12,8 km/h (3 Bft) W-NW 290 0 min 0,000 mm 0,0 UV-I 0 W/m 5,2 C 6,9 C 22,5 km/h (4 Bft) 100,00 %
08.10.2017 03:08 10,8 C 11,7 C 69 % 1014,4 hPa 0,0 l/m 11,7 km/h (2 Bft) W-SW 258 0 min 0,000 mm 0,0 UV-I 0 W/m 5,3 C 7,6 C 20,9 km/h (4 Bft) 100,00 %
08.10.2017 03:10 10,8 C 11,7 C 68 % 1014,3 hPa 0,0 l/m 9,5 km/h (2 Bft) W 269 0 min 0,000 mm 0,0 UV-I 0 W/m 5,1 C 8,8 C 20,9 km/h (4 Bft) 100,00 %
08.10.2017 03:12 10,9 C 11,7 C 68 % 1014,3 hPa 0,0 l/m 11,6 km/h (2 Bft) W 263 0 min 0,000 mm 0,0 UV-I 0 W/m 5,2 C 7,7 C 19,3 km/h (3 Bft) 100,00 %
08.10.2017 03:14 10,9 C 11,7 C 68 % 1014,3 hPa 0,0 l/m 9,2 km/h (2 Bft) W 264 0 min 0,000 mm 0,0 UV-I 0 W/m 5,2 C 9,0 C 14,5 km/h (3 Bft) 100,00 %
08.10.2017 03:16 10,9 C 11,7 C 68 % 1014,3 hPa 0,0 l/m 11,1 km/h (2 Bft) W 261 0 min 0,000 mm 0,0 UV-I 0 W/m 5,2 C 8,0 C 14,5 km/h (3 Bft) 100,00 %
08.10.2017 03:18 10,9 C 11,7 C 68 % 1014,3 hPa 0,0 l/m 12,2 km/h (2 Bft) W-SW 250 0 min 0,000 mm 0,0 UV-I 0 W/m 5,2 C 7,5 C 17,7 km/h (3 Bft) 100,00 %
08.10.2017 03:20 11,0 C 11,7 C 68 % 1014,4 hPa 0,0 l/m 10,1 km/h (2 Bft) SW 220 0 min 0,000 mm 0,0 UV-I 0 W/m 5,3 C 8,6 C 14,5 km/h (3 Bft) 100,00 %
08.10.2017 03:22 11,0 C 11,7 C 68 % 1014,4 hPa 0,0 l/m 16,3 km/h (3 Bft) W 281 0 min 0,000 mm 0,0 UV-I 0 W/m 5,3 C 5,8 C 25,7 km/h (4 Bft) 98,00 %
08.10.2017 03:24 11,1 C 11,7 C 67 % 1014,4 hPa 0,0 l/m 20,4 km/h (4 Bft) W 259 0 min 0,000 mm 0,0 UV-I 0 W/m 5,2 C 4,6 C 41,8 km/h (6 Bft) 100,00 %
08.10.2017 03:26 11,2 C 11,7 C 67 % 1014,4 hPa 0,0 l/m 19,6 km/h (3 Bft) W-SW 257 0 min 0,000 mm 0,0 UV-I 0 W/m 5,3 C 5,0 C 35,4 km/h (5 Bft) 100,00 %
08.10.2017 03:28 11,2 C 11,7 C 67 % 1014,4 hPa 0,0 l/m 13,9 km/h (3 Bft) W-SW 245 0 min 0,000 mm 0,0 UV-I 0 W/m 5,3 C 7,0 C 22,5 km/h (4 Bft) 98,00 %
08.10.2017 03:30 11,2 C 11,7 C 67 % 1014,4 hPa 0,0 l/m 16,2 km/h (3 Bft) W 263 0 min 0,000 mm 0,0 UV-I 0 W/m 5,3 C 6,1 C 24,1 km/h (4 Bft) 100,00 %
08.10.2017 03:32 11,2 C 11,7 C 67 % 1014,4 hPa 0,0 l/m 15,9 km/h (3 Bft) W 261 0 min 0,000 mm 0,0 UV-I 0 W/m 5,3 C 6,2 C 24,1 km/h (4 Bft) 100,00 %
08.10.2017 03:34 11,2 C 11,7 C 68 % 1014,4 hPa 0,0 l/m 13,9 km/h (3 Bft) W-NW 283 0 min 0,000 mm 0,0 UV-I 0 W/m 5,5 C 7,0 C 22,5 km/h (4 Bft) 98,00 %
08.10.2017 03:36 11,1 C 11,7 C 67 % 1014,5 hPa 0,0 l/m 15,7 km/h (3 Bft) W-SW 244 0 min 0,000 mm 0,0 UV-I 0 W/m 5,2 C 6,2 C 22,5 km/h (4 Bft) 100,00 %
08.10.2017 03:38 11,1 C 11,7 C 67 % 1014,4 hPa 0,0 l/m 17,3 km/h (3 Bft) W-SW 239 0 min 0,000 mm 0,0 UV-I 0 W/m 5,2 C 5,6 C 29,0 km/h (5 Bft) 100,00 %
08.10.2017 03:40 11,1 C 11,7 C 68 % 1014,4 hPa 0,0 l/m 14,9 km/h (3 Bft) W-SW 258 0 min 0,000 mm 0,0 UV-I 0 W/m 5,4 C 6,5 C 24,1 km/h (4 Bft) 100,00 %
08.10.2017 03:42 11,1 C 11,7 C 68 % 1014,4 hPa 0,0 l/m 14,3 km/h (3 Bft) W-SW 240 0 min 0,000 mm 0,0 UV-I 0 W/m 5,4 C 6,8 C 24,1 km/h (4 Bft) 100,00 %
08.10.2017 03:44 11,1 C 11,7 C 68 % 1014,5 hPa 0,0 l/m 14,1 km/h (3 Bft) W-SW 253 0 min 0,000 mm 0,0 UV-I 0 W/m 5,4 C 6,8 C 20,9 km/h (4 Bft) 97,73 %
08.10.2017 03:46 11,1 C 11,7 C 69 % 1014,5 hPa 0,0 l/m 17,1 km/h (3 Bft) SW 221 0 min 0,000 mm 0,0 UV-I 0 W/m 5,6 C 5,7 C 22,5 km/h (4 Bft) 100,00 %
08.10.2017 03:48 11,1 C 11,7 C 69 % 1014,5 hPa 0,0 l/m 12,1 km/h (2 Bft) W-NW 294 0 min 0,000 mm 0,0 UV-I 0 W/m 5,6 C 7,7 C 16,1 km/h (3 Bft) 100,00 %
08.10.2017 03:50 10,9 C 11,7 C 69 % 1014,5 hPa 0,0 l/m 10,7 km/h (2 Bft) W 259 0 min 0,000 mm 0,0 UV-I 0 W/m 5,4 C 8,2 C 14,5 km/h (3 Bft) 100,00 %
08.10.2017 03:52 10,9 C 11,7 C 70 % 1014,5 hPa 0,0 l/m 16,8 km/h (3 Bft) W-NW 297 0 min 0,000 mm 0,0 UV-I 0 W/m 5,6 C 5,5 C 24,1 km/h (4 Bft) 100,00 %
08.10.2017 03:54 10,8 C 11,7 C 70 % 1014,6 hPa 0,0 l/m 14,1 km/h (3 Bft) W-SW 238 0 min 0,000 mm 0,0 UV-I 0 W/m 5,6 C 6,5 C 19,3 km/h (3 Bft) 100,00 %
08.10.2017 03:56 10,8 C 11,7 C 70 % 1014,6 hPa 0,0 l/m 14,5 km/h (3 Bft) W-SW 246 0 min 0,000 mm 0,0 UV-I 0 W/m 5,6 C 6,3 C 24,1 km/h (4 Bft) 100,00 %
08.10.2017 03:58 10,8 C 11,7 C 71 % 1014,6 hPa 0,0 l/m 15,2 km/h (3 Bft) W-NW 282 0 min 0,000 mm 0,0 UV-I 0 W/m 5,8 C 6,0 C 19,3 km/h (3 Bft) 100,00 %
08.10.2017 04:00 10,7 C 11,7 C 72 % 1014,6 hPa 0,0 l/m 12,4 km/h (3 Bft) W-SW 255 0 min 0,050 mm 0,0 UV-I 0 W/m 5,9 C 7,1 C 17,7 km/h (3 Bft) 100,00 %
08.10.2017 04:02 10,7 C 11,7 C 72 % 1014,6 hPa 0,0 l/m 9,6 km/h (2 Bft) SW 220 0 min 0,000 mm 0,0 UV-I 0 W/m 5,9 C 8,6 C 17,7 km/h (3 Bft) 100,00 %
08.10.2017 04:04 10,6 C 11,7 C 73 % 1014,5 hPa 0,0 l/m 13,6 km/h (3 Bft) W-SW 241 0 min 0,000 mm 0,0 UV-I 0 W/m 6,0 C 6,5 C 22,5 km/h (4 Bft) 100,00 %
08.10.2017 04:06 10,5 C 11,7 C 74 % 1014,6 hPa 0,0 l/m 19,6 km/h (3 Bft) W-SW 251 0 min 0,000 mm 0,0 UV-I 0 W/m 6,1 C 4,1 C 27,4 km/h (4 Bft) 98,00 %
08.10.2017 04:08 10,4 C 11,7 C 74 % 1014,6 hPa 0,0 l/m 14,1 km/h (3 Bft) W-NW 296 0 min 0,000 mm 0,0 UV-I 0 W/m 6,0 C 6,0 C 27,4 km/h (4 Bft) 100,00 %
08.10.2017 04:10 10,3 C 11,7 C 75 % 1014,5 hPa 0,0 l/m 10,3 km/h (2 Bft) W-SW 254 0 min 0,000 mm 0,0 UV-I 0 W/m 6,1 C 7,8 C 17,7 km/h (3 Bft) 96,23 %
08.10.2017 04:12 10,3 C 11,7 C 75 % 1014,5 hPa 0,0 l/m 12,5 km/h (3 Bft) W-NW 298 0 min 0,000 mm 0,0 UV-I 0 W/m 6,1 C 6,6 C 17,7 km/h (3 Bft) 98,11 %
08.10.2017 04:14 10,2 C 11,7 C 76 % 1014,4 hPa 0,0 l/m 6,9 km/h (2 Bft) W-SW 238 0 min 0,000 mm 0,0 UV-I 0 W/m 6,2 C 9,8 C 11,3 km/h (2 Bft) 97,37 %
08.10.2017 04:16 10,2 C 11,7 C 76 % 1014,3 hPa 0,0 l/m 6,7 km/h (2 Bft) W-SW 254 0 min 0,000 mm 0,0 UV-I 0 W/m 6,2 C 10,0 C 12,9 km/h (3 Bft) 96,23 %
08.10.2017 04:18 10,1 C 11,7 C 76 % 1014,2 hPa 0,0 l/m 8,0 km/h (2 Bft) W 267 0 min 0,000 mm 0,0 UV-I 0 W/m 6,1 C 9,0 C 12,9 km/h (3 Bft) 95,45 %
08.10.2017 04:20 10,1 C 11,7 C 77 % 1014,3 hPa 0,0 l/m 10,9 km/h (2 Bft) SW 235 0 min 0,000 mm 0,0 UV-I 0 W/m 6,3 C 7,2 C 17,7 km/h (3 Bft) 95,74 %
08.10.2017 04:22 10,0 C 11,7 C 77 % 1014,3 hPa 0,0 l/m 11,3 km/h (2 Bft) W-SW 238 0 min 0,000 mm 0,0 UV-I 0 W/m 6,2 C 6,9 C 19,3 km/h (3 Bft) 93,62 %
08.10.2017 04:24 9,9 C 11,7 C 77 % 1014,3 hPa 0,0 l/m 10,6 km/h (2 Bft) W 264 0 min 0,000 mm 0,0 UV-I 0 W/m 6,1 C 7,1 C 14,5 km/h (3 Bft) 94,00 %
08.10.2017 04:26 9,9 C 11,7 C 78 % 1014,2 hPa 0,0 l/m 9,2 km/h (2 Bft) W 259 0 min 0,000 mm 0,0 UV-I 0 W/m 6,2 C 8,0 C 16,1 km/h (3 Bft) 96,00 %
08.10.2017 04:28 9,9 C 11,7 C 78 % 1014,2 hPa 0,0 l/m 6,9 km/h (2 Bft) W-SW 238 0 min 0,000 mm 0,0 UV-I 0 W/m 6,2 C 9,5 C 11,3 km/h (2 Bft) 94,87 %
08.10.2017 04:30 9,9 C 11,7 C 78 % 1014,2 hPa 0,0 l/m 9,1 km/h (2 Bft) W-SW 247 0 min 0,000 mm 0,0 UV-I 0 W/m 6,2 C 8,0 C 14,5 km/h (3 Bft) 96,00 %
08.10.2017 04:32 9,8 C 11,7 C 78 % 1014,3 hPa 0,0 l/m 10,0 km/h (2 Bft) W 279 0 min 0,000 mm 0,0 UV-I 0 W/m 6,1 C 7,4 C 14,5 km/h (3 Bft) 95,45 %
08.10.2017 04:34 9,8 C 11,7 C 78 % 1014,2 hPa 0,0 l/m 8,1 km/h (2 Bft) W-SW 250 0 min 0,000 mm 0,0 UV-I 0 W/m 6,1 C 8,6 C 12,9 km/h (3 Bft) 95,74 %
08.10.2017 04:36 9,8 C 11,7 C 79 % 1014,4 hPa 0,0 l/m 8,3 km/h (2 Bft) W-SW 248 0 min 0,000 mm 0,0 UV-I 0 W/m 6,3 C 8,4 C 12,9 km/h (3 Bft) 96,00 %
08.10.2017 04:38 9,8 C 11,7 C 79 % 1014,4 hPa 0,0 l/m 8,1 km/h (2 Bft) W-SW 257 0 min 0,000 mm 0,0 UV-I 0 W/m 6,3 C 8,6 C 11,3 km/h (2 Bft) 95,74 %
08.10.2017 04:40 9,8 C 11,7 C 79 % 1014,4 hPa 0,0 l/m 12,0 km/h (2 Bft) W-SW 250 0 min 0,000 mm 0,0 UV-I 0 W/m 6,3 C 6,3 C 16,1 km/h (3 Bft) 95,24 %
08.10.2017 04:42 9,7 C 11,7 C 79 % 1014,5 hPa 0,0 l/m 11,3 km/h (2 Bft) W-SW 242 0 min 0,000 mm 0,0 UV-I 0 W/m 6,2 C 6,5 C 19,3 km/h (3 Bft) 95,12 %
08.10.2017 04:44 9,7 C 11,7 C 79 % 1014,5 hPa 0,0 l/m 10,5 km/h (2 Bft) W 278 0 min 0,000 mm 0,0 UV-I 0 W/m 6,2 C 7,0 C 16,1 km/h (3 Bft) 98,11 %
08.10.2017 04:46 9,7 C 11,7 C 80 % 1014,6 hPa 0,0 l/m 7,4 km/h (2 Bft) W-SW 249 0 min 0,000 mm 0,0 UV-I 0 W/m 6,4 C 9,0 C 14,5 km/h (3 Bft) 97,56 %
08.10.2017 04:48 9,7 C 11,7 C 80 % 1014,6 hPa 0,0 l/m 11,1 km/h (2 Bft) W-NW 284 0 min 0,000 mm 0,0 UV-I 0 W/m 6,4 C 6,6 C 19,3 km/h (3 Bft) 96,23 %
08.10.2017 04:50 9,6 C 11,7 C 80 % 1014,6 hPa 0,0 l/m 7,9 km/h (2 Bft) W 263 0 min 0,000 mm 0,0 UV-I 0 W/m 6,3 C 8,5 C 14,5 km/h (3 Bft) 94,00 %
08.10.2017 04:52 9,6 C 11,7 C 81 % 1014,6 hPa 0,0 l/m 6,9 km/h (2 Bft) W-SW 251 0 min 0,000 mm 0,0 UV-I 0 W/m 6,5 C 9,2 C 11,3 km/h (2 Bft) 96,00 %
08.10.2017 04:54 9,6 C 11,7 C 81 % 1014,5 hPa 0,0 l/m 6,0 km/h (2 Bft) W-SW 246 0 min 0,000 mm 0,0 UV-I 0 W/m 6,5 C 9,6 C 9,7 km/h (2 Bft) 97,56 %
08.10.2017 04:56 9,5 C 11,7 C 81 % 1014,4 hPa 0,0 l/m 7,6 km/h (2 Bft) W-SW 253 0 min 0,000 mm 0,0 UV-I 0 W/m 6,4 C 8,6 C 12,9 km/h (3 Bft) 97,73 %
08.10.2017 04:58 9,4 C 11,7 C 82 % 1014,5 hPa 0,0 l/m 6,8 km/h (2 Bft) W 268 0 min 0,000 mm 0,0 UV-I 0 W/m 6,5 C 9,1 C 12,9 km/h (3 Bft) 98,11 %
08.10.2017 05:00 9,4 C 11,7 C 82 % 1014,5 hPa 0,0 l/m 8,2 km/h (2 Bft) W 267 0 min 0,026 mm 0,0 UV-I 0 W/m 6,5 C 8,1 C 14,5 km/h (3 Bft) 96,00 %
08.10.2017 05:02 9,3 C 11,7 C 83 % 1014,3 hPa 0,0 l/m 6,2 km/h (2 Bft) W 273 0 min 0,000 mm 0,0 UV-I 0 W/m 6,6 C 9,3 C 9,7 km/h (2 Bft) 97,56 %
08.10.2017 05:04 9,3 C 11,7 C 83 % 1014,4 hPa 0,0 l/m 5,3 km/h (1 Bft) W-SW 244 0 min 0,000 mm 0,0 UV-I 0 W/m 6,6 C 9,3 C 11,3 km/h (2 Bft) 97,87 %
08.10.2017 05:06 9,3 C 11,7 C 83 % 1014,4 hPa 0,0 l/m 6,0 km/h (2 Bft) W 275 0 min 0,000 mm 0,0 UV-I 0 W/m 6,6 C 9,3 C 9,7 km/h (2 Bft) 96,00 %
08.10.2017 05:08 9,2 C 11,7 C 83 % 1014,5 hPa 0,0 l/m 7,2 km/h (2 Bft) W-SW 246 0 min 0,000 mm 0,0 UV-I 0 W/m 6,5 C 8,6 C 11,3 km/h (2 Bft) 98,00 %
08.10.2017 05:10 9,2 C 11,7 C 84 % 1014,5 hPa 0,0 l/m 6,8 km/h (2 Bft) W-SW 245 0 min 0,000 mm 0,0 UV-I 0 W/m 6,6 C 8,9 C 12,9 km/h (3 Bft) 97,37 %
08.10.2017 05:12 9,2 C 11,7 C 84 % 1014,5 hPa 0,0 l/m 5,8 km/h (2 Bft) W 267 0 min 0,000 mm 0,0 UV-I 0 W/m 6,6 C 9,2 C 11,3 km/h (2 Bft) 97,62 %
08.10.2017 05:14 9,2 C 11,7 C 84 % 1014,4 hPa 0,0 l/m 9,0 km/h (2 Bft) W 268 0 min 0,000 mm 0,0 UV-I 0 W/m 6,6 C 7,3 C 14,5 km/h (3 Bft) 98,11 %
08.10.2017 05:16 9,2 C 11,7 C 84 % 1014,4 hPa 0,0 l/m 5,8 km/h (2 Bft) W-SW 244 0 min 0,000 mm 0,0 UV-I 0 W/m 6,6 C 9,2 C 11,3 km/h (2 Bft) 96,15 %
08.10.2017 05:18 9,1 C 11,7 C 84 % 1014,4 hPa 0,0 l/m 5,7 km/h (1 Bft) W 266 0 min 0,000 mm 0,0 UV-I 0 W/m 6,5 C 9,1 C 9,7 km/h (2 Bft) 97,44 %
08.10.2017 05:20 9,1 C 11,7 C 85 % 1014,3 hPa 0,0 l/m 6,0 km/h (2 Bft) W 266 0 min 0,000 mm 0,0 UV-I 0 W/m 6,7 C 9,1 C 11,3 km/h (2 Bft) 98,11 %
08.10.2017 05:22 9,1 C 11,7 C 85 % 1014,3 hPa 0,0 l/m 7,4 km/h (2 Bft) W 268 0 min 0,000 mm 0,0 UV-I 0 W/m 6,7 C 8,3 C 16,1 km/h (3 Bft) 97,73 %
08.10.2017 05:24 9,1 C 11,7 C 85 % 1014,2 hPa 0,0 l/m 6,3 km/h (2 Bft) W-SW 239 0 min 0,000 mm 0,0 UV-I 0 W/m 6,7 C 9,1 C 9,7 km/h (2 Bft) 98,11 %
08.10.2017 05:26 9,0 C 11,7 C 85 % 1014,1 hPa 0,0 l/m 7,4 km/h (2 Bft) W 263 0 min 0,000 mm 0,0 UV-I 0 W/m 6,6 C 8,2 C 14,5 km/h (3 Bft) 100,00 %
08.10.2017 05:28 8,9 C 11,7 C 85 % 1014,0 hPa 0,0 l/m 7,4 km/h (2 Bft) W-SW 247 0 min 0,000 mm 0,0 UV-I 0 W/m 6,5 C 8,1 C 14,5 km/h (3 Bft) 98,11 %
08.10.2017 05:30 8,9 C 11,7 C 86 % 1014,1 hPa 0,0 l/m 5,3 km/h (1 Bft) SW 222 0 min 0,000 mm 0,0 UV-I 0 W/m 6,7 C 8,9 C 8,0 km/h (2 Bft) 97,37 %
08.10.2017 05:32 8,9 C 11,7 C 86 % 1014,1 hPa 0,0 l/m 7,8 km/h (2 Bft) SW 225 0 min 0,000 mm 0,0 UV-I 0 W/m 6,7 C 7,8 C 12,9 km/h (3 Bft) 100,00 %
08.10.2017 05:34 8,8 C 11,7 C 86 % 1014,1 hPa 0,0 l/m 9,2 km/h (2 Bft) SW 218 0 min 0,000 mm 0,0 UV-I 0 W/m 6,6 C 6,8 C 12,9 km/h (3 Bft) 100,00 %
08.10.2017 05:36 8,8 C 11,7 C 87 % 1014,1 hPa 0,0 l/m 8,1 km/h (2 Bft) SW 234 0 min 0,000 mm 0,0 UV-I 0 W/m 6,8 C 7,5 C 12,9 km/h (3 Bft) 100,00 %
08.10.2017 05:38 8,8 C 11,7 C 87 % 1014,1 hPa 0,0 l/m 9,3 km/h (2 Bft) W-SW 244 0 min 0,000 mm 0,0 UV-I 0 W/m 6,8 C 6,7 C 14,5 km/h (3 Bft) 97,14 %
08.10.2017 05:40 8,8 C 11,7 C 87 % 1014,2 hPa 0,0 l/m 8,5 km/h (2 Bft) W-SW 254 0 min 0,000 mm 0,0 UV-I 0 W/m 6,8 C 7,2 C 12,9 km/h (3 Bft) 98,11 %
08.10.2017 05:42 8,7 C 11,7 C 87 % 1014,2 hPa 0,0 l/m 11,4 km/h (2 Bft) W 265 0 min 0,000 mm 0,0 UV-I 0 W/m 6,7 C 5,3 C 16,1 km/h (3 Bft) 100,00 %
08.10.2017 05:44 8,7 C 11,7 C 87 % 1014,3 hPa 0,0 l/m 9,2 km/h (2 Bft) W-SW 256 0 min 0,000 mm 0,0 UV-I 0 W/m 6,7 C 6,7 C 17,7 km/h (3 Bft) 100,00 %
08.10.2017 05:46 8,7 C 11,7 C 87 % 1014,3 hPa 0,0 l/m 14,1 km/h (3 Bft) W 273 0 min 0,000 mm 0,0 UV-I 0 W/m 6,7 C 4,0 C 19,3 km/h (3 Bft) 100,00 %
08.10.2017 05:48 8,7 C 11,7 C 87 % 1014,3 hPa 0,0 l/m 11,3 km/h (2 Bft) W-SW 243 0 min 0,000 mm 0,0 UV-I 0 W/m 6,7 C 5,4 C 17,7 km/h (3 Bft) 97,87 %
08.10.2017 05:50 8,7 C 11,7 C 88 % 1014,2 hPa 0,0 l/m 8,1 km/h (2 Bft) W-SW 257 0 min 0,000 mm 0,0 UV-I 0 W/m 6,8 C 7,4 C 12,9 km/h (3 Bft) 100,00 %
08.10.2017 05:52 8,7 C 11,7 C 88 % 1014,3 hPa 0,0 l/m 10,2 km/h (2 Bft) W-SW 258 0 min 0,000 mm 0,0 UV-I 0 W/m 6,8 C 6,0 C 16,1 km/h (3 Bft) 100,00 %
08.10.2017 05:54 8,7 C 11,7 C 88 % 1014,3 hPa 0,0 l/m 15,8 km/h (3 Bft) W-SW 239 0 min 0,000 mm 0,0 UV-I 0 W/m 6,8 C 3,2 C 25,7 km/h (4 Bft) 100,00 %
08.10.2017 05:56 8,7 C 11,7 C 88 % 1014,3 hPa 0,0 l/m 11,9 km/h (2 Bft) W 267 0 min 0,000 mm 0,0 UV-I 0 W/m 6,8 C 5,1 C 19,3 km/h (3 Bft) 100,00 %
08.10.2017 05:58 8,7 C 11,7 C 87 % 1014,3 hPa 0,0 l/m 13,2 km/h (3 Bft) W-NW 284 0 min 0,000 mm 0,0 UV-I 0 W/m 6,7 C 4,4 C 17,7 km/h (3 Bft) 100,00 %
08.10.2017 06:00 8,7 C 11,7 C 88 % 1014,3 hPa 0,0 l/m 9,3 km/h (2 Bft) W 262 0 min 0,025 mm 0,0 UV-I 0 W/m 6,8 C 6,6 C 12,9 km/h (3 Bft) 98,18 %
08.10.2017 06:02 8,7 C 11,7 C 88 % 1014,3 hPa 0,0 l/m 14,2 km/h (3 Bft) W 263 0 min 0,000 mm 0,0 UV-I 0 W/m 6,8 C 3,9 C 19,3 km/h (3 Bft) 97,22 %
08.10.2017 06:04 8,7 C 11,7 C 88 % 1014,3 hPa 0,0 l/m 9,7 km/h (2 Bft) W 259 0 min 0,000 mm 0,0 UV-I 0 W/m 6,8 C 6,3 C 16,1 km/h (3 Bft) 100,00 %
08.10.2017 06:06 8,7 C 11,7 C 88 % 1014,3 hPa 0,0 l/m 10,4 km/h (2 Bft) W-SW 243 0 min 0,000 mm 0,0 UV-I 0 W/m 6,8 C 5,9 C 16,1 km/h (3 Bft) 100,00 %
08.10.2017 06:08 8,7 C 11,7 C 88 % 1014,3 hPa 0,0 l/m 12,9 km/h (3 Bft) W 269 0 min 0,000 mm 0,0 UV-I 0 W/m 6,8 C 4,6 C 16,1 km/h (3 Bft) 100,00 %
08.10.2017 06:10 8,7 C 11,7 C 88 % 1014,4 hPa 0,0 l/m 9,4 km/h (2 Bft) SW 232 0 min 0,000 mm 0,0 UV-I 0 W/m 6,8 C 6,5 C 14,5 km/h (3 Bft) 97,56 %
08.10.2017 06:12 8,7 C 11,7 C 88 % 1014,3 hPa 0,0 l/m 11,0 km/h (2 Bft) W-SW 252 0 min 0,000 mm 0,0 UV-I 0 W/m 6,8 C 5,6 C 16,1 km/h (3 Bft) 98,11 %
08.10.2017 06:14 8,7 C 11,7 C 88 % 1014,3 hPa 0,0 l/m 9,2 km/h (2 Bft) W-SW 252 0 min 0,000 mm 0,0 UV-I 0 W/m 6,8 C 6,7 C 14,5 km/h (3 Bft) 98,00 %
08.10.2017 06:16 8,7 C 11,7 C 88 % 1014,2 hPa 0,0 l/m 8,9 km/h (2 Bft) W-SW 256 0 min 0,000 mm 0,0 UV-I 0 W/m 6,8 C 6,9 C 12,9 km/h (3 Bft) 97,87 %
08.10.2017 06:18 8,7 C 11,7 C 88 % 1014,2 hPa 0,0 l/m 11,9 km/h (2 Bft) W 267 0 min 0,000 mm 0,0 UV-I 0 W/m 6,8 C 5,1 C 19,3 km/h (3 Bft) 95,74 %
08.10.2017 06:20 8,6 C 11,7 C 88 % 1014,2 hPa 0,0 l/m 13,0 km/h (3 Bft) W-SW 244 0 min 0,000 mm 0,0 UV-I 0 W/m 6,7 C 4,4 C 19,3 km/h (3 Bft) 97,37 %
08.10.2017 06:22 8,6 C 11,7 C 88 % 1014,1 hPa 0,0 l/m 13,2 km/h (3 Bft) W 266 0 min 0,000 mm 0,0 UV-I 0 W/m 6,7 C 4,3 C 17,7 km/h (3 Bft) 97,73 %
08.10.2017 06:24 8,6 C 11,7 C 88 % 1014,2 hPa 0,0 l/m 10,8 km/h (2 Bft) W 260 0 min 0,000 mm 0,0 UV-I 0 W/m 6,7 C 5,6 C 16,1 km/h (3 Bft) 96,61 %
08.10.2017 06:26 8,6 C 11,7 C 89 % 1014,2 hPa 0,0 l/m 8,6 km/h (2 Bft) W-SW 252 0 min 0,000 mm 0,0 UV-I 0 W/m 6,9 C 7,0 C 14,5 km/h (3 Bft) 97,37 %
08.10.2017 06:28 8,6 C 11,7 C 89 % 1014,2 hPa 0,0 l/m 6,5 km/h (2 Bft) W-SW 252 0 min 0,000 mm 0,0 UV-I 0 W/m 6,9 C 8,5 C 11,3 km/h (2 Bft) 96,00 %
08.10.2017 06:30 8,5 C 11,7 C 89 % 1014,2 hPa 0,0 l/m 7,6 km/h (2 Bft) W-SW 258 0 min 0,000 mm 0,0 UV-I 0 W/m 6,8 C 7,6 C 12,9 km/h (3 Bft) 98,11 %
08.10.2017 06:32 8,4 C 11,7 C 89 % 1014,2 hPa 0,0 l/m 6,7 km/h (2 Bft) W-SW 255 0 min 0,000 mm 0,0 UV-I 0 W/m 6,7 C 8,2 C 11,3 km/h (2 Bft) 97,22 %
08.10.2017 06:34 8,4 C 11,7 C 89 % 1014,2 hPa 0,0 l/m 8,4 km/h (2 Bft) W-SW 252 0 min 0,000 mm 0,0 UV-I 0 W/m 6,7 C 6,9 C 11,3 km/h (2 Bft) 98,18 %
08.10.2017 06:36 8,4 C 11,7 C 90 % 1014,3 hPa 0,0 l/m 7,3 km/h (2 Bft) W 261 0 min 0,000 mm 0,0 UV-I 0 W/m 6,9 C 7,7 C 14,5 km/h (3 Bft) 97,62 %
08.10.2017 06:38 8,4 C 11,7 C 90 % 1014,2 hPa 0,0 l/m 7,3 km/h (2 Bft) W 265 0 min 0,000 mm 0,0 UV-I 0 W/m 6,9 C 7,7 C 11,3 km/h (2 Bft) 98,00 %
08.10.2017 06:40 8,4 C 11,7 C 90 % 1014,2 hPa 0,0 l/m 7,8 km/h (2 Bft) W 269 0 min 0,000 mm 0,0 UV-I 0 W/m 6,9 C 7,3 C 14,5 km/h (3 Bft) 97,56 %
08.10.2017 06:42 8,4 C 11,7 C 90 % 1014,2 hPa 0,0 l/m 5,1 km/h (1 Bft) W-SW 254 0 min 0,000 mm 0,0 UV-I 0 W/m 6,9 C 8,4 C 11,3 km/h (2 Bft) 97,87 %
08.10.2017 06:44 8,4 C 11,7 C 90 % 1014,1 hPa 0,0 l/m 8,3 km/h (2 Bft) W-SW 252 0 min 0,000 mm 0,0 UV-I 0 W/m 6,9 C 7,0 C 12,9 km/h (3 Bft) 98,11 %
08.10.2017 06:46 8,3 C 11,7 C 90 % 1014,1 hPa 0,0 l/m 6,7 km/h (2 Bft) W-SW 256 0 min 0,000 mm 0,0 UV-I 0 W/m 6,8 C 8,1 C 11,3 km/h (2 Bft) 100,00 %
08.10.2017 06:48 8,3 C 11,7 C 90 % 1014,2 hPa 0,0 l/m 5,3 km/h (1 Bft) W-SW 254 0 min 0,000 mm 0,0 UV-I 0 W/m 6,8 C 8,3 C 9,7 km/h (2 Bft) 100,00 %
08.10.2017 06:50 8,3 C 11,7 C 91 % 1014,1 hPa 0,0 l/m 7,7 km/h (2 Bft) W 262 0 min 0,000 mm 0,0 UV-I 0 W/m 6,9 C 7,3 C 11,3 km/h (2 Bft) 100,00 %
08.10.2017 06:52 8,3 C 11,7 C 91 % 1014,1 hPa 0,0 l/m 6,5 km/h (2 Bft) W-SW 252 0 min 0,000 mm 0,0 UV-I 0 W/m 6,9 C 8,2 C 11,3 km/h (2 Bft) 100,00 %
08.10.2017 06:54 8,3 C 11,7 C 91 % 1014,1 hPa 0,0 l/m 7,8 km/h (2 Bft) W-SW 247 0 min 0,000 mm 0,0 UV-I 0 W/m 6,9 C 7,2 C 11,3 km/h (2 Bft) 100,00 %
08.10.2017 06:56 8,3 C 11,7 C 91 % 1014,0 hPa 0,0 l/m 7,7 km/h (2 Bft) W-SW 251 0 min 0,000 mm 0,0 UV-I 0 W/m 6,9 C 7,3 C 11,3 km/h (2 Bft) 100,00 %
08.10.2017 06:58 8,3 C 11,7 C 91 % 1014,0 hPa 0,0 l/m 6,2 km/h (2 Bft) W 261 0 min 0,000 mm 0,0 UV-I 0 W/m 6,9 C 8,3 C 9,7 km/h (2 Bft) 100,00 %
08.10.2017 07:00 8,3 C 11,1 C 91 % 1014,0 hPa 0,0 l/m 7,6 km/h (2 Bft) W-SW 246 0 min 0,000 mm 0,0 UV-I 0 W/m 6,9 C 7,4 C 11,3 km/h (2 Bft) 100,00 %
08.10.2017 07:02 8,3 C 11,7 C 91 % 1014,0 hPa 0,0 l/m 8,6 km/h (2 Bft) W 279 0 min 0,000 mm 0,0 UV-I 0 W/m 6,9 C 6,6 C 12,9 km/h (3 Bft) 100,00 %
08.10.2017 07:04 8,2 C 11,1 C 92 % 1014,0 hPa 0,0 l/m 6,8 km/h (2 Bft) W-SW 249 0 min 0,000 mm 0,0 UV-I 0 W/m 7,0 C 7,9 C 11,3 km/h (2 Bft) 100,00 %
08.10.2017 07:06 8,2 C 11,7 C 91 % 1014,0 hPa 0,0 l/m 5,8 km/h (2 Bft) W-SW 243 0 min 0,000 mm 0,0 UV-I 0 W/m 6,8 C 8,2 C 8,0 km/h (2 Bft) 100,00 %
08.10.2017 07:08 8,2 C 11,7 C 92 % 1014,1 hPa 0,0 l/m 8,7 km/h (2 Bft) W-SW 250 0 min 0,000 mm 0,0 UV-I 5 W/m 7,0 C 6,5 C 14,5 km/h (3 Bft) 100,00 %
08.10.2017 07:10 8,2 C 11,1 C 91 % 1014,1 hPa 0,0 l/m 9,0 km/h (2 Bft) W-SW 246 0 min 0,000 mm 0,0 UV-I 5 W/m 6,8 C 6,3 C 12,9 km/h (3 Bft) 100,00 %
08.10.2017 07:12 8,3 C 11,1 C 92 % 1014,1 hPa 0,0 l/m 7,5 km/h (2 Bft) W-SW 257 0 min 0,000 mm 0,0 UV-I 5 W/m 7,1 C 7,4 C 11,3 km/h (2 Bft) 100,00 %
08.10.2017 07:14 8,3 C 11,1 C 92 % 1014,1 hPa 0,0 l/m 7,7 km/h (2 Bft) SW 234 0 min 0,000 mm 0,0 UV-I 5 W/m 7,1 C 7,3 C 11,3 km/h (2 Bft) 100,00 %
08.10.2017 07:16 8,3 C 11,7 C 92 % 1014,1 hPa 0,0 l/m 8,7 km/h (2 Bft) W 263 0 min 0,000 mm 0,0 UV-I 5 W/m 7,1 C 6,6 C 12,9 km/h (3 Bft) 100,00 %
08.10.2017 07:18 8,3 C 11,7 C 92 % 1014,1 hPa 0,0 l/m 8,7 km/h (2 Bft) W-SW 247 0 min 0,000 mm 0,0 UV-I 5 W/m 7,1 C 6,6 C 12,9 km/h (3 Bft) 100,00 %
08.10.2017 07:20 8,3 C 11,1 C 92 % 1014,1 hPa 0,2 l/m 8,9 km/h (2 Bft) W-SW 248 0 min 0,000 mm 0,0 UV-I 5 W/m 7,1 C 6,4 C 12,9 km/h (3 Bft) 98,11 %
08.10.2017 07:22 8,3 C 11,7 C 92 % 1014,2 hPa 0,0 l/m 12,5 km/h (3 Bft) W-SW 255 0 min 0,000 mm 0,0 UV-I 5 W/m 7,1 C 4,3 C 19,3 km/h (3 Bft) 100,00 %
08.10.2017 07:24 8,3 C 11,1 C 91 % 1014,2 hPa 0,0 l/m 9,1 km/h (2 Bft) SW 234 0 min 0,000 mm 0,0 UV-I 7 W/m 6,9 C 6,3 C 14,5 km/h (3 Bft) 98,21 %
08.10.2017 07:26 8,3 C 11,1 C 91 % 1014,2 hPa 0,0 l/m 8,6 km/h (2 Bft) W 265 0 min 0,000 mm 0,0 UV-I 7 W/m 6,9 C 6,6 C 14,5 km/h (3 Bft) 95,12 %
08.10.2017 07:28 8,3 C 11,1 C 91 % 1014,2 hPa 0,0 l/m 11,0 km/h (2 Bft) SW 231 0 min 0,000 mm 0,0 UV-I 7 W/m 6,9 C 5,1 C 17,7 km/h (3 Bft) 97,87 %
08.10.2017 07:30 8,3 C 11,1 C 91 % 1014,2 hPa 0,0 l/m 11,3 km/h (2 Bft) W-SW 238 0 min 0,000 mm 0,0 UV-I 7 W/m 6,9 C 4,9 C 20,9 km/h (4 Bft) 100,00 %
08.10.2017 07:32 8,4 C 11,1 C 91 % 1014,2 hPa 0,0 l/m 9,2 km/h (2 Bft) W-SW 240 0 min 0,000 mm 0,0 UV-I 7 W/m 7,0 C 6,3 C 12,9 km/h (3 Bft) 100,00 %
08.10.2017 07:34 8,4 C 11,1 C 91 % 1014,2 hPa 0,0 l/m 10,9 km/h (2 Bft) SW 235 0 min 0,000 mm 0,0 UV-I 7 W/m 7,0 C 5,3 C 17,7 km/h (3 Bft) 100,00 %
08.10.2017 07:36 8,4 C 11,1 C 91 % 1014,2 hPa 0,0 l/m 12,5 km/h (3 Bft) W-SW 250 0 min 0,000 mm 0,0 UV-I 7 W/m 7,0 C 4,4 C 16,1 km/h (3 Bft) 100,00 %
08.10.2017 07:38 8,4 C 11,1 C 91 % 1014,2 hPa 0,0 l/m 12,9 km/h (3 Bft) W-SW 252 0 min 0,000 mm 0,0 UV-I 9 W/m 7,0 C 4,2 C 22,5 km/h (4 Bft) 100,00 %
08.10.2017 07:40 8,5 C 11,1 C 91 % 1014,2 hPa 0,0 l/m 13,4 km/h (3 Bft) SW 222 0 min 0,000 mm 0,0 UV-I 9 W/m 7,1 C 4,1 C 20,9 km/h (4 Bft) 100,00 %
08.10.2017 07:43 8,5 C 11,1 C 91 % 1014,2 hPa 0,0 l/m 16,3 km/h (3 Bft) W 269 0 min 0,000 mm 0,0 UV-I 10 W/m 7,1 C 2,8 C 22,5 km/h (4 Bft) 100,00 %
08.10.2017 07:44 8,5 C 11,1 C 91 % 1014,2 hPa 0,0 l/m 13,4 km/h (3 Bft) W-SW 248 0 min 0,000 mm 0,0 UV-I 11 W/m 7,1 C 4,1 C 16,1 km/h (3 Bft) 100,00 %
08.10.2017 07:46 8,6 C 11,1 C 91 % 1014,2 hPa 0,2 l/m 16,4 km/h (3 Bft) S-SW 207 0 min 0,000 mm 0,0 UV-I 12 W/m 7,2 C 2,8 C 24,1 km/h (4 Bft) 98,00 %
08.10.2017 07:48 8,6 C 11,1 C 91 % 1014,2 hPa 0,0 l/m 16,7 km/h (3 Bft) W 266 0 min 0,000 mm 0,0 UV-I 12 W/m 7,2 C 2,7 C 30,6 km/h (5 Bft) 100,00 %
08.10.2017 07:50 8,6 C 11,1 C 91 % 1014,3 hPa 0,0 l/m 15,3 km/h (3 Bft) W-SW 238 0 min 0,000 mm 0,0 UV-I 14 W/m 7,2 C 3,3 C 25,7 km/h (4 Bft) 100,00 %
08.10.2017 07:52 8,6 C 11,1 C 91 % 1014,4 hPa 0,0 l/m 14,7 km/h (3 Bft) W 262 0 min 0,000 mm 0,0 UV-I 17 W/m 7,2 C 3,6 C 20,9 km/h (4 Bft) 100,00 %
08.10.2017 07:54 8,6 C 11,1 C 91 % 1014,2 hPa 0,0 l/m 17,1 km/h (3 Bft) SW 232 0 min 0,000 mm 0,0 UV-I 23 W/m 7,2 C 2,6 C 24,1 km/h (4 Bft) 98,21 %
08.10.2017 07:56 8,6 C 11,1 C 90 % 1014,2 hPa 0,0 l/m 18,7 km/h (3 Bft) W 267 0 min 0,000 mm 0,0 UV-I 28 W/m 7,1 C 1,9 C 25,7 km/h (4 Bft) 100,00 %
08.10.2017 07:58 8,7 C 11,1 C 90 % 1014,2 hPa 0,0 l/m 18,2 km/h (3 Bft) W-SW 254 0 min 0,000 mm 0,0 UV-I 32 W/m 7,2 C 2,3 C 32,2 km/h (5 Bft) 97,87 %
08.10.2017 08:00 8,7 C 11,1 C 90 % 1014,3 hPa 0,0 l/m 19,9 km/h (4 Bft) SW 221 0 min 0,026 mm 0,0 UV-I 32 W/m 7,2 C 1,6 C 30,6 km/h (5 Bft) 98,00 %
08.10.2017 08:02 8,7 C 11,1 C 90 % 1014,3 hPa 0,2 l/m 16,0 km/h (3 Bft) W-SW 239 0 min 0,000 mm 0,0 UV-I 28 W/m 7,2 C 3,1 C 22,5 km/h (4 Bft) 100,00 %
08.10.2017 08:04 8,7 C 11,1 C 90 % 1014,3 hPa 0,0 l/m 18,4 km/h (3 Bft) W 268 0 min 0,000 mm 0,0 UV-I 26 W/m 7,2 C 2,2 C 29,0 km/h (5 Bft) 100,00 %
08.10.2017 08:06 8,7 C 11,1 C 90 % 1014,3 hPa 0,0 l/m 18,3 km/h (3 Bft) W-SW 258 0 min 0,000 mm 0,0 UV-I 29 W/m 7,2 C 2,2 C 30,6 km/h (5 Bft) 100,00 %
08.10.2017 08:08 8,7 C 11,1 C 90 % 1014,3 hPa 0,0 l/m 15,2 km/h (3 Bft) SW 233 0 min 0,000 mm 0,0 UV-I 36 W/m 7,2 C 3,5 C 24,1 km/h (4 Bft) 98,21 %
08.10.2017 08:10 8,7 C 11,1 C 90 % 1014,4 hPa 0,0 l/m 14,5 km/h (3 Bft) W-SW 255 0 min 0,000 mm 0,0 UV-I 42 W/m 7,2 C 3,8 C 22,5 km/h (4 Bft) 97,73 %
08.10.2017 08:12 8,7 C 11,1 C 91 % 1014,3 hPa 0,0 l/m 12,0 km/h (2 Bft) W 260 0 min 0,000 mm 0,0 UV-I 50 W/m 7,3 C 5,0 C 20,9 km/h (4 Bft) 96,15 %
08.10.2017 08:14 8,7 C 11,1 C 91 % 1014,4 hPa 0,0 l/m 14,3 km/h (3 Bft) W-SW 253 0 min 0,000 mm 0,0 UV-I 43 W/m 7,3 C 3,9 C 20,9 km/h (4 Bft) 96,43 %
08.10.2017 08:16 8,7 C 11,1 C 90 % 1014,3 hPa 0,0 l/m 17,7 km/h (3 Bft) SW 224 0 min 0,000 mm 0,0 UV-I 36 W/m 7,2 C 2,4 C 30,6 km/h (5 Bft) 96,00 %
08.10.2017 08:18 8,7 C 11,1 C 90 % 1014,4 hPa 0,2 l/m 15,2 km/h (3 Bft) W-SW 240 0 min 0,000 mm 0,0 UV-I 30 W/m 7,2 C 3,5 C 30,6 km/h (5 Bft) 95,12 %
08.10.2017 08:20 8,8 C 11,1 C 90 % 1014,4 hPa 0,0 l/m 15,6 km/h (3 Bft) W-SW 251 0 min 0,000 mm 0,0 UV-I 25 W/m 7,3 C 3,4 C 24,1 km/h (4 Bft) 92,86 %
08.10.2017 08:22 8,8 C 11,1 C 90 % 1014,5 hPa 0,0 l/m 17,7 km/h (3 Bft) W-SW 242 0 min 0,000 mm 0,0 UV-I 25 W/m 7,3 C 2,6 C 25,7 km/h (4 Bft) 96,23 %
08.10.2017 08:24 8,8 C 11,1 C 90 % 1014,5 hPa 0,0 l/m 17,2 km/h (3 Bft) SW 229 0 min 0,000 mm 0,0 UV-I 25 W/m 7,3 C 2,8 C 25,7 km/h (4 Bft) 94,29 %
08.10.2017 08:26 8,8 C 11,1 C 90 % 1014,4 hPa 0,0 l/m 14,0 km/h (3 Bft) NW 316 0 min 0,000 mm 0,0 UV-I 23 W/m 7,3 C 4,1 C 20,9 km/h (4 Bft) 92,86 %
08.10.2017 08:28 8,8 C 11,1 C 90 % 1014,5 hPa 0,0 l/m 16,1 km/h (3 Bft) SW 236 0 min 0,000 mm 0,0 UV-I 22 W/m 7,3 C 3,2 C 25,7 km/h (4 Bft) 95,74 %
08.10.2017 08:30 8,8 C 11,1 C 90 % 1014,5 hPa 0,0 l/m 16,8 km/h (3 Bft) SW 232 0 min 0,000 mm 0,0 UV-I 20 W/m 7,3 C 2,9 C 24,1 km/h (4 Bft) 95,12 %
08.10.2017 08:32 8,8 C 11,1 C 90 % 1014,5 hPa 0,0 l/m 14,8 km/h (3 Bft) W-SW 242 0 min 0,000 mm 0,0 UV-I 19 W/m 7,3 C 3,8 C 22,5 km/h (4 Bft) 94,64 %
08.10.2017 08:34 8,8 C 11,1 C 90 % 1014,5 hPa 0,0 l/m 13,7 km/h (3 Bft) W-SW 258 0 min 0,000 mm 0,0 UV-I 20 W/m 7,3 C 4,3 C 20,9 km/h (4 Bft) 94,87 %
08.10.2017 08:36 8,8 C 11,1 C 90 % 1014,6 hPa 0,0 l/m 18,2 km/h (3 Bft) W 260 0 min 0,000 mm 0,0 UV-I 20 W/m 7,3 C 2,4 C 24,1 km/h (4 Bft) 96,23 %
08.10.2017 08:38 8,8 C 11,1 C 90 % 1014,6 hPa 0,0 l/m 22,8 km/h (4 Bft) W-SW 257 0 min 0,000 mm 0,0 UV-I 24 W/m 7,3 C 0,8 C 30,6 km/h (5 Bft) 95,12 %
08.10.2017 08:40 8,8 C 11,1 C 90 % 1014,6 hPa 0,0 l/m 18,2 km/h (3 Bft) W-SW 242 0 min 0,000 mm 0,0 UV-I 29 W/m 7,3 C 2,4 C 25,7 km/h (4 Bft) 94,00 %
08.10.2017 08:42 8,8 C 11,1 C 90 % 1014,6 hPa 0,0 l/m 18,9 km/h (3 Bft) W-SW 246 0 min 0,000 mm 0,0 UV-I 41 W/m 7,3 C 2,1 C 32,2 km/h (5 Bft) 94,12 %
08.10.2017 08:44 8,8 C 11,1 C 90 % 1014,7 hPa 0,2 l/m 16,1 km/h (3 Bft) W-SW 248 0 min 0,000 mm 0,0 UV-I 50 W/m 7,3 C 3,2 C 30,6 km/h (5 Bft) 97,37 %
08.10.2017 08:46 8,8 C 11,1 C 90 % 1014,7 hPa 0,0 l/m 21,1 km/h (4 Bft) SW 229 0 min 0,000 mm 0,0 UV-I 59 W/m 7,3 C 1,4 C 30,6 km/h (5 Bft) 94,00 %
08.10.2017 08:48 8,8 C 11,1 C 90 % 1014,7 hPa 0,0 l/m 15,2 km/h (3 Bft) W-SW 239 0 min 0,000 mm 0,0 UV-I 57 W/m 7,3 C 3,6 C 22,5 km/h (4 Bft) 95,12 %
08.10.2017 08:50 8,8 C 11,1 C 90 % 1014,6 hPa 0,0 l/m 14,3 km/h (3 Bft) W-SW 254 0 min 0,000 mm 0,0 UV-I 48 W/m 7,3 C 4,0 C 19,3 km/h (3 Bft) 93,33 %
08.10.2017 08:52 8,8 C 11,1 C 90 % 1014,6 hPa 0,0 l/m 17,5 km/h (3 Bft) SW 216 0 min 0,000 mm 0,0 UV-I 44 W/m 7,3 C 2,6 C 27,4 km/h (4 Bft) 96,00 %
08.10.2017 08:54 8,8 C 11,1 C 90 % 1014,7 hPa 0,0 l/m 20,3 km/h (4 Bft) W 267 0 min 0,000 mm 0,0 UV-I 44 W/m 7,3 C 1,6 C 30,6 km/h (5 Bft) 98,00 %
08.10.2017 08:56 8,8 C 11,1 C 90 % 1014,6 hPa 0,0 l/m 19,3 km/h (3 Bft) W-SW 250 0 min 0,000 mm 0,0 UV-I 41 W/m 7,3 C 2,0 C 29,0 km/h (5 Bft) 98,00 %
08.10.2017 08:58 8,8 C 11,1 C 90 % 1014,6 hPa 0,0 l/m 17,1 km/h (3 Bft) W 268 0 min 0,000 mm 0,0 UV-I 42 W/m 7,3 C 2,8 C 35,4 km/h (5 Bft) 96,00 %
08.10.2017 09:00 8,8 C 11,1 C 90 % 1014,6 hPa 0,0 l/m 16,9 km/h (3 Bft) SW 225 0 min 0,025 mm 0,0 UV-I 42 W/m 7,3 C 2,9 C 24,1 km/h (4 Bft) 97,37 %
08.10.2017 09:02 8,8 C 11,1 C 90 % 1014,6 hPa 0,0 l/m 21,9 km/h (4 Bft) SW 228 0 min 0,000 mm 0,0 UV-I 41 W/m 7,3 C 1,1 C 35,4 km/h (5 Bft) 96,30 %
08.10.2017 09:04 8,8 C 11,1 C 90 % 1014,7 hPa 0,0 l/m 17,6 km/h (3 Bft) W-SW 250 0 min 0,000 mm 0,0 UV-I 37 W/m 7,3 C 2,6 C 30,6 km/h (5 Bft) 98,51 %
08.10.2017 09:06 8,8 C 11,1 C 91 % 1014,7 hPa 0,2 l/m 13,8 km/h (3 Bft) SW 229 0 min 0,000 mm 0,0 UV-I 35 W/m 7,4 C 4,2 C 20,9 km/h (4 Bft) 94,34 %
08.10.2017 09:08 8,8 C 11,1 C 91 % 1014,8 hPa 0,0 l/m 16,6 km/h (3 Bft) W-SW 248 0 min 0,000 mm 0,0 UV-I 37 W/m 7,4 C 3,0 C 25,7 km/h (4 Bft) 97,56 %
08.10.2017 09:10 8,8 C 11,1 C 91 % 1014,7 hPa 0,0 l/m 16,1 km/h (3 Bft) W 271 0 min 0,000 mm 0,0 UV-I 33 W/m 7,4 C 3,2 C 27,4 km/h (4 Bft) 97,92 %
08.10.2017 09:12 8,8 C 11,1 C 91 % 1014,7 hPa 0,0 l/m 17,2 km/h (3 Bft) SW 219 0 min 0,000 mm 0,0 UV-I 33 W/m 7,4 C 2,8 C 30,6 km/h (5 Bft) 97,37 %
08.10.2017 09:14 8,8 C 11,1 C 91 % 1014,8 hPa 0,0 l/m 16,4 km/h (3 Bft) S-SW 210 0 min 0,000 mm 0,0 UV-I 33 W/m 7,4 C 3,1 C 33,8 km/h (5 Bft) 100,00 %
08.10.2017 09:16 8,8 C 11,1 C 91 % 1014,8 hPa 0,0 l/m 17,7 km/h (3 Bft) W 265 0 min 0,000 mm 0,0 UV-I 37 W/m 7,4 C 2,6 C 24,1 km/h (4 Bft) 98,00 %
08.10.2017 09:18 8,8 C 11,1 C 91 % 1014,8 hPa 0,0 l/m 16,1 km/h (3 Bft) SW 221 0 min 0,000 mm 0,0 UV-I 39 W/m 7,4 C 3,2 C 24,1 km/h (4 Bft) 98,00 %
08.10.2017 09:20 8,8 C 11,1 C 91 % 1014,8 hPa 0,0 l/m 17,7 km/h (3 Bft) S 184 0 min 0,000 mm 0,0 UV-I 38 W/m 7,4 C 2,6 C 33,8 km/h (5 Bft) 100,00 %
08.10.2017 09:22 8,8 C 11,1 C 91 % 1014,8 hPa 0,0 l/m 17,0 km/h (3 Bft) S-SW 213 0 min 0,000 mm 0,0 UV-I 38 W/m 7,4 C 2,8 C 25,7 km/h (4 Bft) 100,00 %
08.10.2017 09:24 8,8 C 11,1 C 91 % 1014,8 hPa 0,0 l/m 15,2 km/h (3 Bft) W-SW 247 0 min 0,000 mm 0,0 UV-I 37 W/m 7,4 C 3,6 C 24,1 km/h (4 Bft) 97,87 %
08.10.2017 09:26 8,8 C 11,1 C 91 % 1014,8 hPa 0,0 l/m 16,5 km/h (3 Bft) W-SW 249 0 min 0,000 mm 0,0 UV-I 39 W/m 7,4 C 3,0 C 30,6 km/h (5 Bft) 97,37 %
08.10.2017 09:28 8,8 C 11,1 C 91 % 1014,8 hPa 0,0 l/m 21,0 km/h (4 Bft) W-SW 253 0 min 0,000 mm 0,0 UV-I 39 W/m 7,4 C 1,4 C 32,2 km/h (5 Bft) 100,00 %
08.10.2017 09:30 8,8 C 11,1 C 91 % 1014,8 hPa 0,0 l/m 20,8 km/h (4 Bft) W-SW 240 0 min 0,000 mm 0,0 UV-I 42 W/m 7,4 C 1,5 C 32,2 km/h (5 Bft) 100,00 %
08.10.2017 09:32 8,8 C 11,1 C 91 % 1014,8 hPa 0,0 l/m 18,4 km/h (3 Bft) W-SW 250 0 min 0,000 mm 0,0 UV-I 42 W/m 7,4 C 2,3 C 32,2 km/h (5 Bft) 95,12 %
08.10.2017 09:34 8,8 C 11,1 C 91 % 1014,8 hPa 0,2 l/m 17,7 km/h (3 Bft) W 261 0 min 0,000 mm 0,0 UV-I 40 W/m 7,4 C 2,6 C 24,1 km/h (4 Bft) 100,00 %
08.10.2017 09:36 8,8 C 11,1 C 91 % 1014,9 hPa 0,0 l/m 17,5 km/h (3 Bft) W-SW 244 0 min 0,000 mm 0,0 UV-I 42 W/m 7,4 C 2,6 C 24,1 km/h (4 Bft) 100,00 %
08.10.2017 09:38 8,8 C 11,1 C 91 % 1014,9 hPa 0,0 l/m 17,1 km/h (3 Bft) SW 223 0 min 0,000 mm 0,0 UV-I 40 W/m 7,4 C 2,8 C 32,2 km/h (5 Bft) 100,00 %
08.10.2017 09:40 8,8 C 11,1 C 91 % 1014,9 hPa 0,0 l/m 18,5 km/h (3 Bft) W-SW 252 0 min 0,000 mm 0,0 UV-I 42 W/m 7,4 C 2,3 C 32,2 km/h (5 Bft) 100,00 %
08.10.2017 09:42 8,8 C 11,1 C 91 % 1015,0 hPa 0,0 l/m 14,9 km/h (3 Bft) W-SW 248 0 min 0,000 mm 0,0 UV-I 43 W/m 7,4 C 3,7 C 22,5 km/h (4 Bft) 100,00 %
08.10.2017 09:44 8,8 C 11,1 C 91 % 1015,0 hPa 0,0 l/m 19,7 km/h (3 Bft) SW 219 0 min 0,000 mm 0,0 UV-I 43 W/m 7,4 C 1,8 C 27,4 km/h (4 Bft) 100,00 %
08.10.2017 09:46 8,8 C 11,1 C 91 % 1015,0 hPa 0,0 l/m 17,5 km/h (3 Bft) SW 234 0 min 0,000 mm 0,0 UV-I 47 W/m 7,4 C 2,6 C 22,5 km/h (4 Bft) 100,00 %
08.10.2017 09:48 8,8 C 11,1 C 91 % 1014,9 hPa 0,0 l/m 16,5 km/h (3 Bft) SW 221 0 min 0,000 mm 0,0 UV-I 44 W/m 7,4 C 3,0 C 27,4 km/h (4 Bft) 100,00 %
08.10.2017 09:50 8,8 C 11,1 C 91 % 1015,0 hPa 0,0 l/m 16,6 km/h (3 Bft) SW 232 0 min 0,000 mm 0,0 UV-I 44 W/m 7,4 C 3,0 C 24,1 km/h (4 Bft) 97,62 %
08.10.2017 09:52 8,8 C 11,1 C 91 % 1015,0 hPa 0,0 l/m 18,8 km/h (3 Bft) SW 235 0 min 0,000 mm 0,0 UV-I 48 W/m 7,4 C 2,2 C 25,7 km/h (4 Bft) 100,00 %
08.10.2017 09:54 8,8 C 11,1 C 91 % 1015,0 hPa 0,0 l/m 17,5 km/h (3 Bft) W 259 0 min 0,000 mm 0,0 UV-I 50 W/m 7,4 C 2,6 C 27,4 km/h (4 Bft) 98,00 %
08.10.2017 09:56 8,8 C 11,1 C 92 % 1015,0 hPa 0,0 l/m 17,5 km/h (3 Bft) W-SW 249 0 min 0,000 mm 0,0 UV-I 53 W/m 7,6 C 2,6 C 25,7 km/h (4 Bft) 98,00 %
08.10.2017 09:58 8,8 C 11,1 C 92 % 1015,0 hPa 0,0 l/m 18,4 km/h (3 Bft) SW 222 0 min 0,000 mm 0,0 UV-I 57 W/m 7,6 C 2,3 C 25,7 km/h (4 Bft) 100,00 %
08.10.2017 10:00 8,8 C 11,1 C 92 % 1015,0 hPa 0,0 l/m 15,5 km/h (3 Bft) W 263 0 min 0,025 mm 0,0 UV-I 57 W/m 7,6 C 3,5 C 22,5 km/h (4 Bft) 100,00 %
08.10.2017 10:02 8,8 C 11,1 C 92 % 1015,0 hPa 0,2 l/m 19,3 km/h (3 Bft) W-SW 252 0 min 0,000 mm 0,0 UV-I 55 W/m 7,6 C 2,0 C 27,4 km/h (4 Bft) 98,00 %
08.10.2017 10:04 8,8 C 11,1 C 92 % 1015,0 hPa 0,0 l/m 16,1 km/h (3 Bft) W 262 0 min 0,000 mm 0,0 UV-I 59 W/m 7,6 C 3,2 C 32,2 km/h (5 Bft) 100,00 %
08.10.2017 10:06 8,8 C 11,1 C 92 % 1015,0 hPa 0,0 l/m 19,4 km/h (3 Bft) SW 236 0 min 0,000 mm 0,0 UV-I 63 W/m 7,6 C 1,9 C 29,0 km/h (5 Bft) 100,00 %
08.10.2017 10:08 8,8 C 11,1 C 92 % 1015,0 hPa 0,0 l/m 17,4 km/h (3 Bft) W 262 0 min 0,000 mm 0,0 UV-I 66 W/m 7,6 C 2,7 C 22,5 km/h (4 Bft) 97,37 %
08.10.2017 10:10 8,9 C 11,1 C 92 % 1015,0 hPa 0,0 l/m 17,2 km/h (3 Bft) W 263 0 min 0,000 mm 0,0 UV-I 64 W/m 7,7 C 2,9 C 27,4 km/h (4 Bft) 100,00 %
08.10.2017 10:12 8,9 C 11,1 C 92 % 1015,1 hPa 0,0 l/m 19,2 km/h (3 Bft) W 265 0 min 0,000 mm 0,0 UV-I 68 W/m 7,7 C 2,1 C 30,6 km/h (5 Bft) 100,00 %
08.10.2017 10:14 8,9 C 11,1 C 92 % 1015,2 hPa 0,0 l/m 17,5 km/h (3 Bft) W-SW 255 0 min 0,000 mm 0,0 UV-I 63 W/m 7,7 C 2,8 C 25,7 km/h (4 Bft) 97,87 %
08.10.2017 10:16 8,9 C 11,1 C 92 % 1015,1 hPa 0,0 l/m 15,4 km/h (3 Bft) W-SW 254 0 min 0,000 mm 0,0 UV-I 63 W/m 7,7 C 3,6 C 25,7 km/h (4 Bft) 100,00 %
08.10.2017 10:18 8,9 C 11,1 C 92 % 1015,2 hPa 0,0 l/m 15,1 km/h (3 Bft) SW 229 0 min 0,000 mm 0,0 UV-I 64 W/m 7,7 C 3,8 C 24,1 km/h (4 Bft) 97,37 %
08.10.2017 10:20 8,9 C 11,1 C 92 % 1015,2 hPa 0,0 l/m 18,8 km/h (3 Bft) W-SW 250 0 min 0,000 mm 0,0 UV-I 70 W/m 7,7 C 2,3 C 24,1 km/h (4 Bft) 100,00 %
08.10.2017 10:22 8,9 C 11,1 C 92 % 1015,2 hPa 0,0 l/m 20,3 km/h (4 Bft) SW 236 0 min 0,000 mm 0,0 UV-I 77 W/m 7,7 C 1,8 C 32,2 km/h (5 Bft) 97,56 %
08.10.2017 10:24 8,9 C 11,1 C 92 % 1015,2 hPa 0,0 l/m 20,5 km/h (4 Bft) W-SW 242 0 min 0,000 mm 0,0 UV-I 77 W/m 7,7 C 1,7 C 27,4 km/h (4 Bft) 95,24 %
08.10.2017 10:26 8,9 C 11,1 C 92 % 1015,1 hPa 0,0 l/m 18,2 km/h (3 Bft) S-SW 207 0 min 0,000 mm 0,0 UV-I 72 W/m 7,7 C 2,5 C 25,7 km/h (4 Bft) 98,11 %
08.10.2017 10:28 8,9 C 11,1 C 92 % 1015,1 hPa 0,0 l/m 19,6 km/h (3 Bft) SW 223 0 min 0,000 mm 0,0 UV-I 74 W/m 7,7 C 2,0 C 27,4 km/h (4 Bft) 94,55 %
08.10.2017 10:30 8,9 C 11,1 C 92 % 1015,2 hPa 0,0 l/m 17,2 km/h (3 Bft) SW 223 0 min 0,000 mm 0,0 UV-I 82 W/m 7,7 C 2,9 C 22,5 km/h (4 Bft) 97,44 %
08.10.2017 10:32 9,0 C 11,1 C 92 % 1015,2 hPa 0,0 l/m 19,3 km/h (3 Bft) SW 232 0 min 0,000 mm 0,2 UV-I 91 W/m 7,8 C 2,2 C 25,7 km/h (4 Bft) 96,36 %
08.10.2017 10:34 9,0 C 11,1 C 92 % 1015,2 hPa 0,0 l/m 15,6 km/h (3 Bft) W-SW 238 0 min 0,000 mm 0,0 UV-I 87 W/m 7,8 C 3,7 C 24,1 km/h (4 Bft) 97,62 %
08.10.2017 10:36 9,1 C 11,1 C 92 % 1015,2 hPa 0,0 l/m 14,2 km/h (3 Bft) W-SW 238 0 min 0,000 mm 0,0 UV-I 84 W/m 7,9 C 4,4 C 22,5 km/h (4 Bft) 98,00 %
08.10.2017 10:38 9,1 C 11,1 C 92 % 1015,3 hPa 0,0 l/m 15,1 km/h (3 Bft) W-SW 238 0 min 0,000 mm 0,0 UV-I 85 W/m 7,9 C 4,0 C 24,1 km/h (4 Bft) 95,12 %
08.10.2017 10:40 9,1 C 11,1 C 92 % 1015,2 hPa 0,0 l/m 18,2 km/h (3 Bft) SW 214 0 min 0,000 mm 0,0 UV-I 79 W/m 7,9 C 2,8 C 32,2 km/h (5 Bft) 97,87 %
08.10.2017 10:42 9,1 C 11,1 C 92 % 1015,3 hPa 0,0 l/m 18,5 km/h (3 Bft) S-SW 196 0 min 0,000 mm 0,0 UV-I 72 W/m 7,9 C 2,7 C 27,4 km/h (4 Bft) 98,00 %
08.10.2017 10:44 9,1 C 11,1 C 92 % 1015,3 hPa 0,0 l/m 19,4 km/h (3 Bft) SW 229 0 min 0,000 mm 0,0 UV-I 69 W/m 7,9 C 2,3 C 33,8 km/h (5 Bft) 96,23 %
08.10.2017 10:46 9,1 C 11,1 C 92 % 1015,2 hPa 0,0 l/m 18,1 km/h (3 Bft) W 271 0 min 0,000 mm 0,0 UV-I 59 W/m 7,9 C 2,8 C 25,7 km/h (4 Bft) 97,56 %
08.10.2017 10:48 9,1 C 11,1 C 92 % 1015,3 hPa 0,0 l/m 13,1 km/h (3 Bft) W-SW 255 0 min 0,000 mm 0,0 UV-I 59 W/m 7,9 C 4,9 C 19,3 km/h (3 Bft) 97,73 %
08.10.2017 10:50 9,1 C 11,1 C 92 % 1015,3 hPa 0,0 l/m 14,5 km/h (3 Bft) SW 228 0 min 0,000 mm 0,0 UV-I 60 W/m 7,9 C 4,3 C 24,1 km/h (4 Bft) 98,11 %
08.10.2017 10:52 9,1 C 11,1 C 92 % 1015,3 hPa 0,0 l/m 19,1 km/h (3 Bft) W-SW 246 0 min 0,000 mm 0,0 UV-I 61 W/m 7,9 C 2,4 C 25,7 km/h (4 Bft) 94,74 %
08.10.2017 10:54 9,1 C 11,1 C 92 % 1015,4 hPa 0,0 l/m 14,9 km/h (3 Bft) W-SW 242 0 min 0,000 mm 0,0 UV-I 72 W/m 7,9 C 4,1 C 22,5 km/h (4 Bft) 98,00 %
08.10.2017 10:56 9,1 C 11,1 C 92 % 1015,3 hPa 0,2 l/m 13,4 km/h (3 Bft) SW 228 0 min 0,000 mm 0,0 UV-I 71 W/m 7,9 C 4,8 C 19,3 km/h (3 Bft) 100,00 %
08.10.2017 10:58 9,1 C 11,1 C 92 % 1015,4 hPa 0,0 l/m 16,0 km/h (3 Bft) SW 234 0 min 0,000 mm 0,0 UV-I 75 W/m 7,9 C 3,6 C 27,4 km/h (4 Bft) 97,73 %
08.10.2017 11:00 9,1 C 11,1 C 92 % 1015,4 hPa 0,0 l/m 19,4 km/h (3 Bft) SW 234 0 min 0,051 mm 0,0 UV-I 76 W/m 7,9 C 2,3 C 27,4 km/h (4 Bft) 100,00 %
08.10.2017 11:02 9,1 C 11,1 C 92 % 1015,4 hPa 0,0 l/m 15,4 km/h (3 Bft) SW 236 0 min 0,000 mm 0,0 UV-I 74 W/m 7,9 C 3,9 C 22,5 km/h (4 Bft) 100,00 %
08.10.2017 11:04 9,1 C 11,1 C 92 % 1015,4 hPa 0,2 l/m 12,7 km/h (3 Bft) W 281 0 min 0,000 mm 0,0 UV-I 68 W/m 7,9 C 5,1 C 16,1 km/h (3 Bft) 100,00 %
08.10.2017 11:06 9,1 C 11,1 C 92 % 1015,4 hPa 0,0 l/m 14,8 km/h (3 Bft) SW 236 0 min 0,000 mm 0,0 UV-I 69 W/m 7,9 C 4,1 C 19,3 km/h (3 Bft) 100,00 %
08.10.2017 11:08 9,1 C 11,1 C 92 % 1015,5 hPa 0,0 l/m 15,8 km/h (3 Bft) SW 224 0 min 0,000 mm 0,4 UV-I 87 W/m 7,9 C 3,7 C 22,5 km/h (4 Bft) 96,00 %
08.10.2017 11:10 9,1 C 11,1 C 92 % 1015,5 hPa 0,0 l/m 16,5 km/h (3 Bft) SW 225 0 min 0,000 mm 0,2 UV-I 90 W/m 7,9 C 3,4 C 24,1 km/h (4 Bft) 100,00 %
08.10.2017 11:12 9,1 C 11,1 C 92 % 1015,5 hPa 0,0 l/m 19,6 km/h (3 Bft) W-SW 254 0 min 0,000 mm 0,0 UV-I 85 W/m 7,9 C 2,3 C 30,6 km/h (5 Bft) 100,00 %
08.10.2017 11:14 9,1 C 11,1 C 92 % 1015,6 hPa 0,0 l/m 16,4 km/h (3 Bft) W-SW 252 0 min 0,000 mm 0,0 UV-I 72 W/m 7,9 C 3,5 C 27,4 km/h (4 Bft) 100,00 %
08.10.2017 11:16 9,1 C 11,1 C 92 % 1015,5 hPa 0,0 l/m 13,0 km/h (3 Bft) W-SW 254 0 min 0,000 mm 0,0 UV-I 69 W/m 7,9 C 5,0 C 19,3 km/h (3 Bft) 98,00 %
08.10.2017 11:18 9,1 C 11,1 C 92 % 1015,5 hPa 0,0 l/m 17,8 km/h (3 Bft) W-SW 240 0 min 0,000 mm 0,0 UV-I 75 W/m 7,9 C 2,9 C 29,0 km/h (5 Bft) 100,00 %
08.10.2017 11:20 9,1 C 11,1 C 92 % 1015,5 hPa 0,0 l/m 16,5 km/h (3 Bft) SW 235 0 min 0,000 mm 0,0 UV-I 81 W/m 7,9 C 3,4 C 24,1 km/h (4 Bft) 100,00 %
08.10.2017 11:22 9,1 C 11,1 C 92 % 1015,6 hPa 0,0 l/m 14,5 km/h (3 Bft) W-SW 249 0 min 0,000 mm 0,0 UV-I 75 W/m 7,9 C 4,3 C 27,4 km/h (4 Bft) 100,00 %
08.10.2017 11:24 9,1 C 11,1 C 92 % 1015,6 hPa 0,0 l/m 17,7 km/h (3 Bft) W 261 0 min 0,000 mm 0,0 UV-I 73 W/m 7,9 C 2,9 C 22,5 km/h (4 Bft) 100,00 %
08.10.2017 11:26 9,1 C 11,1 C 92 % 1015,6 hPa 0,0 l/m 16,5 km/h (3 Bft) W-SW 254 0 min 0,000 mm 0,0 UV-I 74 W/m 7,9 C 3,4 C 24,1 km/h (4 Bft) 100,00 %
08.10.2017 11:28 9,1 C 11,1 C 92 % 1015,6 hPa 0,0 l/m 16,3 km/h (3 Bft) W-SW 248 0 min 0,000 mm 0,2 UV-I 76 W/m 7,9 C 3,5 C 27,4 km/h (4 Bft) 100,00 %
08.10.2017 11:30 9,1 C 11,1 C 92 % 1015,6 hPa 0,0 l/m 16,5 km/h (3 Bft) S-SW 200 0 min 0,000 mm 0,0 UV-I 67 W/m 7,9 C 3,4 C 27,4 km/h (4 Bft) 100,00 %
08.10.2017 11:32 9,2 C 11,1 C 92 % 1015,8 hPa 0,0 l/m 16,1 km/h (3 Bft) SW 216 0 min 0,000 mm 0,2 UV-I 85 W/m 8,0 C 3,7 C 24,1 km/h (4 Bft) 100,00 %
08.10.2017 11:34 9,2 C 11,1 C 92 % 1015,7 hPa 0,0 l/m 21,9 km/h (4 Bft) W-SW 243 0 min 0,000 mm 0,5 UV-I 98 W/m 8,0 C 1,6 C 32,2 km/h (5 Bft) 100,00 %
08.10.2017 11:36 9,2 C 11,1 C 92 % 1015,8 hPa 0,0 l/m 16,7 km/h (3 Bft) W 269 0 min 0,000 mm 0,5 UV-I 103 W/m 8,0 C 3,5 C 32,2 km/h (5 Bft) 98,11 %
08.10.2017 11:38 9,2 C 11,1 C 92 % 1015,7 hPa 0,0 l/m 15,5 km/h (3 Bft) SW 233 0 min 0,000 mm 0,5 UV-I 99 W/m 8,0 C 4,0 C 24,1 km/h (4 Bft) 100,00 %
08.10.2017 11:40 9,2 C 11,1 C 92 % 1015,6 hPa 0,0 l/m 16,5 km/h (3 Bft) W-SW 237 0 min 0,000 mm 0,4 UV-I 96 W/m 8,0 C 3,5 C 25,7 km/h (4 Bft) 100,00 %
08.10.2017 11:42 9,2 C 11,1 C 92 % 1015,7 hPa 0,0 l/m 17,5 km/h (3 Bft) W-SW 239 0 min 0,000 mm 0,2 UV-I 81 W/m 8,0 C 3,1 C 24,1 km/h (4 Bft) 100,00 %
08.10.2017 11:44 9,2 C 11,1 C 92 % 1015,6 hPa 0,0 l/m 17,0 km/h (3 Bft) SW 221 0 min 0,000 mm 0,0 UV-I 77 W/m 8,0 C 3,3 C 22,5 km/h (4 Bft) 100,00 %
08.10.2017 11:46 9,2 C 11,1 C 92 % 1015,6 hPa 0,0 l/m 17,3 km/h (3 Bft) SW 236 0 min 0,000 mm 0,0 UV-I 75 W/m 8,0 C 3,2 C 25,7 km/h (4 Bft) 98,00 %
08.10.2017 11:48 9,2 C 11,1 C 92 % 1015,6 hPa 0,0 l/m 14,5 km/h (3 Bft) W 262 0 min 0,000 mm 0,0 UV-I 70 W/m 8,0 C 4,4 C 20,9 km/h (4 Bft) 100,00 %
08.10.2017 11:50 9,2 C 11,1 C 92 % 1015,7 hPa 0,0 l/m 15,1 km/h (3 Bft) W-SW 244 0 min 0,000 mm 0,0 UV-I 77 W/m 8,0 C 4,1 C 29,0 km/h (5 Bft) 100,00 %
08.10.2017 11:52 9,2 C 11,1 C 92 % 1015,7 hPa 0,0 l/m 16,1 km/h (3 Bft) SW 214 0 min 0,000 mm 0,0 UV-I 74 W/m 8,0 C 3,7 C 24,1 km/h (4 Bft) 100,00 %
08.10.2017 11:54 9,2 C 11,1 C 92 % 1015,7 hPa 0,0 l/m 16,6 km/h (3 Bft) W-SW 239 0 min 0,000 mm 0,2 UV-I 76 W/m 8,0 C 3,5 C 24,1 km/h (4 Bft) 97,56 %
08.10.2017 11:56 9,2 C 11,1 C 92 % 1015,7 hPa 0,0 l/m 12,0 km/h (2 Bft) W-SW 243 0 min 0,000 mm 0,5 UV-I 83 W/m 8,0 C 5,6 C 19,3 km/h (3 Bft) 95,12 %
08.10.2017 11:58 9,3 C 11,1 C 92 % 1015,7 hPa 0,0 l/m 15,1 km/h (3 Bft) W-SW 242 0 min 0,000 mm 0,5 UV-I 81 W/m 8,1 C 4,2 C 20,9 km/h (4 Bft) 100,00 %
08.10.2017 12:00 9,3 C 11,1 C 92 % 1015,7 hPa 0,0 l/m 16,2 km/h (3 Bft) W-SW 239 0 min 0,051 mm 0,1 UV-I 75 W/m 8,1 C 3,8 C 24,1 km/h (4 Bft) 100,00 %
08.10.2017 12:02 9,3 C 11,1 C 92 % 1015,8 hPa 0,0 l/m 16,7 km/h (3 Bft) W-SW 244 0 min 0,000 mm 0,0 UV-I 64 W/m 8,1 C 3,6 C 24,1 km/h (4 Bft) 98,21 %
08.10.2017 12:04 9,3 C 11,1 C 92 % 1015,8 hPa 0,0 l/m 11,5 km/h (2 Bft) S-SW 206 0 min 0,000 mm 0,0 UV-I 59 W/m 8,1 C 6,0 C 19,3 km/h (3 Bft) 98,00 %
08.10.2017 12:06 9,3 C 11,1 C 92 % 1015,8 hPa 0,0 l/m 16,7 km/h (3 Bft) W 272 0 min 0,000 mm 0,0 UV-I 51 W/m 8,1 C 3,6 C 25,7 km/h (4 Bft) 97,14 %
08.10.2017 12:08 9,3 C 11,1 C 92 % 1015,8 hPa 0,0 l/m 16,4 km/h (3 Bft) W-SW 239 0 min 0,000 mm 0,0 UV-I 51 W/m 8,1 C 3,7 C 29,0 km/h (5 Bft) 98,21 %
08.10.2017 12:10 9,3 C 11,1 C 92 % 1015,8 hPa 0,0 l/m 17,4 km/h (3 Bft) W-SW 254 0 min 0,000 mm 0,0 UV-I 55 W/m 8,1 C 3,3 C 25,7 km/h (4 Bft) 100,00 %
08.10.2017 12:12 9,3 C 11,1 C 92 % 1015,8 hPa 0,0 l/m 15,4 km/h (3 Bft) SW 226 0 min 0,000 mm 0,0 UV-I 61 W/m 8,1 C 4,1 C 20,9 km/h (4 Bft) 95,65 %
08.10.2017 12:14 9,3 C 11,1 C 92 % 1015,8 hPa 0,0 l/m 17,3 km/h (3 Bft) W-SW 242 0 min 0,000 mm 0,0 UV-I 68 W/m 8,1 C 3,3 C 25,7 km/h (4 Bft) 97,06 %
08.10.2017 12:16 9,4 C 11,1 C 92 % 1015,9 hPa 0,0 l/m 17,0 km/h (3 Bft) SW 231 0 min 0,000 mm 0,0 UV-I 68 W/m 8,2 C 3,6 C 24,1 km/h (4 Bft) 95,12 %
08.10.2017 12:18 9,4 C 11,1 C 91 % 1015,9 hPa 0,0 l/m 16,0 km/h (3 Bft) W 261 0 min 0,000 mm 0,0 UV-I 64 W/m 8,0 C 4,0 C 24,1 km/h (4 Bft) 98,11 %
08.10.2017 12:20 9,4 C 11,1 C 91 % 1015,9 hPa 0,0 l/m 15,9 km/h (3 Bft) W-SW 238 0 min 0,000 mm 0,3 UV-I 75 W/m 8,0 C 4,0 C 29,0 km/h (5 Bft) 97,73 %
08.10.2017 12:22 9,4 C 11,1 C 91 % 1015,9 hPa 0,0 l/m 16,8 km/h (3 Bft) W 278 0 min 0,000 mm 0,5 UV-I 87 W/m 8,0 C 3,7 C 27,4 km/h (4 Bft) 98,00 %
08.10.2017 12:24 9,4 C 11,1 C 91 % 1015,9 hPa 0,0 l/m 18,5 km/h (3 Bft) SW 217 0 min 0,000 mm 0,5 UV-I 79 W/m 8,0 C 3,0 C 30,6 km/h (5 Bft) 97,44 %
08.10.2017 12:26 9,5 C 11,1 C 91 % 1015,8 hPa 0,0 l/m 13,8 km/h (3 Bft) SW 229 0 min 0,000 mm 0,5 UV-I 90 W/m 8,1 C 5,1 C 19,3 km/h (3 Bft) 95,92 %
08.10.2017 12:28 9,5 C 11,1 C 91 % 1015,8 hPa 0,0 l/m 16,8 km/h (3 Bft) SW 215 0 min 0,000 mm 0,5 UV-I 88 W/m 8,1 C 3,8 C 24,1 km/h (4 Bft) 94,34 %
08.10.2017 12:30 9,6 C 11,1 C 91 % 1015,8 hPa 0,0 l/m 18,6 km/h (3 Bft) SW 221 0 min 0,000 mm 0,5 UV-I 88 W/m 8,2 C 3,2 C 27,4 km/h (4 Bft) 96,30 %
08.10.2017 12:32 9,6 C 11,1 C 91 % 1015,8 hPa 0,0 l/m 17,7 km/h (3 Bft) SW 236 0 min 0,000 mm 0,6 UV-I 98 W/m 8,2 C 3,6 C 24,1 km/h (4 Bft) 92,86 %
08.10.2017 12:34 9,6 C 11,1 C 91 % 1015,8 hPa 0,0 l/m 13,4 km/h (3 Bft) SW 223 0 min 0,000 mm 0,6 UV-I 111 W/m 8,2 C 5,4 C 19,3 km/h (3 Bft) 96,00 %
08.10.2017 12:36 9,6 C 11,1 C 91 % 1015,9 hPa 0,0 l/m 22,2 km/h (4 Bft) W-SW 258 0 min 0,000 mm 0,5 UV-I 90 W/m 8,2 C 2,1 C 35,4 km/h (5 Bft) 94,00 %
08.10.2017 12:38 9,6 C 11,1 C 91 % 1015,8 hPa 0,0 l/m 15,0 km/h (3 Bft) SW 227 0 min 0,000 mm 0,5 UV-I 80 W/m 8,2 C 4,6 C 24,1 km/h (4 Bft) 94,34 %
08.10.2017 12:40 9,7 C 11,1 C 91 % 1015,9 hPa 0,0 l/m 17,2 km/h (3 Bft) S-SW 211 0 min 0,000 mm 0,5 UV-I 83 W/m 8,3 C 3,9 C 22,5 km/h (4 Bft) 92,68 %
08.10.2017 12:42 9,7 C 11,1 C 91 % 1015,8 hPa 0,0 l/m 17,8 km/h (3 Bft) SW 236 0 min 0,000 mm 0,5 UV-I 86 W/m 8,3 C 3,7 C 29,0 km/h (5 Bft) 96,00 %
08.10.2017 12:44 9,7 C 11,1 C 90 % 1015,9 hPa 0,0 l/m 18,5 km/h (3 Bft) SW 232 0 min 0,000 mm 0,4 UV-I 82 W/m 8,1 C 3,4 C 30,6 km/h (5 Bft) 93,18 %
08.10.2017 12:46 9,7 C 11,1 C 90 % 1015,9 hPa 0,0 l/m 20,0 km/h (4 Bft) SW 229 0 min 0,000 mm 0,7 UV-I 115 W/m 8,1 C 2,9 C 27,4 km/h (4 Bft) 94,00 %
08.10.2017 12:48 9,7 C 11,1 C 90 % 1015,8 hPa 0,0 l/m 21,6 km/h (4 Bft) SW 221 0 min 0,000 mm 0,7 UV-I 122 W/m 8,1 C 2,4 C 29,0 km/h (5 Bft) 97,37 %
08.10.2017 12:50 9,7 C 11,1 C 90 % 1015,8 hPa 0,0 l/m 24,0 km/h (4 Bft) W-SW 248 0 min 0,000 mm 0,7 UV-I 125 W/m 8,1 C 1,7 C 33,8 km/h (5 Bft) 92,00 %
08.10.2017 12:52 9,7 C 11,1 C 90 % 1015,9 hPa 0,0 l/m 16,5 km/h (3 Bft) SW 222 0 min 0,000 mm 0,8 UV-I 134 W/m 8,1 C 4,2 C 25,7 km/h (4 Bft) 96,00 %
08.10.2017 12:54 9,7 C 11,1 C 90 % 1015,9 hPa 0,0 l/m 19,5 km/h (3 Bft) SW 234 0 min 0,000 mm 0,8 UV-I 128 W/m 8,1 C 3,1 C 27,4 km/h (4 Bft) 94,74 %
08.10.2017 12:56 9,8 C 11,1 C 90 % 1015,9 hPa 0,0 l/m 19,5 km/h (3 Bft) SW 214 0 min 0,000 mm 0,7 UV-I 119 W/m 8,2 C 3,2 C 27,4 km/h (4 Bft) 95,56 %
08.10.2017 12:58 9,8 C 11,1 C 90 % 1016,0 hPa 0,0 l/m 17,7 km/h (3 Bft) SW 234 0 min 0,000 mm 0,6 UV-I 115 W/m 8,2 C 3,8 C 25,7 km/h (4 Bft) 94,34 %
08.10.2017 13:00 9,8 C 11,1 C 90 % 1016,0 hPa 0,0 l/m 20,1 km/h (4 Bft) W-SW 240 0 min 0,051 mm 0,5 UV-I 93 W/m 8,2 C 3,0 C 30,6 km/h (5 Bft) 93,18 %
08.10.2017 13:02 9,8 C 11,1 C 90 % 1015,9 hPa 0,0 l/m 15,7 km/h (3 Bft) S-SW 210 0 min 0,000 mm 0,5 UV-I 94 W/m 8,2 C 4,6 C 22,5 km/h (4 Bft) 94,64 %
08.10.2017 13:04 9,8 C 11,1 C 90 % 1015,9 hPa 0,0 l/m 18,6 km/h (3 Bft) W-SW 246 0 min 0,000 mm 0,5 UV-I 92 W/m 8,2 C 3,5 C 27,4 km/h (4 Bft) 96,00 %
08.10.2017 13:06 9,8 C 11,1 C 90 % 1015,9 hPa 0,0 l/m 17,5 km/h (3 Bft) W-SW 242 0 min 0,000 mm 0,5 UV-I 87 W/m 8,2 C 3,9 C 25,7 km/h (4 Bft) 97,56 %
08.10.2017 13:08 9,8 C 11,1 C 90 % 1015,9 hPa 0,0 l/m 13,9 km/h (3 Bft) SW 234 0 min 0,000 mm 0,2 UV-I 83 W/m 8,2 C 5,4 C 22,5 km/h (4 Bft) 100,00 %
08.10.2017 13:10 9,7 C 11,1 C 90 % 1015,9 hPa 0,0 l/m 13,6 km/h (3 Bft) W-SW 251 0 min 0,000 mm 0,5 UV-I 94 W/m 8,1 C 5,4 C 20,9 km/h (4 Bft) 100,00 %
08.10.2017 13:12 9,8 C 11,1 C 90 % 1015,9 hPa 0,0 l/m 16,0 km/h (3 Bft) W-SW 241 0 min 0,000 mm 0,5 UV-I 90 W/m 8,2 C 4,5 C 22,5 km/h (4 Bft) 100,00 %
08.10.2017 13:14 9,8 C 11,1 C 90 % 1015,9 hPa 0,0 l/m 15,7 km/h (3 Bft) S-SW 200 0 min 0,000 mm 0,5 UV-I 96 W/m 8,2 C 4,6 C 24,1 km/h (4 Bft) 100,00 %
08.10.2017 13:16 9,8 C 11,1 C 90 % 1015,9 hPa 0,0 l/m 17,1 km/h (3 Bft) SW 225 0 min 0,000 mm 0,1 UV-I 80 W/m 8,2 C 4,1 C 29,0 km/h (5 Bft) 100,00 %
08.10.2017 13:18 9,8 C 11,1 C 90 % 1015,9 hPa 0,0 l/m 18,5 km/h (3 Bft) W 271 0 min 0,000 mm 0,0 UV-I 68 W/m 8,2 C 3,5 C 35,4 km/h (5 Bft) 100,00 %
08.10.2017 13:20 9,8 C 11,1 C 90 % 1015,9 hPa 0,0 l/m 17,4 km/h (3 Bft) W-SW 245 0 min 0,000 mm 0,0 UV-I 78 W/m 8,2 C 3,9 C 29,0 km/h (5 Bft) 100,00 %
08.10.2017 13:22 9,8 C 11,1 C 90 % 1015,9 hPa 0,0 l/m 15,1 km/h (3 Bft) SW 227 0 min 0,000 mm 0,0 UV-I 70 W/m 8,2 C 4,8 C 22,5 km/h (4 Bft) 100,00 %
08.10.2017 13:24 9,8 C 11,1 C 90 % 1016,0 hPa 0,0 l/m 17,2 km/h (3 Bft) SW 228 0 min 0,000 mm 0,0 UV-I 66 W/m 8,2 C 4,0 C 24,1 km/h (4 Bft) 100,00 %
08.10.2017 13:26 9,8 C 11,1 C 90 % 1015,9 hPa 0,0 l/m 18,3 km/h (3 Bft) SW 229 0 min 0,000 mm 0,0 UV-I 73 W/m 8,2 C 3,6 C 30,6 km/h (5 Bft) 100,00 %
08.10.2017 13:28 9,8 C 11,1 C 90 % 1015,9 hPa 0,0 l/m 14,9 km/h (3 Bft) SW 232 0 min 0,000 mm 0,0 UV-I 77 W/m 8,2 C 4,9 C 22,5 km/h (4 Bft) 100,00 %
08.10.2017 13:30 9,8 C 11,1 C 90 % 1015,8 hPa 0,0 l/m 20,5 km/h (4 Bft) SW 229 0 min 0,000 mm 0,0 UV-I 72 W/m 8,2 C 2,9 C 29,0 km/h (5 Bft) 100,00 %
08.10.2017 13:32 9,8 C 11,1 C 90 % 1015,8 hPa 0,0 l/m 15,7 km/h (3 Bft) W-SW 248 0 min 0,000 mm 0,4 UV-I 83 W/m 8,2 C 4,6 C 22,5 km/h (4 Bft) 100,00 %
08.10.2017 13:34 9,8 C 11,1 C 90 % 1015,8 hPa 0,0 l/m 13,3 km/h (3 Bft) W-SW 242 0 min 0,000 mm 0,1 UV-I 75 W/m 8,2 C 5,6 C 19,3 km/h (3 Bft) 100,00 %
08.10.2017 13:36 9,8 C 11,1 C 90 % 1015,8 hPa 0,0 l/m 13,1 km/h (3 Bft) SW 229 0 min 0,000 mm 0,0 UV-I 68 W/m 8,2 C 5,7 C 20,9 km/h (4 Bft) 97,37 %
08.10.2017 13:38 9,9 C 11,1 C 90 % 1015,8 hPa 0,0 l/m 13,3 km/h (3 Bft) W-SW 238 0 min 0,000 mm 0,1 UV-I 80 W/m 8,3 C 5,8 C 22,5 km/h (4 Bft) 100,00 %
08.10.2017 13:40 9,9 C 11,1 C 90 % 1015,7 hPa 0,0 l/m 14,2 km/h (3 Bft) SW 234 0 min 0,000 mm 0,6 UV-I 104 W/m 8,3 C 5,4 C 20,9 km/h (4 Bft) 100,00 %
08.10.2017 13:42 9,9 C 11,1 C 90 % 1015,7 hPa 0,0 l/m 15,0 km/h (3 Bft) S-SW 202 0 min 0,000 mm 0,6 UV-I 111 W/m 8,3 C 5,0 C 20,9 km/h (4 Bft) 98,11 %
08.10.2017 13:44 9,9 C 11,1 C 91 % 1015,8 hPa 0,0 l/m 12,0 km/h (2 Bft) W-SW 242 0 min 0,000 mm 0,5 UV-I 102 W/m 8,5 C 6,4 C 25,7 km/h (4 Bft) 100,00 %
08.10.2017 13:46 9,9 C 11,1 C 91 % 1015,7 hPa 0,0 l/m 14,8 km/h (3 Bft) W 265 0 min 0,000 mm 0,6 UV-I 104 W/m 8,5 C 5,1 C 25,7 km/h (4 Bft) 100,00 %
08.10.2017 13:48 9,9 C 11,1 C 91 % 1015,7 hPa 0,0 l/m 17,8 km/h (3 Bft) SW 232 0 min 0,000 mm 0,6 UV-I 115 W/m 8,5 C 3,9 C 25,7 km/h (4 Bft) 97,44 %
08.10.2017 13:50 9,9 C 11,1 C 91 % 1015,7 hPa 0,0 l/m 16,6 km/h (3 Bft) W 266 0 min 0,000 mm 0,9 UV-I 158 W/m 8,5 C 4,4 C 25,7 km/h (4 Bft) 100,00 %
08.10.2017 13:52 9,9 C 11,1 C 91 % 1015,7 hPa 0,0 l/m 12,4 km/h (3 Bft) SW 233 0 min 0,000 mm 0,8 UV-I 164 W/m 8,5 C 6,2 C 20,9 km/h (4 Bft) 100,00 %
08.10.2017 13:54 10,0 C 11,1 C 92 % 1015,8 hPa 0,0 l/m 13,4 km/h (3 Bft) W-SW 239 0 min 0,000 mm 0,5 UV-I 114 W/m 8,8 C 5,8 C 19,3 km/h (3 Bft) 100,00 %
08.10.2017 13:56 10,1 C 11,1 C 92 % 1015,7 hPa 0,0 l/m 11,4 km/h (2 Bft) W-SW 247 0 min 0,000 mm 0,5 UV-I 93 W/m 8,9 C 6,9 C 16,1 km/h (3 Bft) 100,00 %
08.10.2017 13:58 10,0 C 11,1 C 91 % 1015,7 hPa 0,0 l/m 15,9 km/h (3 Bft) SW 227 0 min 0,000 mm 0,5 UV-I 99 W/m 8,6 C 4,8 C 22,5 km/h (4 Bft) 97,56 %
08.10.2017 14:00 10,0 C 11,1 C 91 % 1015,7 hPa 0,0 l/m 17,2 km/h (3 Bft) SW 223 0 min 0,051 mm 0,5 UV-I 96 W/m 8,6 C 4,3 C 25,7 km/h (4 Bft) 100,00 %
08.10.2017 14:02 10,0 C 11,1 C 91 % 1015,7 hPa 0,0 l/m 12,6 km/h (3 Bft) SW 230 0 min 0,000 mm 0,5 UV-I 93 W/m 8,6 C 6,2 C 20,9 km/h (4 Bft) 100,00 %
08.10.2017 14:04 10,1 C 11,1 C 92 % 1015,7 hPa 0,0 l/m 10,4 km/h (2 Bft) W-SW 240 0 min 0,000 mm 0,5 UV-I 96 W/m 8,9 C 7,5 C 17,7 km/h (3 Bft) 98,11 %
08.10.2017 14:06 10,1 C 11,1 C 92 % 1015,7 hPa 0,0 l/m 13,4 km/h (3 Bft) W-SW 237 0 min 0,000 mm 0,5 UV-I 95 W/m 8,9 C 6,0 C 22,5 km/h (4 Bft) 100,00 %
08.10.2017 14:08 10,1 C 11,1 C 92 % 1015,6 hPa 0,0 l/m 13,2 km/h (3 Bft) SW 222 0 min 0,000 mm 0,6 UV-I 121 W/m 8,9 C 6,0 C 20,9 km/h (4 Bft) 100,00 %
08.10.2017 14:10 10,1 C 11,1 C 92 % 1015,7 hPa 0,0 l/m 18,8 km/h (3 Bft) SW 225 0 min 0,000 mm 0,6 UV-I 120 W/m 8,9 C 3,8 C 25,7 km/h (4 Bft) 98,53 %
08.10.2017 14:12 10,2 C 11,1 C 92 % 1015,7 hPa 0,0 l/m 14,4 km/h (3 Bft) W-SW 256 0 min 0,000 mm 0,5 UV-I 104 W/m 9,0 C 5,6 C 19,3 km/h (3 Bft) 97,56 %
08.10.2017 14:14 10,2 C 11,1 C 92 % 1015,7 hPa 0,0 l/m 15,1 km/h (3 Bft) SW 223 0 min 0,000 mm 0,3 UV-I 89 W/m 9,0 C 5,3 C 22,5 km/h (4 Bft) 100,00 %
08.10.2017 14:16 10,2 C 11,1 C 91 % 1015,7 hPa 0,0 l/m 12,3 km/h (3 Bft) W-SW 251 0 min 0,000 mm 0,0 UV-I 77 W/m 8,8 C 6,6 C 17,7 km/h (3 Bft) 100,00 %
08.10.2017 14:18 10,2 C 11,1 C 91 % 1015,7 hPa 0,0 l/m 11,2 km/h (2 Bft) SW 234 0 min 0,000 mm 0,0 UV-I 76 W/m 8,8 C 7,2 C 17,7 km/h (3 Bft) 100,00 %
08.10.2017 14:20 10,2 C 11,1 C 92 % 1015,7 hPa 0,0 l/m 13,7 km/h (3 Bft) SW 221 0 min 0,000 mm 0,0 UV-I 79 W/m 9,0 C 5,9 C 20,9 km/h (4 Bft) 98,00 %
08.10.2017 14:22 10,2 C 11,1 C 91 % 1015,7 hPa 0,0 l/m 10,7 km/h (2 Bft) S-SW 197 0 min 0,000 mm 0,0 UV-I 64 W/m 8,8 C 7,4 C 17,7 km/h (3 Bft) 98,11 %
08.10.2017 14:24 10,2 C 11,1 C 91 % 1015,7 hPa 0,0 l/m 13,1 km/h (3 Bft) W-SW 248 0 min 0,000 mm 0,0 UV-I 66 W/m 8,8 C 6,2 C 17,7 km/h (3 Bft) 100,00 %
08.10.2017 14:26 10,2 C 11,1 C 91 % 1015,7 hPa 0,0 l/m 15,7 km/h (3 Bft) W-SW 254 0 min 0,000 mm 0,0 UV-I 81 W/m 8,8 C 5,1 C 27,4 km/h (4 Bft) 100,00 %
08.10.2017 14:28 10,3 C 11,1 C 91 % 1015,8 hPa 0,0 l/m 13,6 km/h (3 Bft) W 269 0 min 0,000 mm 0,0 UV-I 82 W/m 8,9 C 6,1 C 20,9 km/h (4 Bft) 92,45 %
08.10.2017 14:30 10,3 C 11,1 C 91 % 1015,7 hPa 0,0 l/m 11,9 km/h (2 Bft) SW 222 0 min 0,000 mm 0,0 UV-I 63 W/m 8,9 C 6,9 C 17,7 km/h (3 Bft) 100,00 %
08.10.2017 14:32 10,3 C 11,1 C 91 % 1015,7 hPa 0,0 l/m 14,5 km/h (3 Bft) SW 231 0 min 0,000 mm 0,0 UV-I 59 W/m 8,9 C 5,7 C 24,1 km/h (4 Bft) 96,00 %
08.10.2017 14:34 10,3 C 11,1 C 91 % 1015,8 hPa 0,0 l/m 15,6 km/h (3 Bft) W-SW 248 0 min 0,000 mm 0,0 UV-I 71 W/m 8,9 C 5,3 C 24,1 km/h (4 Bft) 95,12 %
08.10.2017 14:36 10,3 C 11,1 C 91 % 1015,8 hPa 0,0 l/m 13,5 km/h (3 Bft) W-SW 254 0 min 0,000 mm 0,0 UV-I 67 W/m 8,9 C 6,1 C 24,1 km/h (4 Bft) 95,74 %
08.10.2017 14:38 10,3 C 11,1 C 91 % 1015,7 hPa 0,0 l/m 16,5 km/h (3 Bft) W-SW 250 0 min 0,000 mm 0,0 UV-I 62 W/m 8,9 C 4,9 C 24,1 km/h (4 Bft) 98,21 %
08.10.2017 14:40 10,3 C 11,1 C 91 % 1015,8 hPa 0,0 l/m 13,0 km/h (3 Bft) W-SW 256 0 min 0,000 mm 0,0 UV-I 56 W/m 8,9 C 6,4 C 19,3 km/h (3 Bft) 92,00 %
08.10.2017 14:42 10,3 C 11,1 C 91 % 1015,8 hPa 0,0 l/m 13,4 km/h (3 Bft) W-SW 246 0 min 0,000 mm 0,0 UV-I 53 W/m 8,9 C 6,2 C 17,7 km/h (3 Bft) 95,65 %
08.10.2017 14:44 10,3 C 11,1 C 91 % 1015,8 hPa 0,0 l/m 12,5 km/h (3 Bft) W-SW 252 0 min 0,000 mm 0,0 UV-I 62 W/m 8,9 C 6,6 C 17,7 km/h (3 Bft) 98,53 %
08.10.2017 14:46 10,3 C 11,1 C 91 % 1015,7 hPa 0,0 l/m 11,8 km/h (2 Bft) W-SW 242 0 min 0,000 mm 0,0 UV-I 62 W/m 8,9 C 7,0 C 20,9 km/h (4 Bft) 94,00 %
08.10.2017 14:48 10,3 C 11,1 C 91 % 1015,8 hPa 0,0 l/m 14,3 km/h (3 Bft) W-SW 245 0 min 0,000 mm 0,0 UV-I 63 W/m 8,9 C 5,8 C 24,1 km/h (4 Bft) 97,73 %
08.10.2017 14:50 10,3 C 11,1 C 91 % 1015,8 hPa 0,0 l/m 14,5 km/h (3 Bft) W-SW 238 0 min 0,000 mm 0,0 UV-I 63 W/m 8,9 C 5,7 C 22,5 km/h (4 Bft) 97,37 %
08.10.2017 14:52 10,3 C 11,1 C 91 % 1015,8 hPa 0,0 l/m 13,4 km/h (3 Bft) W-SW 246 0 min 0,000 mm 0,0 UV-I 56 W/m 8,9 C 6,2 C 17,7 km/h (3 Bft) 94,34 %
08.10.2017 14:54 10,3 C 11,1 C 91 % 1015,8 hPa 0,0 l/m 11,3 km/h (2 Bft) SW 217 0 min 0,000 mm 0,0 UV-I 54 W/m 8,9 C 7,2 C 19,3 km/h (3 Bft) 98,00 %
08.10.2017 14:56 10,3 C 11,1 C 92 % 1015,8 hPa 0,0 l/m 13,6 km/h (3 Bft) SW 232 0 min 0,000 mm 0,0 UV-I 52 W/m 9,1 C 6,1 C 20,9 km/h (4 Bft) 98,00 %
08.10.2017 14:58 10,3 C 11,1 C 91 % 1015,8 hPa 0,0 l/m 13,6 km/h (3 Bft) SW 214 0 min 0,000 mm 0,0 UV-I 52 W/m 8,9 C 6,1 C 19,3 km/h (3 Bft) 92,11 %
08.10.2017 15:00 10,3 C 11,1 C 92 % 1015,9 hPa 0,0 l/m 14,9 km/h (3 Bft) SW 236 0 min 0,050 mm 0,0 UV-I 53 W/m 9,1 C 5,5 C 22,5 km/h (4 Bft) 98,00 %
08.10.2017 15:03 10,3 C 11,1 C 92 % 1015,9 hPa 0,0 l/m 14,1 km/h (3 Bft) W-SW 241 0 min 0,000 mm 0,0 UV-I 49 W/m 9,1 C 5,9 C 20,9 km/h (4 Bft) 100,00 %
08.10.2017 15:04 10,3 C 11,1 C 92 % 1015,9 hPa 0,0 l/m 17,7 km/h (3 Bft) S-SW 211 0 min 0,000 mm 0,0 UV-I 50 W/m 9,1 C 4,5 C 22,5 km/h (4 Bft) 100,00 %
08.10.2017 15:06 10,3 C 11,1 C 92 % 1015,9 hPa 0,0 l/m 13,2 km/h (3 Bft) W-SW 238 0 min 0,000 mm 0,0 UV-I 54 W/m 9,1 C 6,3 C 22,5 km/h (4 Bft) 97,62 %
08.10.2017 15:08 10,3 C 11,1 C 92 % 1015,9 hPa 0,0 l/m 15,8 km/h (3 Bft) W-SW 246 0 min 0,000 mm 0,0 UV-I 59 W/m 9,1 C 5,2 C 20,9 km/h (4 Bft) 98,21 %
08.10.2017 15:10 10,3 C 11,1 C 92 % 1015,9 hPa 0,0 l/m 13,0 km/h (3 Bft) S-SW 209 0 min 0,000 mm 0,0 UV-I 61 W/m 9,1 C 6,4 C 19,3 km/h (3 Bft) 97,37 %
08.10.2017 15:12 10,3 C 11,1 C 92 % 1015,9 hPa 0,0 l/m 11,7 km/h (2 Bft) W-SW 250 0 min 0,000 mm 0,0 UV-I 59 W/m 9,1 C 7,0 C 17,7 km/h (3 Bft) 98,21 %
08.10.2017 15:14 10,3 C 11,1 C 92 % 1015,9 hPa 0,0 l/m 14,1 km/h (3 Bft) W-SW 244 0 min 0,000 mm 0,0 UV-I 59 W/m 9,1 C 5,9 C 24,1 km/h (4 Bft) 100,00 %
08.10.2017 15:16 10,3 C 11,1 C 92 % 1015,9 hPa 0,0 l/m 12,5 km/h (3 Bft) W-SW 247 0 min 0,000 mm 0,0 UV-I 63 W/m 9,1 C 6,6 C 24,1 km/h (4 Bft) 97,87 %
08.10.2017 15:18 10,3 C 11,1 C 92 % 1015,8 hPa 0,0 l/m 11,6 km/h (2 Bft) SW 225 0 min 0,000 mm 0,0 UV-I 66 W/m 9,1 C 7,1 C 17,7 km/h (3 Bft) 100,00 %
08.10.2017 15:22 10,3 C 11,1 C 92 % 1015,8 hPa 0,0 l/m 20,4 km/h (4 Bft) SW 228 0 min 0,000 mm 0,0 UV-I 62 W/m 9,1 C 3,5 C 27,4 km/h (4 Bft) 100,00 %
08.10.2017 15:24 10,3 C 11,1 C 92 % 1015,8 hPa 0,0 l/m 13,3 km/h (3 Bft) SW 221 0 min 0,000 mm 0,0 UV-I 73 W/m 9,1 C 6,2 C 20,9 km/h (4 Bft) 100,00 %
08.10.2017 15:26 10,4 C 11,1 C 92 % 1015,8 hPa 0,0 l/m 13,2 km/h (3 Bft) SW 225 0 min 0,000 mm 0,0 UV-I 82 W/m 9,2 C 6,4 C 17,7 km/h (3 Bft) 100,00 %
08.10.2017 15:28 10,4 C 11,1 C 92 % 1015,8 hPa 0,0 l/m 15,2 km/h (3 Bft) W-SW 246 0 min 0,000 mm 0,0 UV-I 92 W/m 9,2 C 5,5 C 22,5 km/h (4 Bft) 100,00 %
08.10.2017 15:30 10,4 C 11,1 C 92 % 1015,8 hPa 0,0 l/m 13,3 km/h (3 Bft) W-SW 249 0 min 0,000 mm 0,0 UV-I 97 W/m 9,2 C 6,4 C 22,5 km/h (4 Bft) 100,00 %
08.10.2017 15:32 10,4 C 11,1 C 92 % 1015,8 hPa 0,0 l/m 12,7 km/h (3 Bft) SW 216 0 min 0,000 mm 0,2 UV-I 106 W/m 9,2 C 6,6 C 19,3 km/h (3 Bft) 100,00 %
08.10.2017 15:34 10,4 C 11,1 C 92 % 1015,8 hPa 0,0 l/m 15,1 km/h (3 Bft) SW 227 0 min 0,000 mm 0,0 UV-I 87 W/m 9,2 C 5,6 C 24,1 km/h (4 Bft) 100,00 %
08.10.2017 15:36 10,4 C 11,1 C 91 % 1015,8 hPa 0,0 l/m 14,8 km/h (3 Bft) SW 224 0 min 0,000 mm 0,0 UV-I 84 W/m 9,0 C 5,7 C 22,5 km/h (4 Bft) 100,00 %
08.10.2017 15:38 10,5 C 11,1 C 91 % 1015,8 hPa 0,0 l/m 12,8 km/h (3 Bft) W-SW 241 0 min 0,000 mm 0,0 UV-I 73 W/m 9,1 C 6,7 C 17,7 km/h (3 Bft) 100,00 %
08.10.2017 15:40 10,5 C 11,1 C 91 % 1015,9 hPa 0,0 l/m 16,5 km/h (3 Bft) W-SW 244 0 min 0,000 mm 0,0 UV-I 69 W/m 9,1 C 5,1 C 24,1 km/h (4 Bft) 100,00 %
08.10.2017 15:42 10,5 C 11,1 C 91 % 1015,8 hPa 0,0 l/m 16,1 km/h (3 Bft) SW 231 0 min 0,000 mm 0,0 UV-I 58 W/m 9,1 C 5,3 C 24,1 km/h (4 Bft) 100,00 %
08.10.2017 15:44 10,5 C 11,1 C 91 % 1015,9 hPa 0,0 l/m 13,2 km/h (3 Bft) W-SW 243 0 min 0,000 mm 0,0 UV-I 56 W/m 9,1 C 6,5 C 24,1 km/h (4 Bft) 95,74 %
08.10.2017 15:46 10,5 C 11,1 C 91 % 1015,9 hPa 0,0 l/m 14,0 km/h (3 Bft) SW 219 0 min 0,000 mm 0,0 UV-I 57 W/m 9,1 C 6,2 C 22,5 km/h (4 Bft) 100,00 %
08.10.2017 15:48 10,5 C 11,1 C 91 % 1015,9 hPa 0,0 l/m 13,7 km/h (3 Bft) W-SW 251 0 min 0,000 mm 0,0 UV-I 58 W/m 9,1 C 6,3 C 24,1 km/h (4 Bft) 100,00 %
08.10.2017 15:50 10,5 C 11,1 C 91 % 1015,9 hPa 0,0 l/m 14,3 km/h (3 Bft) SW 216 0 min 0,000 mm 0,0 UV-I 59 W/m 9,1 C 6,0 C 19,3 km/h (3 Bft) 100,00 %
08.10.2017 15:52 10,5 C 11,1 C 91 % 1015,9 hPa 0,0 l/m 13,9 km/h (3 Bft) SW 229 0 min 0,000 mm 0,0 UV-I 98 W/m 9,1 C 6,2 C 19,3 km/h (3 Bft) 97,73 %
08.10.2017 15:54 10,5 C 11,1 C 91 % 1015,9 hPa 0,0 l/m 16,8 km/h (3 Bft) W-SW 245 0 min 0,000 mm 0,0 UV-I 84 W/m 9,1 C 5,0 C 25,7 km/h (4 Bft) 98,00 %
08.10.2017 15:56 10,6 C 11,1 C 91 % 1015,9 hPa 0,0 l/m 14,2 km/h (3 Bft) SW 227 0 min 0,000 mm 0,0 UV-I 82 W/m 9,2 C 6,2 C 19,3 km/h (3 Bft) 95,12 %
08.10.2017 15:58 10,6 C 11,1 C 90 % 1015,9 hPa 0,0 l/m 13,2 km/h (3 Bft) W-SW 247 0 min 0,000 mm 0,0 UV-I 64 W/m 9,0 C 6,6 C 20,9 km/h (4 Bft) 98,00 %
08.10.2017 16:00 10,6 C 11,1 C 90 % 1015,9 hPa 0,0 l/m 12,6 km/h (3 Bft) SW 236 0 min 0,051 mm 0,0 UV-I 69 W/m 9,0 C 6,9 C 22,5 km/h (4 Bft) 97,87 %
08.10.2017 16:02 10,6 C 11,1 C 90 % 1015,9 hPa 0,0 l/m 14,5 km/h (3 Bft) W-SW 244 0 min 0,000 mm 0,0 UV-I 68 W/m 9,0 C 6,1 C 22,5 km/h (4 Bft) 98,00 %
08.10.2017 16:04 10,6 C 11,1 C 90 % 1015,8 hPa 0,0 l/m 15,1 km/h (3 Bft) W-SW 244 0 min 0,000 mm 0,0 UV-I 73 W/m 9,0 C 5,8 C 22,5 km/h (4 Bft) 97,56 %
08.10.2017 16:06 10,6 C 11,1 C 90 % 1015,8 hPa 0,0 l/m 12,5 km/h (3 Bft) W-SW 243 0 min 0,000 mm 0,0 UV-I 72 W/m 9,0 C 7,0 C 20,9 km/h (4 Bft) 98,18 %
08.10.2017 16:08 10,6 C 11,1 C 91 % 1015,9 hPa 0,0 l/m 14,0 km/h (3 Bft) W-SW 238 0 min 0,000 mm 0,0 UV-I 53 W/m 9,2 C 6,3 C 22,5 km/h (4 Bft) 96,55 %
08.10.2017 16:10 10,6 C 11,1 C 91 % 1016,0 hPa 0,0 l/m 14,6 km/h (3 Bft) S-SW 210 0 min 0,000 mm 0,0 UV-I 37 W/m 9,2 C 6,0 C 24,1 km/h (4 Bft) 98,11 %
08.10.2017 16:12 10,6 C 11,1 C 91 % 1015,9 hPa 0,0 l/m 15,7 km/h (3 Bft) W-SW 237 0 min 0,000 mm 0,0 UV-I 52 W/m 9,2 C 5,6 C 20,9 km/h (4 Bft) 94,64 %
08.10.2017 16:14 10,6 C 11,1 C 91 % 1015,9 hPa 0,0 l/m 14,5 km/h (3 Bft) SW 216 0 min 0,000 mm 0,0 UV-I 56 W/m 9,2 C 6,1 C 22,5 km/h (4 Bft) 97,73 %
08.10.2017 16:16 10,6 C 11,1 C 91 % 1015,9 hPa 0,0 l/m 16,1 km/h (3 Bft) S-SW 198 0 min 0,000 mm 0,0 UV-I 62 W/m 9,2 C 5,4 C 22,5 km/h (4 Bft) 98,11 %
08.10.2017 16:18 10,6 C 11,1 C 91 % 1015,8 hPa 0,0 l/m 13,8 km/h (3 Bft) SW 225 0 min 0,000 mm 0,0 UV-I 71 W/m 9,2 C 6,4 C 20,9 km/h (4 Bft) 97,37 %
08.10.2017 16:20 10,6 C 11,1 C 91 % 1015,9 hPa 0,0 l/m 17,7 km/h (3 Bft) S-SW 212 0 min 0,000 mm 0,0 UV-I 65 W/m 9,2 C 4,8 C 25,7 km/h (4 Bft) 98,21 %
08.10.2017 16:22 10,6 C 11,1 C 91 % 1015,8 hPa 0,0 l/m 16,3 km/h (3 Bft) SW 226 0 min 0,000 mm 0,0 UV-I 71 W/m 9,2 C 5,3 C 25,7 km/h (4 Bft) 97,56 %
08.10.2017 16:24 10,6 C 11,1 C 91 % 1015,7 hPa 0,0 l/m 16,2 km/h (3 Bft) SW 227 0 min 0,000 mm 0,0 UV-I 82 W/m 9,2 C 5,4 C 27,4 km/h (4 Bft) 98,11 %
08.10.2017 16:26 10,6 C 11,1 C 91 % 1015,7 hPa 0,0 l/m 17,3 km/h (3 Bft) W-SW 238 0 min 0,000 mm 0,0 UV-I 96 W/m 9,2 C 5,0 C 25,7 km/h (4 Bft) 97,62 %
08.10.2017 16:28 10,6 C 11,1 C 91 % 1015,7 hPa 0,0 l/m 14,7 km/h (3 Bft) S-SW 213 0 min 0,000 mm 0,0 UV-I 98 W/m 9,2 C 6,0 C 22,5 km/h (4 Bft) 100,00 %
08.10.2017 16:30 10,6 C 11,1 C 91 % 1015,7 hPa 0,0 l/m 15,3 km/h (3 Bft) SW 221 0 min 0,000 mm 0,0 UV-I 101 W/m 9,2 C 5,7 C 25,7 km/h (4 Bft) 95,74 %
08.10.2017 16:32 10,7 C 11,1 C 91 % 1015,6 hPa 0,0 l/m 14,0 km/h (3 Bft) SW 221 0 min 0,000 mm 0,0 UV-I 113 W/m 9,3 C 6,4 C 24,1 km/h (4 Bft) 95,45 %
08.10.2017 16:34 10,7 C 11,1 C 91 % 1015,6 hPa 0,0 l/m 16,1 km/h (3 Bft) SW 217 0 min 0,000 mm 0,0 UV-I 113 W/m 9,3 C 5,5 C 27,4 km/h (4 Bft) 92,73 %
08.10.2017 16:36 10,7 C 11,1 C 91 % 1015,6 hPa 0,0 l/m 13,8 km/h (3 Bft) SW 232 0 min 0,000 mm 0,0 UV-I 96 W/m 9,3 C 6,5 C 22,5 km/h (4 Bft) 96,00 %
08.10.2017 16:38 10,7 C 11,1 C 91 % 1015,6 hPa 0,0 l/m 17,8 km/h (3 Bft) SW 236 0 min 0,000 mm 0,0 UV-I 87 W/m 9,3 C 4,9 C 29,0 km/h (5 Bft) 94,74 %
08.10.2017 16:40 10,7 C 11,1 C 91 % 1015,6 hPa 0,0 l/m 17,5 km/h (3 Bft) SW 229 0 min 0,000 mm 0,0 UV-I 84 W/m 9,3 C 5,0 C 27,4 km/h (4 Bft) 95,12 %
08.10.2017 16:42 10,7 C 11,1 C 91 % 1015,6 hPa 0,0 l/m 15,2 km/h (3 Bft) W-SW 252 0 min 0,000 mm 0,0 UV-I 101 W/m 9,3 C 5,9 C 25,7 km/h (4 Bft) 94,00 %
08.10.2017 16:44 10,7 C 11,1 C 91 % 1015,7 hPa 0,0 l/m 14,3 km/h (3 Bft) SW 232 0 min 0,000 mm 0,0 UV-I 98 W/m 9,3 C 6,3 C 22,5 km/h (4 Bft) 95,74 %
08.10.2017 16:46 10,8 C 11,1 C 91 % 1015,7 hPa 0,0 l/m 13,1 km/h (3 Bft) S 178 0 min 0,000 mm 0,0 UV-I 88 W/m 9,4 C 6,9 C 20,9 km/h (4 Bft) 96,00 %
08.10.2017 16:48 10,8 C 11,1 C 91 % 1015,7 hPa 0,0 l/m 14,9 km/h (3 Bft) SW 217 0 min 0,000 mm 0,0 UV-I 84 W/m 9,4 C 6,1 C 20,9 km/h (4 Bft) 94,34 %
08.10.2017 16:50 10,8 C 11,1 C 90 % 1015,7 hPa 0,0 l/m 19,0 km/h (3 Bft) SW 229 0 min 0,000 mm 0,0 UV-I 80 W/m 9,2 C 4,6 C 25,7 km/h (4 Bft) 93,18 %
08.10.2017 16:52 10,8 C 11,1 C 91 % 1015,7 hPa 0,0 l/m 12,6 km/h (3 Bft) SW 223 0 min 0,000 mm 0,0 UV-I 77 W/m 9,4 C 7,1 C 22,5 km/h (4 Bft) 96,00 %
08.10.2017 16:54 10,8 C 11,1 C 91 % 1015,7 hPa 0,0 l/m 15,3 km/h (3 Bft) SW 215 0 min 0,000 mm 0,0 UV-I 75 W/m 9,4 C 6,0 C 27,4 km/h (4 Bft) 92,68 %
08.10.2017 16:56 10,8 C 11,1 C 90 % 1015,8 hPa 0,0 l/m 16,5 km/h (3 Bft) SW 221 0 min 0,000 mm 0,0 UV-I 70 W/m 9,2 C 5,5 C 24,1 km/h (4 Bft) 94,34 %
08.10.2017 16:58 10,8 C 11,1 C 90 % 1015,8 hPa 0,0 l/m 16,5 km/h (3 Bft) S-SW 213 0 min 0,000 mm 0,0 UV-I 69 W/m 9,2 C 5,5 C 24,1 km/h (4 Bft) 95,74 %
08.10.2017 17:00 10,8 C 11,1 C 90 % 1015,8 hPa 0,0 l/m 15,3 km/h (3 Bft) SW 222 0 min 0,000 mm 0,0 UV-I 64 W/m 9,2 C 6,0 C 22,5 km/h (4 Bft) 97,56 %
08.10.2017 17:02 10,8 C 11,1 C 90 % 1015,8 hPa 0,0 l/m 16,3 km/h (3 Bft) SW 221 0 min 0,051 mm 0,0 UV-I 53 W/m 9,2 C 5,6 C 24,1 km/h (4 Bft) 98,00 %
08.10.2017 17:04 10,8 C 11,1 C 90 % 1015,8 hPa 0,0 l/m 17,3 km/h (3 Bft) S 188 0 min 0,000 mm 0,0 UV-I 50 W/m 9,2 C 5,2 C 30,6 km/h (5 Bft) 100,00 %
08.10.2017 17:06 10,8 C 11,1 C 90 % 1015,8 hPa 0,0 l/m 13,4 km/h (3 Bft) W-SW 240 0 min 0,000 mm 0,0 UV-I 37 W/m 9,2 C 6,8 C 19,3 km/h (3 Bft) 100,00 %
08.10.2017 17:08 10,8 C 11,1 C 90 % 1015,8 hPa 0,0 l/m 12,7 km/h (3 Bft) S-SW 201 0 min 0,000 mm 0,0 UV-I 35 W/m 9,2 C 7,1 C 20,9 km/h (4 Bft) 100,00 %
08.10.2017 17:10 10,8 C 11,1 C 90 % 1015,8 hPa 0,0 l/m 12,5 km/h (3 Bft) SW 234 0 min 0,000 mm 0,0 UV-I 32 W/m 9,2 C 7,2 C 20,9 km/h (4 Bft) 100,00 %
08.10.2017 17:12 10,8 C 11,1 C 90 % 1015,8 hPa 0,0 l/m 15,6 km/h (3 Bft) W-SW 238 0 min 0,000 mm 0,0 UV-I 36 W/m 9,2 C 5,9 C 22,5 km/h (4 Bft) 100,00 %
08.10.2017 17:14 10,7 C 11,1 C 90 % 1015,8 hPa 0,0 l/m 12,4 km/h (3 Bft) S-SW 212 0 min 0,000 mm 0,0 UV-I 35 W/m 9,1 C 7,1 C 16,1 km/h (3 Bft) 100,00 %
08.10.2017 17:16 10,7 C 11,1 C 91 % 1015,9 hPa 0,0 l/m 16,5 km/h (3 Bft) W-SW 246 0 min 0,000 mm 0,0 UV-I 40 W/m 9,3 C 5,4 C 24,1 km/h (4 Bft) 100,00 %
08.10.2017 17:18 10,7 C 11,1 C 90 % 1015,8 hPa 0,0 l/m 15,0 km/h (3 Bft) S-SW 200 0 min 0,000 mm 0,0 UV-I 42 W/m 9,1 C 6,0 C 22,5 km/h (4 Bft) 100,00 %
08.10.2017 17:20 10,7 C 11,1 C 90 % 1015,9 hPa 0,0 l/m 12,1 km/h (2 Bft) W-SW 242 0 min 0,000 mm 0,0 UV-I 42 W/m 9,1 C 7,3 C 19,3 km/h (3 Bft) 100,00 %
08.10.2017 17:22 10,7 C 11,1 C 90 % 1015,9 hPa 0,0 l/m 14,2 km/h (3 Bft) S-SW 209 0 min 0,000 mm 0,0 UV-I 45 W/m 9,1 C 6,3 C 20,9 km/h (4 Bft) 95,45 %
08.10.2017 17:24 10,7 C 11,1 C 90 % 1015,9 hPa 0,0 l/m 12,8 km/h (3 Bft) W-SW 246 0 min 0,000 mm 0,0 UV-I 49 W/m 9,1 C 6,9 C 19,3 km/h (3 Bft) 100,00 %
08.10.2017 17:26 10,8 C 11,1 C 90 % 1015,9 hPa 0,0 l/m 11,7 km/h (2 Bft) W-SW 239 0 min 0,000 mm 0,0 UV-I 44 W/m 9,2 C 7,6 C 19,3 km/h (3 Bft) 100,00 %
08.10.2017 17:28 10,8 C 11,1 C 90 % 1016,0 hPa 0,0 l/m 14,1 km/h (3 Bft) W-SW 245 0 min 0,000 mm 0,0 UV-I 50 W/m 9,2 C 6,5 C 20,9 km/h (4 Bft) 100,00 %
08.10.2017 17:30 10,8 C 11,1 C 90 % 1015,9 hPa 0,0 l/m 14,1 km/h (3 Bft) SW 217 0 min 0,000 mm 0,0 UV-I 45 W/m 9,2 C 6,5 C 20,9 km/h (4 Bft) 100,00 %
08.10.2017 17:32 10,8 C 11,1 C 90 % 1016,0 hPa 0,0 l/m 12,2 km/h (2 Bft) W-SW 237 0 min 0,000 mm 0,0 UV-I 47 W/m 9,2 C 7,3 C 17,7 km/h (3 Bft) 100,00 %
08.10.2017 17:34 10,8 C 11,1 C 90 % 1015,9 hPa 0,0 l/m 15,3 km/h (3 Bft) W-SW 250 0 min 0,000 mm 0,0 UV-I 51 W/m 9,2 C 6,0 C 22,5 km/h (4 Bft) 100,00 %
08.10.2017 17:36 10,8 C 11,1 C 90 % 1016,0 hPa 0,0 l/m 19,4 km/h (3 Bft) W 261 0 min 0,000 mm 0,0 UV-I 52 W/m 9,2 C 4,5 C 27,4 km/h (4 Bft) 100,00 %
08.10.2017 17:38 10,7 C 11,1 C 90 % 1016,0 hPa 0,0 l/m 13,9 km/h (3 Bft) SW 234 0 min 0,000 mm 0,0 UV-I 53 W/m 9,1 C 6,4 C 19,3 km/h (3 Bft) 100,00 %
08.10.2017 17:40 10,7 C 11,1 C 90 % 1015,9 hPa 0,0 l/m 15,4 km/h (3 Bft) W-SW 248 0 min 0,000 mm 0,0 UV-I 54 W/m 9,1 C 5,8 C 24,1 km/h (4 Bft) 100,00 %
08.10.2017 17:42 10,7 C 11,1 C 90 % 1016,0 hPa 0,0 l/m 13,9 km/h (3 Bft) SW 228 0 min 0,000 mm 0,0 UV-I 45 W/m 9,1 C 6,4 C 22,5 km/h (4 Bft) 98,08 %
08.10.2017 17:44 10,7 C 11,1 C 90 % 1016,0 hPa 0,0 l/m 11,3 km/h (2 Bft) SW 232 0 min 0,000 mm 0,0 UV-I 40 W/m 9,1 C 7,7 C 17,7 km/h (3 Bft) 100,00 %
08.10.2017 17:46 10,7 C 11,1 C 90 % 1016,1 hPa 0,0 l/m 13,4 km/h (3 Bft) SW 236 0 min 0,000 mm 0,0 UV-I 40 W/m 9,1 C 6,7 C 20,9 km/h (4 Bft) 100,00 %
08.10.2017 17:48 10,7 C 11,1 C 90 % 1016,0 hPa 0,0 l/m 15,1 km/h (3 Bft) SW 221 0 min 0,000 mm 0,0 UV-I 41 W/m 9,1 C 5,9 C 22,5 km/h (4 Bft) 100,00 %
08.10.2017 17:50 10,7 C 11,1 C 90 % 1016,1 hPa 0,0 l/m 13,8 km/h (3 Bft) SW 224 0 min 0,000 mm 0,0 UV-I 34 W/m 9,1 C 6,5 C 20,9 km/h (4 Bft) 100,00 %
08.10.2017 17:52 10,7 C 11,1 C 90 % 1016,1 hPa 0,0 l/m 17,6 km/h (3 Bft) W-SW 241 0 min 0,000 mm 0,0 UV-I 25 W/m 9,1 C 5,0 C 29,0 km/h (5 Bft) 100,00 %
08.10.2017 17:54 10,7 C 11,1 C 90 % 1016,1 hPa 0,0 l/m 19,5 km/h (3 Bft) SW 236 0 min 0,000 mm 0,0 UV-I 25 W/m 9,1 C 4,4 C 27,4 km/h (4 Bft) 98,00 %
08.10.2017 17:56 10,6 C 11,1 C 90 % 1016,1 hPa 0,0 l/m 13,6 km/h (3 Bft) SW 232 0 min 0,000 mm 0,0 UV-I 24 W/m 9,0 C 6,5 C 17,7 km/h (3 Bft) 100,00 %
08.10.2017 17:58 10,6 C 11,1 C 90 % 1016,2 hPa 0,0 l/m 10,3 km/h (2 Bft) SW 226 0 min 0,000 mm 0,0 UV-I 24 W/m 9,0 C 8,1 C 16,1 km/h (3 Bft) 98,11 %
08.10.2017 18:00 10,6 C 11,1 C 90 % 1016,1 hPa 0,0 l/m 11,9 km/h (2 Bft) SW 232 0 min 0,025 mm 0,0 UV-I 23 W/m 9,0 C 7,3 C 19,3 km/h (3 Bft) 100,00 %
08.10.2017 18:02 10,5 C 11,1 C 90 % 1016,1 hPa 0,0 l/m 11,9 km/h (2 Bft) W-SW 246 0 min 0,000 mm 0,0 UV-I 21 W/m 8,9 C 7,1 C 17,7 km/h (3 Bft) 100,00 %
08.10.2017 18:04 10,5 C 11,1 C 90 % 1016,1 hPa 0,0 l/m 13,0 km/h (3 Bft) S-SW 199 0 min 0,000 mm 0,0 UV-I 21 W/m 8,9 C 6,6 C 19,3 km/h (3 Bft) 100,00 %
08.10.2017 18:06 10,5 C 11,1 C 91 % 1016,1 hPa 0,0 l/m 12,9 km/h (3 Bft) W-SW 241 0 min 0,000 mm 0,0 UV-I 19 W/m 9,1 C 6,7 C 20,9 km/h (4 Bft) 100,00 %
08.10.2017 18:08 10,5 C 11,1 C 91 % 1015,9 hPa 0,0 l/m 12,8 km/h (3 Bft) SW 222 0 min 0,000 mm 0,0 UV-I 16 W/m 9,1 C 6,7 C 20,9 km/h (4 Bft) 98,21 %
08.10.2017 18:10 10,5 C 11,1 C 91 % 1016,1 hPa 0,0 l/m 17,3 km/h (3 Bft) SW 230 0 min 0,000 mm 0,0 UV-I 15 W/m 9,1 C 4,9 C 27,4 km/h (4 Bft) 100,00 %
08.10.2017 18:12 10,4 C 11,1 C 91 % 1016,1 hPa 0,0 l/m 16,4 km/h (3 Bft) SW 227 0 min 0,000 mm 0,0 UV-I 14 W/m 9,0 C 5,1 C 25,7 km/h (4 Bft) 100,00 %
08.10.2017 18:14 10,4 C 11,1 C 91 % 1016,0 hPa 0,0 l/m 18,3 km/h (3 Bft) S-SW 210 0 min 0,000 mm 0,0 UV-I 14 W/m 9,0 C 4,4 C 25,7 km/h (4 Bft) 100,00 %
08.10.2017 18:16 10,5 C 11,1 C 91 % 1016,1 hPa 0,0 l/m 18,1 km/h (3 Bft) SW 225 2 min 0,000 mm 0,0 UV-I 16 W/m 9,1 C 4,6 C 22,5 km/h (4 Bft) 100,00 %
08.10.2017 18:18 10,4 C 11,1 C 91 % 1016,1 hPa 0,0 l/m 16,1 km/h (3 Bft) W 273 2 min 0,000 mm 0,0 UV-I 14 W/m 9,0 C 5,2 C 20,9 km/h (4 Bft) 98,11 %
08.10.2017 18:20 10,4 C 11,1 C 91 % 1016,1 hPa 0,0 l/m 14,4 km/h (3 Bft) W 261 0 min 0,000 mm 0,0 UV-I 12 W/m 9,0 C 5,9 C 25,7 km/h (4 Bft) 97,62 %
08.10.2017 18:22 10,4 C 11,1 C 91 % 1016,1 hPa 0,0 l/m 17,5 km/h (3 Bft) SW 236 0 min 0,000 mm 0,0 UV-I 11 W/m 9,0 C 4,7 C 25,7 km/h (4 Bft) 98,08 %
08.10.2017 18:24 10,4 C 11,1 C 91 % 1016,1 hPa 0,0 l/m 12,9 km/h (3 Bft) SW 225 0 min 0,000 mm 0,0 UV-I 10 W/m 9,0 C 6,5 C 19,3 km/h (3 Bft) 100,00 %
08.10.2017 18:26 10,4 C 11,1 C 92 % 1016,1 hPa 0,0 l/m 17,4 km/h (3 Bft) SW 227 0 min 0,000 mm 0,0 UV-I 9 W/m 9,2 C 4,7 C 27,4 km/h (4 Bft) 100,00 %
08.10.2017 18:28 10,3 C 11,1 C 91 % 1016,1 hPa 0,0 l/m 14,9 km/h (3 Bft) SW 234 0 min 0,000 mm 0,0 UV-I 7 W/m 8,9 C 5,5 C 22,5 km/h (4 Bft) 100,00 %
08.10.2017 18:30 10,3 C 11,1 C 92 % 1016,1 hPa 0,0 l/m 14,3 km/h (3 Bft) W-SW 245 0 min 0,000 mm 0,0 UV-I 7 W/m 9,1 C 5,8 C 24,1 km/h (4 Bft) 98,00 %
08.10.2017 18:32 10,3 C 11,1 C 92 % 1016,1 hPa 0,0 l/m 17,1 km/h (3 Bft) W-SW 239 0 min 0,000 mm 0,0 UV-I 7 W/m 9,1 C 4,7 C 27,4 km/h (4 Bft) 97,37 %
08.10.2017 18:34 10,3 C 11,1 C 92 % 1016,2 hPa 0,0 l/m 13,0 km/h (3 Bft) W 265 0 min 0,000 mm 0,0 UV-I 7 W/m 9,1 C 6,4 C 19,3 km/h (3 Bft) 96,23 %
08.10.2017 18:36 10,3 C 11,1 C 92 % 1016,2 hPa 0,0 l/m 12,9 km/h (3 Bft) W-SW 243 0 min 0,000 mm 0,0 UV-I 6 W/m 9,1 C 6,4 C 17,7 km/h (3 Bft) 97,56 %
08.10.2017 18:38 10,2 C 11,1 C 92 % 1016,3 hPa 0,0 l/m 13,5 km/h (3 Bft) W-SW 250 0 min 0,000 mm 0,0 UV-I 5 W/m 9,0 C 6,0 C 19,3 km/h (3 Bft) 94,34 %
08.10.2017 18:40 10,2 C 11,1 C 92 % 1016,2 hPa 0,0 l/m 13,3 km/h (3 Bft) SW 223 0 min 0,000 mm 0,0 UV-I 5 W/m 9,0 C 6,1 C 19,3 km/h (3 Bft) 98,00 %
08.10.2017 18:42 10,2 C 11,1 C 92 % 1016,2 hPa 0,0 l/m 15,1 km/h (3 Bft) SW 219 0 min 0,000 mm 0,0 UV-I 5 W/m 9,0 C 5,3 C 22,5 km/h (4 Bft) 94,29 %
08.10.2017 18:44 10,2 C 11,1 C 92 % 1016,3 hPa 0,0 l/m 12,2 km/h (2 Bft) SW 227 0 min 0,000 mm 0,0 UV-I 3 W/m 9,0 C 6,6 C 22,5 km/h (4 Bft) 97,73 %
08.10.2017 18:46 10,2 C 11,1 C 92 % 1016,2 hPa 0,0 l/m 14,3 km/h (3 Bft) W-SW 244 0 min 0,000 mm 0,0 UV-I 0 W/m 9,0 C 5,7 C 22,5 km/h (4 Bft) 98,21 %
08.10.2017 18:48 10,2 C 11,1 C 92 % 1016,2 hPa 0,0 l/m 15,0 km/h (3 Bft) S-SW 210 0 min 0,000 mm 0,0 UV-I 0 W/m 9,0 C 5,4 C 24,1 km/h (4 Bft) 98,00 %
08.10.2017 18:50 10,1 C 11,1 C 92 % 1016,3 hPa 0,0 l/m 13,7 km/h (3 Bft) S-SW 198 0 min 0,000 mm 0,0 UV-I 0 W/m 8,9 C 5,8 C 20,9 km/h (4 Bft) 97,56 %
08.10.2017 18:52 10,1 C 11,1 C 92 % 1016,3 hPa 0,0 l/m 13,4 km/h (3 Bft) SW 223 0 min 0,000 mm 0,0 UV-I 0 W/m 8,9 C 6,0 C 24,1 km/h (4 Bft) 94,34 %
08.10.2017 18:54 10,1 C 11,1 C 92 % 1016,3 hPa 0,0 l/m 12,8 km/h (3 Bft) SW 234 0 min 0,000 mm 0,0 UV-I 0 W/m 8,9 C 6,2 C 20,9 km/h (4 Bft) 97,87 %
08.10.2017 18:56 10,1 C 11,1 C 92 % 1016,3 hPa 0,0 l/m 16,9 km/h (3 Bft) W 259 0 min 0,000 mm 0,0 UV-I 0 W/m 8,9 C 4,5 C 22,5 km/h (4 Bft) 97,37 %
08.10.2017 18:58 10,1 C 11,1 C 92 % 1016,3 hPa 0,0 l/m 15,1 km/h (3 Bft) SW 225 0 min 0,000 mm 0,0 UV-I 0 W/m 8,9 C 5,2 C 20,9 km/h (4 Bft) 97,78 %
08.10.2017 19:00 10,1 C 11,1 C 92 % 1016,4 hPa 0,0 l/m 16,3 km/h (3 Bft) SW 225 0 min 0,000 mm 0,0 UV-I 0 W/m 8,9 C 4,7 C 22,5 km/h (4 Bft) 96,23 %
08.10.2017 19:02 10,0 C 11,1 C 92 % 1016,4 hPa 0,0 l/m 14,7 km/h (3 Bft) SW 229 0 min 0,026 mm 0,0 UV-I 0 W/m 8,8 C 5,3 C 22,5 km/h (4 Bft) 95,92 %
08.10.2017 19:04 10,0 C 11,1 C 92 % 1016,4 hPa 0,0 l/m 14,0 km/h (3 Bft) W-SW 238 0 min 0,000 mm 0,0 UV-I 0 W/m 8,8 C 5,6 C 19,3 km/h (3 Bft) 97,44 %
08.10.2017 19:06 9,9 C 11,1 C 92 % 1016,4 hPa 0,0 l/m 14,2 km/h (3 Bft) W-SW 240 0 min 0,000 mm 0,0 UV-I 0 W/m 8,7 C 5,4 C 20,9 km/h (4 Bft) 100,00 %
08.10.2017 19:08 9,9 C 11,1 C 92 % 1016,4 hPa 0,0 l/m 15,9 km/h (3 Bft) W-SW 238 0 min 0,000 mm 0,0 UV-I 0 W/m 8,7 C 4,6 C 24,1 km/h (4 Bft) 100,00 %
08.10.2017 19:10 9,9 C 11,1 C 92 % 1016,4 hPa 0,0 l/m 15,3 km/h (3 Bft) S-SW 213 0 min 0,000 mm 0,0 UV-I 0 W/m 8,7 C 4,9 C 25,7 km/h (4 Bft) 100,00 %
08.10.2017 19:12 9,9 C 11,1 C 92 % 1016,5 hPa 0,0 l/m 15,6 km/h (3 Bft) W-SW 241 0 min 0,000 mm 0,0 UV-I 0 W/m 8,7 C 4,8 C 22,5 km/h (4 Bft) 96,61 %
08.10.2017 19:14 9,9 C 11,1 C 92 % 1016,5 hPa 0,0 l/m 13,4 km/h (3 Bft) SW 223 0 min 0,000 mm 0,0 UV-I 0 W/m 8,7 C 5,7 C 24,1 km/h (4 Bft) 100,00 %
08.10.2017 19:16 9,9 C 11,1 C 92 % 1016,5 hPa 0,0 l/m 13,1 km/h (3 Bft) SW 227 0 min 0,000 mm 0,0 UV-I 0 W/m 8,7 C 5,9 C 19,3 km/h (3 Bft) 98,21 %
08.10.2017 19:18 9,9 C 11,1 C 92 % 1016,5 hPa 0,0 l/m 14,8 km/h (3 Bft) SW 229 0 min 0,000 mm 0,0 UV-I 0 W/m 8,7 C 5,1 C 24,1 km/h (4 Bft) 98,00 %
08.10.2017 19:20 9,9 C 11,1 C 92 % 1016,6 hPa 0,0 l/m 13,3 km/h (3 Bft) W-SW 246 0 min 0,000 mm 0,0 UV-I 0 W/m 8,7 C 5,8 C 22,5 km/h (4 Bft) 100,00 %
08.10.2017 19:22 9,9 C 11,1 C 92 % 1016,6 hPa 0,0 l/m 12,2 km/h (2 Bft) W 266 0 min 0,000 mm 0,0 UV-I 0 W/m 8,7 C 6,3 C 17,7 km/h (3 Bft) 97,37 %
08.10.2017 19:24 9,9 C 11,1 C 92 % 1016,5 hPa 0,0 l/m 14,1 km/h (3 Bft) W-SW 240 0 min 0,000 mm 0,0 UV-I 0 W/m 8,7 C 5,4 C 19,3 km/h (3 Bft) 97,56 %
08.10.2017 19:26 9,9 C 11,1 C 92 % 1016,6 hPa 0,0 l/m 11,7 km/h (2 Bft) SW 227 0 min 0,000 mm 0,0 UV-I 0 W/m 8,7 C 6,6 C 17,7 km/h (3 Bft) 100,00 %
08.10.2017 19:28 9,9 C 11,1 C 92 % 1016,7 hPa 0,0 l/m 11,5 km/h (2 Bft) SW 235 0 min 0,000 mm 0,0 UV-I 0 W/m 8,7 C 6,7 C 17,7 km/h (3 Bft) 100,00 %
08.10.2017 19:30 9,9 C 11,1 C 92 % 1016,6 hPa 0,0 l/m 14,8 km/h (3 Bft) W-SW 238 0 min 0,000 mm 0,0 UV-I 0 W/m 8,7 C 5,1 C 24,1 km/h (4 Bft) 100,00 %
08.10.2017 19:32 9,8 C 11,1 C 92 % 1016,6 hPa 0,0 l/m 10,3 km/h (2 Bft) SW 235 0 min 0,000 mm 0,0 UV-I 0 W/m 8,6 C 7,2 C 16,1 km/h (3 Bft) 100,00 %
08.10.2017 19:34 9,8 C 11,1 C 92 % 1016,6 hPa 0,0 l/m 12,1 km/h (2 Bft) SW 219 0 min 0,000 mm 0,0 UV-I 0 W/m 8,6 C 6,2 C 17,7 km/h (3 Bft) 100,00 %
08.10.2017 19:36 9,8 C 11,1 C 92 % 1016,7 hPa 0,0 l/m 12,9 km/h (3 Bft) W-SW 242 0 min 0,000 mm 0,0 UV-I 0 W/m 8,6 C 5,8 C 17,7 km/h (3 Bft) 100,00 %
08.10.2017 19:38 9,8 C 11,1 C 92 % 1016,6 hPa 0,0 l/m 15,5 km/h (3 Bft) W-SW 244 0 min 0,000 mm 0,0 UV-I 0 W/m 8,6 C 4,7 C 20,9 km/h (4 Bft) 100,00 %
08.10.2017 19:40 9,8 C 11,1 C 92 % 1016,6 hPa 0,0 l/m 12,9 km/h (3 Bft) SW 227 0 min 0,000 mm 0,0 UV-I 0 W/m 8,6 C 5,8 C 17,7 km/h (3 Bft) 95,74 %
08.10.2017 19:42 9,8 C 11,1 C 92 % 1016,7 hPa 0,0 l/m 13,2 km/h (3 Bft) SW 235 0 min 0,000 mm 0,0 UV-I 0 W/m 8,6 C 5,7 C 20,9 km/h (4 Bft) 100,00 %
08.10.2017 19:44 9,8 C 11,1 C 92 % 1016,7 hPa 0,0 l/m 16,3 km/h (3 Bft) W-SW 250 0 min 0,000 mm 0,0 UV-I 0 W/m 8,6 C 4,4 C 22,5 km/h (4 Bft) 100,00 %
08.10.2017 19:46 9,9 C 11,1 C 92 % 1016,7 hPa 0,0 l/m 14,8 km/h (3 Bft) S-SW 213 0 min 0,000 mm 0,0 UV-I 0 W/m 8,7 C 5,1 C 24,1 km/h (4 Bft) 100,00 %
08.10.2017 19:48 9,9 C 11,1 C 92 % 1016,7 hPa 0,0 l/m 13,7 km/h (3 Bft) SW 234 0 min 0,000 mm 0,0 UV-I 0 W/m 8,7 C 5,6 C 22,5 km/h (4 Bft) 95,59 %
08.10.2017 19:50 9,9 C 11,1 C 92 % 1016,7 hPa 0,0 l/m 15,3 km/h (3 Bft) W-SW 257 0 min 0,000 mm 0,0 UV-I 0 W/m 8,7 C 4,9 C 22,5 km/h (4 Bft) 97,73 %
08.10.2017 19:52 9,9 C 11,1 C 92 % 1016,8 hPa 0,0 l/m 14,4 km/h (3 Bft) W-SW 237 0 min 0,000 mm 0,0 UV-I 0 W/m 8,7 C 5,3 C 19,3 km/h (3 Bft) 98,00 %
08.10.2017 19:54 9,9 C 11,1 C 92 % 1016,8 hPa 0,0 l/m 13,8 km/h (3 Bft) SW 234 0 min 0,000 mm 0,0 UV-I 0 W/m 8,7 C 5,5 C 22,5 km/h (4 Bft) 97,87 %
08.10.2017 19:56 9,9 C 11,1 C 92 % 1016,8 hPa 0,0 l/m 14,4 km/h (3 Bft) SW 225 0 min 0,000 mm 0,0 UV-I 0 W/m 8,7 C 5,3 C 20,9 km/h (4 Bft) 97,37 %
08.10.2017 19:58 9,9 C 11,1 C 92 % 1016,8 hPa 0,0 l/m 11,5 km/h (2 Bft) SW 225 0 min 0,000 mm 0,0 UV-I 0 W/m 8,7 C 6,7 C 16,1 km/h (3 Bft) 98,00 %
08.10.2017 20:00 9,9 C 11,1 C 92 % 1016,8 hPa 0,0 l/m 11,7 km/h (2 Bft) S-SW 213 0 min 0,025 mm 0,0 UV-I 0 W/m 8,7 C 6,6 C 17,7 km/h (3 Bft) 97,73 %
08.10.2017 20:02 9,9 C 11,1 C 92 % 1016,8 hPa 0,0 l/m 13,5 km/h (3 Bft) SW 227 0 min 0,000 mm 0,0 UV-I 0 W/m 8,7 C 5,7 C 19,3 km/h (3 Bft) 97,73 %
08.10.2017 20:04 9,9 C 11,1 C 92 % 1016,9 hPa 0,0 l/m 12,1 km/h (2 Bft) W 265 0 min 0,000 mm 0,0 UV-I 0 W/m 8,7 C 6,3 C 16,1 km/h (3 Bft) 96,00 %
08.10.2017 20:06 9,9 C 11,1 C 92 % 1016,9 hPa 0,0 l/m 12,7 km/h (3 Bft) W-SW 237 0 min 0,000 mm 0,0 UV-I 0 W/m 8,7 C 6,1 C 20,9 km/h (4 Bft) 96,00 %
08.10.2017 20:08 9,9 C 11,1 C 92 % 1016,9 hPa 0,0 l/m 12,3 km/h (3 Bft) W-SW 242 0 min 0,000 mm 0,0 UV-I 0 W/m 8,7 C 6,2 C 20,9 km/h (4 Bft) 96,00 %
08.10.2017 20:10 9,9 C 11,1 C 92 % 1016,9 hPa 0,0 l/m 15,0 km/h (3 Bft) SW 236 0 min 0,000 mm 0,0 UV-I 0 W/m 8,7 C 5,0 C 24,1 km/h (4 Bft) 100,00 %
08.10.2017 20:12 9,9 C 11,1 C 92 % 1016,9 hPa 0,0 l/m 16,5 km/h (3 Bft) W-SW 241 0 min 0,000 mm 0,0 UV-I 0 W/m 8,7 C 4,4 C 24,1 km/h (4 Bft) 95,56 %
08.10.2017 20:14 10,0 C 11,1 C 92 % 1016,9 hPa 0,0 l/m 14,4 km/h (3 Bft) W-SW 244 0 min 0,000 mm 0,0 UV-I 0 W/m 8,8 C 5,4 C 22,5 km/h (4 Bft) 96,15 %
08.10.2017 20:16 10,0 C 11,1 C 92 % 1016,9 hPa 0,0 l/m 16,4 km/h (3 Bft) SW 236 0 min 0,000 mm 0,0 UV-I 0 W/m 8,8 C 4,6 C 24,1 km/h (4 Bft) 96,43 %
08.10.2017 20:18 10,0 C 11,1 C 92 % 1016,9 hPa 0,0 l/m 14,5 km/h (3 Bft) SW 228 0 min 0,000 mm 0,0 UV-I 0 W/m 8,8 C 5,3 C 24,1 km/h (4 Bft) 97,44 %
08.10.2017 20:20 10,0 C 11,1 C 91 % 1016,9 hPa 0,0 l/m 16,0 km/h (3 Bft) SW 224 0 min 0,000 mm 0,0 UV-I 0 W/m 8,6 C 4,7 C 22,5 km/h (4 Bft) 97,67 %
08.10.2017 20:22 10,1 C 11,1 C 92 % 1016,9 hPa 0,0 l/m 15,3 km/h (3 Bft) SW 234 0 min 0,000 mm 0,0 UV-I 0 W/m 8,9 C 5,1 C 25,7 km/h (4 Bft) 98,00 %
08.10.2017 20:24 10,1 C 11,1 C 91 % 1017,0 hPa 0,0 l/m 16,1 km/h (3 Bft) W-SW 244 0 min 0,000 mm 0,0 UV-I 0 W/m 8,7 C 4,8 C 22,5 km/h (4 Bft) 98,00 %
08.10.2017 20:26 10,1 C 11,1 C 91 % 1017,0 hPa 0,0 l/m 13,7 km/h (3 Bft) SW 221 0 min 0,000 mm 0,0 UV-I 0 W/m 8,7 C 5,8 C 17,7 km/h (3 Bft) 98,00 %
08.10.2017 20:28 10,1 C 11,1 C 91 % 1017,0 hPa 0,0 l/m 11,6 km/h (2 Bft) SW 229 0 min 0,000 mm 0,0 UV-I 0 W/m 8,7 C 6,8 C 19,3 km/h (3 Bft) 96,00 %
08.10.2017 20:30 10,1 C 11,1 C 91 % 1017,0 hPa 0,0 l/m 15,4 km/h (3 Bft) W 261 0 min 0,000 mm 0,0 UV-I 0 W/m 8,7 C 5,1 C 24,1 km/h (4 Bft) 100,00 %
08.10.2017 20:32 10,2 C 11,1 C 91 % 1017,0 hPa 0,0 l/m 16,5 km/h (3 Bft) SW 236 0 min 0,000 mm 0,0 UV-I 0 W/m 8,8 C 4,8 C 22,5 km/h (4 Bft) 96,23 %
08.10.2017 20:34 10,2 C 11,1 C 91 % 1017,0 hPa 0,0 l/m 17,0 km/h (3 Bft) W-SW 240 0 min 0,000 mm 0,0 UV-I 0 W/m 8,8 C 4,6 C 25,7 km/h (4 Bft) 98,00 %
08.10.2017 20:36 10,2 C 11,1 C 91 % 1017,0 hPa 0,0 l/m 17,7 km/h (3 Bft) SW 231 0 min 0,000 mm 0,0 UV-I 0 W/m 8,8 C 4,3 C 24,1 km/h (4 Bft) 95,12 %
08.10.2017 20:38 10,3 C 11,1 C 91 % 1016,9 hPa 0,0 l/m 16,2 km/h (3 Bft) W-SW 255 0 min 0,000 mm 0,0 UV-I 0 W/m 8,9 C 5,0 C 24,1 km/h (4 Bft) 93,18 %
08.10.2017 20:40 10,3 C 11,1 C 91 % 1016,9 hPa 0,0 l/m 15,0 km/h (3 Bft) SW 221 0 min 0,000 mm 0,0 UV-I 0 W/m 8,9 C 5,5 C 20,9 km/h (4 Bft) 95,12 %
08.10.2017 20:42 10,3 C 11,1 C 91 % 1016,9 hPa 0,0 l/m 18,8 km/h (3 Bft) SW 229 0 min 0,000 mm 0,0 UV-I 0 W/m 8,9 C 4,1 C 25,7 km/h (4 Bft) 96,23 %
08.10.2017 20:44 10,3 C 11,1 C 91 % 1017,0 hPa 0,0 l/m 15,7 km/h (3 Bft) SW 236 0 min 0,000 mm 0,0 UV-I 0 W/m 8,9 C 5,2 C 24,1 km/h (4 Bft) 95,12 %
08.10.2017 20:46 10,4 C 11,1 C 91 % 1016,9 hPa 0,0 l/m 16,8 km/h (3 Bft) S-SW 203 0 min 0,000 mm 0,0 UV-I 0 W/m 9,0 C 4,9 C 24,1 km/h (4 Bft) 96,23 %
08.10.2017 20:48 10,4 C 11,1 C 91 % 1016,9 hPa 0,0 l/m 19,4 km/h (3 Bft) W-SW 254 0 min 0,000 mm 0,0 UV-I 0 W/m 9,0 C 4,0 C 27,4 km/h (4 Bft) 95,45 %
08.10.2017 20:50 10,4 C 11,1 C 90 % 1016,9 hPa 0,0 l/m 14,9 km/h (3 Bft) W-SW 243 0 min 0,000 mm 0,0 UV-I 0 W/m 8,8 C 5,7 C 22,5 km/h (4 Bft) 92,86 %
08.10.2017 20:52 10,4 C 11,1 C 90 % 1016,9 hPa 0,0 l/m 17,7 km/h (3 Bft) SW 226 0 min 0,000 mm 0,0 UV-I 0 W/m 8,8 C 4,6 C 24,1 km/h (4 Bft) 100,00 %
08.10.2017 20:54 10,4 C 11,1 C 90 % 1016,9 hPa 0,0 l/m 14,5 km/h (3 Bft) W-SW 247 0 min 0,000 mm 0,0 UV-I 0 W/m 8,8 C 5,8 C 22,5 km/h (4 Bft) 98,00 %
08.10.2017 20:56 10,3 C 11,1 C 91 % 1016,9 hPa 0,0 l/m 15,3 km/h (3 Bft) SW 227 0 min 0,000 mm 0,0 UV-I 0 W/m 8,9 C 5,4 C 25,7 km/h (4 Bft) 97,56 %
08.10.2017 20:58 10,3 C 11,1 C 91 % 1016,9 hPa 0,0 l/m 15,6 km/h (3 Bft) SW 236 0 min 0,000 mm 0,0 UV-I 0 W/m 8,9 C 5,3 C 24,1 km/h (4 Bft) 98,00 %
08.10.2017 21:00 10,3 C 11,1 C 91 % 1016,9 hPa 0,0 l/m 19,8 km/h (3 Bft) S-SW 200 0 min 0,026 mm 0,0 UV-I 0 W/m 8,9 C 3,7 C 32,2 km/h (5 Bft) 97,62 %
08.10.2017 21:02 10,3 C 11,1 C 91 % 1016,9 hPa 0,0 l/m 15,9 km/h (3 Bft) SW 236 0 min 0,000 mm 0,0 UV-I 0 W/m 8,9 C 5,1 C 20,9 km/h (4 Bft) 98,00 %
08.10.2017 21:04 10,3 C 11,1 C 91 % 1016,9 hPa 0,0 l/m 12,6 km/h (3 Bft) W-SW 243 0 min 0,000 mm 0,0 UV-I 0 W/m 8,9 C 6,6 C 22,5 km/h (4 Bft) 98,00 %
08.10.2017 21:06 10,3 C 11,1 C 91 % 1016,9 hPa 0,0 l/m 19,2 km/h (3 Bft) W-SW 242 0 min 0,000 mm 0,0 UV-I 0 W/m 8,9 C 3,9 C 27,4 km/h (4 Bft) 96,00 %
08.10.2017 21:08 10,3 C 11,1 C 91 % 1017,0 hPa 0,0 l/m 15,6 km/h (3 Bft) S-SW 211 0 min 0,000 mm 0,0 UV-I 0 W/m 8,9 C 5,3 C 25,7 km/h (4 Bft) 97,30 %
08.10.2017 21:10 10,3 C 11,1 C 90 % 1016,9 hPa 0,0 l/m 21,6 km/h (4 Bft) SW 225 0 min 0,000 mm 0,0 UV-I 0 W/m 8,7 C 3,2 C 30,6 km/h (5 Bft) 96,23 %
08.10.2017 21:12 10,4 C 11,1 C 90 % 1017,0 hPa 0,0 l/m 21,2 km/h (4 Bft) W-SW 238 0 min 0,000 mm 0,0 UV-I 0 W/m 8,8 C 3,4 C 32,2 km/h (5 Bft) 100,00 %
08.10.2017 21:14 10,4 C 11,1 C 90 % 1016,9 hPa 0,0 l/m 14,8 km/h (3 Bft) W-SW 238 0 min 0,000 mm 0,0 UV-I 0 W/m 8,8 C 5,7 C 22,5 km/h (4 Bft) 97,56 %
08.10.2017 21:16 10,4 C 11,1 C 90 % 1016,9 hPa 0,0 l/m 12,8 km/h (3 Bft) SW 220 0 min 0,000 mm 0,0 UV-I 0 W/m 8,8 C 6,6 C 20,9 km/h (4 Bft) 100,00 %
08.10.2017 21:18 10,4 C 11,1 C 90 % 1016,9 hPa 0,0 l/m 15,2 km/h (3 Bft) W-SW 247 0 min 0,000 mm 0,0 UV-I 0 W/m 8,8 C 5,5 C 22,5 km/h (4 Bft) 96,00 %
08.10.2017 21:20 10,5 C 11,1 C 90 % 1016,9 hPa 0,0 l/m 18,6 km/h (3 Bft) SW 223 0 min 0,000 mm 0,0 UV-I 0 W/m 8,9 C 4,4 C 25,7 km/h (4 Bft) 100,00 %
08.10.2017 21:22 10,5 C 11,1 C 90 % 1016,9 hPa 0,0 l/m 17,6 km/h (3 Bft) W-SW 238 0 min 0,000 mm 0,0 UV-I 0 W/m 8,9 C 4,7 C 25,7 km/h (4 Bft) 100,00 %
08.10.2017 21:24 10,5 C 11,1 C 90 % 1016,9 hPa 0,0 l/m 15,1 km/h (3 Bft) S-SW 204 0 min 0,000 mm 0,0 UV-I 0 W/m 8,9 C 5,7 C 24,1 km/h (4 Bft) 97,73 %
08.10.2017 21:26 10,5 C 11,1 C 90 % 1016,9 hPa 0,0 l/m 17,5 km/h (3 Bft) S-SW 213 0 min 0,000 mm 0,0 UV-I 0 W/m 8,9 C 4,8 C 24,1 km/h (4 Bft) 96,30 %
08.10.2017 21:28 10,6 C 11,1 C 90 % 1016,9 hPa 0,0 l/m 15,6 km/h (3 Bft) SW 226 0 min 0,000 mm 0,0 UV-I 0 W/m 9,0 C 5,6 C 27,4 km/h (4 Bft) 100,00 %
08.10.2017 21:30 10,6 C 11,1 C 90 % 1016,9 hPa 0,0 l/m 18,2 km/h (3 Bft) SW 219 0 min 0,000 mm 0,0 UV-I 0 W/m 9,0 C 4,7 C 27,4 km/h (4 Bft) 100,00 %
08.10.2017 21:32 10,6 C 11,1 C 90 % 1016,9 hPa 0,0 l/m 15,8 km/h (3 Bft) W-SW 238 0 min 0,000 mm 0,0 UV-I 0 W/m 9,0 C 5,5 C 24,1 km/h (4 Bft) 100,00 %
08.10.2017 21:34 10,6 C 11,1 C 90 % 1016,9 hPa 0,0 l/m 18,2 km/h (3 Bft) SW 235 0 min 0,000 mm 0,0 UV-I 0 W/m 9,0 C 4,7 C 24,1 km/h (4 Bft) 97,87 %
08.10.2017 21:36 10,6 C 11,1 C 90 % 1016,9 hPa 0,0 l/m 15,5 km/h (3 Bft) W-SW 248 0 min 0,000 mm 0,0 UV-I 0 W/m 9,0 C 5,7 C 24,1 km/h (4 Bft) 100,00 %
08.10.2017 21:38 10,7 C 11,1 C 90 % 1017,0 hPa 0,0 l/m 14,0 km/h (3 Bft) SW 223 0 min 0,000 mm 0,0 UV-I 0 W/m 9,1 C 6,4 C 27,4 km/h (4 Bft) 100,00 %
08.10.2017 21:40 10,7 C 11,1 C 90 % 1016,9 hPa 0,0 l/m 16,4 km/h (3 Bft) SW 233 0 min 0,000 mm 0,0 UV-I 0 W/m 9,1 C 5,4 C 22,5 km/h (4 Bft) 100,00 %
08.10.2017 21:42 10,7 C 11,1 C 90 % 1017,0 hPa 0,0 l/m 14,2 km/h (3 Bft) SW 236 0 min 0,000 mm 0,0 UV-I 0 W/m 9,1 C 6,3 C 19,3 km/h (3 Bft) 98,11 %
08.10.2017 21:44 10,7 C 11,1 C 90 % 1017,0 hPa 0,0 l/m 12,8 km/h (3 Bft) S-SW 210 0 min 0,000 mm 0,0 UV-I 0 W/m 9,1 C 6,9 C 19,3 km/h (3 Bft) 100,00 %
08.10.2017 21:46 10,6 C 11,1 C 90 % 1016,9 hPa 0,0 l/m 16,2 km/h (3 Bft) SW 224 0 min 0,000 mm 0,0 UV-I 0 W/m 9,0 C 5,4 C 24,1 km/h (4 Bft) 100,00 %
08.10.2017 21:48 10,6 C 11,1 C 90 % 1016,9 hPa 0,0 l/m 14,2 km/h (3 Bft) SW 219 0 min 0,000 mm 0,0 UV-I 0 W/m 9,0 C 6,2 C 22,5 km/h (4 Bft) 100,00 %
08.10.2017 21:50 10,6 C 11,1 C 90 % 1016,9 hPa 0,0 l/m 15,1 km/h (3 Bft) SW 226 0 min 0,000 mm 0,0 UV-I 0 W/m 9,0 C 5,8 C 19,3 km/h (3 Bft) 100,00 %
08.10.2017 21:52 10,6 C 11,1 C 90 % 1016,8 hPa 0,0 l/m 17,4 km/h (3 Bft) W-SW 238 0 min 0,000 mm 0,0 UV-I 0 W/m 9,0 C 4,9 C 24,1 km/h (4 Bft) 98,11 %
08.10.2017 21:54 10,6 C 11,1 C 90 % 1016,9 hPa 0,0 l/m 15,2 km/h (3 Bft) S-SW 201 0 min 0,000 mm 0,0 UV-I 0 W/m 9,0 C 5,8 C 22,5 km/h (4 Bft) 100,00 %
08.10.2017 21:56 10,6 C 11,1 C 90 % 1016,9 hPa 0,0 l/m 11,6 km/h (2 Bft) W-SW 242 0 min 0,000 mm 0,0 UV-I 0 W/m 9,0 C 7,4 C 16,1 km/h (3 Bft) 100,00 %
08.10.2017 21:58 10,6 C 11,1 C 90 % 1016,9 hPa 0,0 l/m 13,0 km/h (3 Bft) SW 231 0 min 0,000 mm 0,0 UV-I 0 W/m 9,0 C 6,7 C 19,3 km/h (3 Bft) 100,00 %
08.10.2017 22:00 10,6 C 11,1 C 90 % 1016,9 hPa 0,0 l/m 13,6 km/h (3 Bft) SW 235 0 min 0,000 mm 0,0 UV-I 0 W/m 9,0 C 6,5 C 25,7 km/h (4 Bft) 98,00 %
08.10.2017 22:02 10,6 C 11,1 C 90 % 1016,9 hPa 0,0 l/m 15,7 km/h (3 Bft) SW 225 0 min 0,025 mm 0,0 UV-I 0 W/m 9,0 C 5,6 C 22,5 km/h (4 Bft) 100,00 %
08.10.2017 22:04 10,7 C 11,1 C 90 % 1016,9 hPa 0,0 l/m 14,9 km/h (3 Bft) SW 217 0 min 0,000 mm 0,0 UV-I 0 W/m 9,1 C 6,0 C 22,5 km/h (4 Bft) 100,00 %
08.10.2017 22:06 10,7 C 11,1 C 89 % 1016,9 hPa 0,0 l/m 16,1 km/h (3 Bft) SW 232 0 min 0,000 mm 0,0 UV-I 0 W/m 9,0 C 5,5 C 24,1 km/h (4 Bft) 98,00 %
08.10.2017 22:08 10,7 C 11,1 C 89 % 1016,9 hPa 0,0 l/m 15,9 km/h (3 Bft) SW 225 0 min 0,000 mm 0,0 UV-I 0 W/m 9,0 C 5,6 C 24,1 km/h (4 Bft) 100,00 %
08.10.2017 22:10 10,7 C 11,1 C 89 % 1016,9 hPa 0,0 l/m 15,8 km/h (3 Bft) S-SW 202 0 min 0,000 mm 0,0 UV-I 0 W/m 9,0 C 5,7 C 25,7 km/h (4 Bft) 100,00 %
08.10.2017 22:12 10,7 C 11,1 C 89 % 1016,8 hPa 0,0 l/m 15,8 km/h (3 Bft) SW 231 0 min 0,000 mm 0,0 UV-I 0 W/m 9,0 C 5,7 C 27,4 km/h (4 Bft) 100,00 %
08.10.2017 22:14 10,7 C 11,1 C 89 % 1016,8 hPa 0,0 l/m 14,9 km/h (3 Bft) W-SW 242 0 min 0,000 mm 0,0 UV-I 0 W/m 9,0 C 6,0 C 22,5 km/h (4 Bft) 100,00 %
08.10.2017 22:16 10,7 C 11,1 C 89 % 1016,8 hPa 0,0 l/m 14,5 km/h (3 Bft) SW 215 0 min 0,000 mm 0,0 UV-I 0 W/m 9,0 C 6,2 C 22,5 km/h (4 Bft) 100,00 %
08.10.2017 22:18 10,7 C 11,1 C 89 % 1016,8 hPa 0,0 l/m 16,3 km/h (3 Bft) W-SW 248 0 min 0,000 mm 0,0 UV-I 0 W/m 9,0 C 5,5 C 24,1 km/h (4 Bft) 100,00 %
08.10.2017 22:20 10,7 C 11,1 C 89 % 1016,8 hPa 0,0 l/m 13,6 km/h (3 Bft) SW 229 0 min 0,000 mm 0,0 UV-I 0 W/m 9,0 C 6,6 C 20,9 km/h (4 Bft) 100,00 %
08.10.2017 22:22 10,7 C 11,1 C 89 % 1016,8 hPa 0,0 l/m 14,1 km/h (3 Bft) SW 236 0 min 0,000 mm 0,0 UV-I 0 W/m 9,0 C 6,4 C 22,5 km/h (4 Bft) 97,44 %
08.10.2017 22:24 10,7 C 11,1 C 89 % 1016,8 hPa 0,0 l/m 12,5 km/h (3 Bft) W-SW 238 0 min 0,000 mm 0,0 UV-I 0 W/m 9,0 C 7,1 C 19,3 km/h (3 Bft) 100,00 %
08.10.2017 22:26 10,7 C 11,1 C 89 % 1016,8 hPa 0,0 l/m 13,6 km/h (3 Bft) SW 232 0 min 0,000 mm 0,0 UV-I 0 W/m 9,0 C 6,6 C 20,9 km/h (4 Bft) 100,00 %
08.10.2017 22:28 10,7 C 11,1 C 89 % 1016,8 hPa 0,0 l/m 13,9 km/h (3 Bft) W-SW 254 0 min 0,000 mm 0,0 UV-I 0 W/m 9,0 C 6,4 C 19,3 km/h (3 Bft) 100,00 %
08.10.2017 22:30 10,7 C 11,1 C 89 % 1016,8 hPa 0,0 l/m 16,9 km/h (3 Bft) SW 235 0 min 0,000 mm 0,0 UV-I 0 W/m 9,0 C 5,2 C 24,1 km/h (4 Bft) 94,74 %
08.10.2017 22:32 10,7 C 11,1 C 89 % 1016,8 hPa 0,0 l/m 17,9 km/h (3 Bft) W-SW 250 0 min 0,000 mm 0,0 UV-I 0 W/m 9,0 C 4,9 C 25,7 km/h (4 Bft) 100,00 %
08.10.2017 22:34 10,7 C 11,1 C 89 % 1016,8 hPa 0,0 l/m 20,2 km/h (4 Bft) SW 225 0 min 0,000 mm 0,0 UV-I 0 W/m 9,0 C 4,1 C 27,4 km/h (4 Bft) 97,87 %
08.10.2017 22:36 10,7 C 11,1 C 89 % 1016,8 hPa 0,0 l/m 13,3 km/h (3 Bft) W-SW 240 0 min 0,000 mm 0,0 UV-I 0 W/m 9,0 C 6,7 C 17,7 km/h (3 Bft) 100,00 %
08.10.2017 22:38 10,7 C 11,1 C 89 % 1016,8 hPa 0,0 l/m 17,1 km/h (3 Bft) W-SW 242 0 min 0,000 mm 0,0 UV-I 0 W/m 9,0 C 5,2 C 25,7 km/h (4 Bft) 100,00 %
08.10.2017 22:40 10,7 C 11,1 C 89 % 1016,8 hPa 0,0 l/m 17,6 km/h (3 Bft) W-SW 246 0 min 0,000 mm 0,0 UV-I 0 W/m 9,0 C 5,0 C 24,1 km/h (4 Bft) 100,00 %
08.10.2017 22:42 10,7 C 11,1 C 89 % 1016,9 hPa 0,0 l/m 19,0 km/h (3 Bft) W-SW 244 0 min 0,000 mm 0,0 UV-I 0 W/m 9,0 C 4,5 C 27,4 km/h (4 Bft) 100,00 %
08.10.2017 22:44 10,7 C 11,1 C 89 % 1016,9 hPa 0,0 l/m 14,9 km/h (3 Bft) W-SW 242 0 min 0,000 mm 0,0 UV-I 0 W/m 9,0 C 6,0 C 20,9 km/h (4 Bft) 97,56 %
08.10.2017 22:46 10,8 C 11,1 C 89 % 1016,9 hPa 0,0 l/m 16,0 km/h (3 Bft) S-SW 213 0 min 0,000 mm 0,0 UV-I 0 W/m 9,1 C 5,7 C 25,7 km/h (4 Bft) 98,11 %
08.10.2017 22:48 10,8 C 11,1 C 89 % 1016,9 hPa 0,0 l/m 17,8 km/h (3 Bft) S-SW 198 0 min 0,000 mm 0,0 UV-I 0 W/m 9,1 C 5,0 C 25,7 km/h (4 Bft) 97,87 %
08.10.2017 22:50 10,8 C 11,1 C 89 % 1016,9 hPa 0,0 l/m 17,8 km/h (3 Bft) SW 216 0 min 0,000 mm 0,0 UV-I 0 W/m 9,1 C 5,0 C 25,7 km/h (4 Bft) 97,14 %
08.10.2017 22:52 10,8 C 11,1 C 89 % 1016,9 hPa 0,0 l/m 15,1 km/h (3 Bft) SW 225 0 min 0,000 mm 0,0 UV-I 0 W/m 9,1 C 6,1 C 29,0 km/h (5 Bft) 94,64 %
08.10.2017 22:54 10,8 C 11,1 C 89 % 1016,9 hPa 0,0 l/m 18,6 km/h (3 Bft) W 259 0 min 0,000 mm 0,0 UV-I 0 W/m 9,1 C 4,8 C 27,4 km/h (4 Bft) 97,73 %
08.10.2017 22:56 10,8 C 11,1 C 89 % 1016,9 hPa 0,0 l/m 16,3 km/h (3 Bft) W-SW 254 0 min 0,000 mm 0,0 UV-I 0 W/m 9,1 C 5,6 C 27,4 km/h (4 Bft) 95,24 %
08.10.2017 22:58 10,8 C 11,1 C 89 % 1016,9 hPa 0,0 l/m 14,4 km/h (3 Bft) W-SW 240 0 min 0,000 mm 0,0 UV-I 0 W/m 9,1 C 6,4 C 22,5 km/h (4 Bft) 98,21 %
08.10.2017 23:00 10,8 C 11,1 C 89 % 1016,9 hPa 0,0 l/m 14,7 km/h (3 Bft) W-SW 246 0 min 0,025 mm 0,0 UV-I 0 W/m 9,1 C 6,2 C 20,9 km/h (4 Bft) 97,96 %
08.10.2017 23:02 10,8 C 11,1 C 89 % 1016,8 hPa 0,0 l/m 17,2 km/h (3 Bft) W-SW 251 0 min 0,000 mm 0,0 UV-I 0 W/m 9,1 C 5,3 C 25,7 km/h (4 Bft) 97,22 %
08.10.2017 23:04 10,8 C 11,1 C 89 % 1016,9 hPa 0,0 l/m 16,8 km/h (3 Bft) W 274 0 min 0,000 mm 0,0 UV-I 0 W/m 9,1 C 5,4 C 27,4 km/h (4 Bft) 96,23 %
08.10.2017 23:06 10,8 C 11,1 C 89 % 1017,0 hPa 0,0 l/m 17,4 km/h (3 Bft) SW 232 0 min 0,000 mm 0,0 UV-I 0 W/m 9,1 C 5,2 C 24,1 km/h (4 Bft) 98,00 %
08.10.2017 23:08 10,8 C 11,1 C 89 % 1016,9 hPa 0,0 l/m 18,7 km/h (3 Bft) SW 227 0 min 0,000 mm 0,0 UV-I 0 W/m 9,1 C 4,7 C 24,1 km/h (4 Bft) 95,12 %
08.10.2017 23:10 10,8 C 11,1 C 89 % 1017,0 hPa 0,0 l/m 16,3 km/h (3 Bft) SW 228 0 min 0,000 mm 0,0 UV-I 0 W/m 9,1 C 5,6 C 20,9 km/h (4 Bft) 96,23 %
08.10.2017 23:12 10,8 C 11,1 C 89 % 1017,0 hPa 0,0 l/m 16,6 km/h (3 Bft) SW 223 0 min 0,000 mm 0,0 UV-I 0 W/m 9,1 C 5,5 C 24,1 km/h (4 Bft) 97,87 %
08.10.2017 23:14 10,8 C 11,1 C 89 % 1017,0 hPa 0,0 l/m 13,8 km/h (3 Bft) S-SW 198 0 min 0,000 mm 0,0 UV-I 0 W/m 9,1 C 6,6 C 20,9 km/h (4 Bft) 97,73 %
08.10.2017 23:16 10,8 C 11,1 C 89 % 1016,9 hPa 0,0 l/m 20,6 km/h (4 Bft) SW 223 0 min 0,000 mm 0,0 UV-I 0 W/m 9,1 C 4,1 C 29,0 km/h (5 Bft) 95,45 %
08.10.2017 23:18 10,8 C 11,1 C 88 % 1016,9 hPa 0,0 l/m 18,3 km/h (3 Bft) SW 234 0 min 0,000 mm 0,0 UV-I 0 W/m 8,9 C 4,9 C 30,6 km/h (5 Bft) 100,00 %
08.10.2017 23:20 10,8 C 11,1 C 88 % 1017,0 hPa 0,0 l/m 16,3 km/h (3 Bft) S-SW 204 0 min 0,000 mm 0,0 UV-I 0 W/m 8,9 C 5,6 C 25,7 km/h (4 Bft) 100,00 %
08.10.2017 23:22 10,8 C 11,1 C 88 % 1016,9 hPa 0,0 l/m 20,2 km/h (4 Bft) S-SW 207 0 min 0,000 mm 0,0 UV-I 0 W/m 8,9 C 4,3 C 27,4 km/h (4 Bft) 97,73 %
08.10.2017 23:24 10,8 C 11,1 C 88 % 1017,0 hPa 0,0 l/m 17,7 km/h (3 Bft) SW 231 0 min 0,000 mm 0,0 UV-I 0 W/m 8,9 C 5,1 C 27,4 km/h (4 Bft) 100,00 %
08.10.2017 23:26 10,8 C 11,1 C 88 % 1017,0 hPa 0,0 l/m 16,8 km/h (3 Bft) SW 214 0 min 0,000 mm 0,0 UV-I 0 W/m 8,9 C 5,4 C 29,0 km/h (5 Bft) 100,00 %
08.10.2017 23:28 10,8 C 11,1 C 88 % 1017,0 hPa 0,0 l/m 16,1 km/h (3 Bft) S-SW 206 0 min 0,000 mm 0,0 UV-I 0 W/m 8,9 C 5,7 C 22,5 km/h (4 Bft) 97,87 %
08.10.2017 23:30 10,8 C 11,1 C 88 % 1017,1 hPa 0,0 l/m 16,5 km/h (3 Bft) SW 232 0 min 0,000 mm 0,0 UV-I 0 W/m 8,9 C 5,5 C 25,7 km/h (4 Bft) 97,87 %
08.10.2017 23:32 10,8 C 11,1 C 88 % 1017,0 hPa 0,0 l/m 17,5 km/h (3 Bft) W-SW 257 0 min 0,000 mm 0,0 UV-I 0 W/m 8,9 C 5,2 C 27,4 km/h (4 Bft) 100,00 %
08.10.2017 23:34 10,8 C 11,1 C 88 % 1017,0 hPa 0,0 l/m 15,3 km/h (3 Bft) S 179 0 min 0,000 mm 0,0 UV-I 0 W/m 8,9 C 6,0 C 25,7 km/h (4 Bft) 100,00 %
08.10.2017 23:36 10,8 C 11,1 C 88 % 1017,0 hPa 0,0 l/m 11,9 km/h (2 Bft) W-SW 251 0 min 0,000 mm 0,0 UV-I 0 W/m 8,9 C 7,5 C 19,3 km/h (3 Bft) 97,62 %
08.10.2017 23:38 10,8 C 11,1 C 88 % 1017,0 hPa 0,0 l/m 16,0 km/h (3 Bft) SW 236 0 min 0,000 mm 0,0 UV-I 0 W/m 8,9 C 5,7 C 27,4 km/h (4 Bft) 98,08 %
08.10.2017 23:40 10,8 C 11,1 C 88 % 1017,0 hPa 0,0 l/m 13,9 km/h (3 Bft) SW 218 0 min 0,000 mm 0,0 UV-I 0 W/m 8,9 C 6,6 C 22,5 km/h (4 Bft) 100,00 %
08.10.2017 23:42 10,9 C 11,1 C 88 % 1016,9 hPa 0,0 l/m 14,3 km/h (3 Bft) W-SW 257 0 min 0,000 mm 0,0 UV-I 0 W/m 9,0 C 6,5 C 24,1 km/h (4 Bft) 100,00 %
08.10.2017 23:44 10,8 C 11,1 C 88 % 1017,0 hPa 0,0 l/m 17,9 km/h (3 Bft) SW 233 0 min 0,000 mm 0,0 UV-I 0 W/m 8,9 C 5,0 C 27,4 km/h (4 Bft) 97,87 %
08.10.2017 23:46 10,9 C 11,1 C 88 % 1016,9 hPa 0,0 l/m 17,8 km/h (3 Bft) S-SW 209 0 min 0,000 mm 0,0 UV-I 0 W/m 9,0 C 5,2 C 25,7 km/h (4 Bft) 97,87 %
08.10.2017 23:48 10,9 C 11,1 C 88 % 1016,9 hPa 0,0 l/m 14,8 km/h (3 Bft) W-SW 254 0 min 0,000 mm 0,0 UV-I 0 W/m 9,0 C 6,3 C 27,4 km/h (4 Bft) 97,56 %
08.10.2017 23:50 10,9 C 11,1 C 88 % 1016,9 hPa 0,0 l/m 16,2 km/h (3 Bft) SW 217 0 min 0,000 mm 0,0 UV-I 0 W/m 9,0 C 5,8 C 22,5 km/h (4 Bft) 97,73 %
08.10.2017 23:52 10,9 C 11,1 C 88 % 1016,9 hPa 0,0 l/m 12,0 km/h (2 Bft) W 264 0 min 0,000 mm 0,0 UV-I 0 W/m 9,0 C 7,6 C 19,3 km/h (3 Bft) 98,31 %
08.10.2017 23:54 10,9 C 11,1 C 88 % 1016,9 hPa 0,0 l/m 15,0 km/h (3 Bft) W-SW 258 0 min 0,000 mm 0,0 UV-I 0 W/m 9,0 C 6,2 C 24,1 km/h (4 Bft) 97,37 %
08.10.2017 23:56 10,9 C 11,1 C 88 % 1016,9 hPa 0,0 l/m 16,3 km/h (3 Bft) SW 226 0 min 0,000 mm 0,0 UV-I 0 W/m 9,0 C 5,7 C 25,7 km/h (4 Bft) 98,21 %
08.10.2017 23:58 10,9 C 11,1 C 88 % 1016,9 hPa 0,0 l/m 16,4 km/h (3 Bft) SW 227 0 min 0,000 mm 0,0 UV-I 0 W/m 9,0 C 5,7 C 30,6 km/h (5 Bft) 97,14 %
_ Min-Zeit 07:04 07:00 03:24 05:28 - 06:42 - - - - - - 02:48 08:38 05:30 00:02
Minimum _ 8,2 C 11,1 C 67 % 1014,0 hPa - 5,1 km/h (1 Bft) - - - - - - 5,0 C 0,8 C 8,0 km/h (2 Bft) 6,25 %
_ Max-Zeit 03:26 00:00 07:04 23:30 07:20 12:50 - - 18:16 03:02 13:50 13:52 16:46 04:16 03:24 00:50
Maximum _ 11,2 C 11,7 C 92 % 1017,1 hPa 0,2 l/m 24,0 km/h
W-SW (4 Bft)
- - 2 min 0,051 mm 0,9 UV-I 164 W/m 9,4 C 10,0 C 41,8 km/h
W-SW (6 Bft)
100,00 %
Durchschnitt _ 9,8 C 11,3 C 87 % 1015,4 hPa #2,0 l/m 14,1 km/h (3 Bft) W-SW - #4 min. #0,787 mm 0,5 UV-I 59 W/m 7,8 C 5,5 C 21,6 km/h (4 Bft) 97,94 %